[[{"header":{"parameterUnit":"m.s-1","parameterCategory":1,"la1":30.6,"la2":28.766,"lo1":-90.7593,"lo2":-88.6598,"dy":0.0162,"dx":0.0183,"nx":116,"ny":114,"refTime":"2024-07-06T12:00:00:Z","depth":0,"parameterNumber":2,"parameterNumberName":"U-component_of_WINDS"},"data":[0.0,0.0,0.0,0.0,0.0,0.0,0.0,0.0,0.0,0.0,0.0,0.0,0.0,0.0,0.0,0.0,0.0,0.0,0.0,0.0,0.0,0.0,0.0,0.0,0.0,0.0,0.0,0.0,0.0,0.0,0.0,0.0,0.0,0.0,0.0,0.0,0.0,0.0,0.0,0.0,0.0,0.0,0.0,0.0,0.0,0.0,0.0,0.0,0.0,0.0,0.0,0.0,0.0,0.0,0.0,0.0,0.0,0.0,0.0,0.0,0.0,0.0,0.0,0.0,0.0,0.0,0.0,0.0,0.0,0.0,0.0,0.0,0.0,0.0,0.0,0.0,0.0,0.0,0.0,0.0,0.0,0.0,0.0,0.0,0.0,0.0,0.0,0.0,0.0,0.0,0.0,0.0,0.0,0.0,0.0,0.0,0.0,0.0,0.0,0.0,0.0,0.0,0.0,0.0,0.0,0.0,0.0,0.0,0.0,0.0,0.0,0.0,0.0,0.0,0.0,0.0,0.0,0.0,0.0,0.0,0.0,0.0,0.0,0.0,0.0,0.0,0.0,0.0,0.0,0.0,0.0,0.0,0.0,0.0,0.0,0.0,0.0,0.0,0.0,0.0,0.0,0.0,0.0,0.0,0.0,0.0,0.0,0.0,0.0,0.0,0.0,0.0,0.0,0.0,0.0,0.0,0.0,0.0,0.0,0.0,0.0,0.0,0.0,0.0,0.0,0.0,0.0,0.0,0.0,0.0,0.0,0.0,0.0,0.0,0.0,0.0,0.0,0.0,0.0,0.0,0.0,0.0,0.0,0.0,0.0,0.0,0.0,0.0,0.0,0.0,0.0,0.0,0.0,0.0,0.0,0.0,0.0,0.0,0.0,0.0,0.0,0.0,0.0,0.0,0.0,0.0,0.0,0.0,0.0,0.0,0.0,0.0,0.0,0.0,0.0,0.0,0.0,0.0,0.0,0.0,0.0,0.0,0.0,0.0,0.0,0.0,0.0,0.0,0.0,0.0,0.0,0.0,0.0,0.0,0.0,0.0,0.0,0.0,0.0,0.0,0.0,0.0,0.0,0.0,0.0,0.0,0.0,0.0,0.0,0.0,0.0,0.0,0.0,0.0,0.0,0.0,0.0,0.0,0.0,0.0,0.0,0.0,0.0,0.0,0.0,0.0,0.0,0.0,0.0,0.0,0.0,0.0,0.0,0.0,0.0,0.0,0.0,0.0,0.0,0.0,0.0,0.0,0.0,0.0,0.0,0.0,0.0,0.0,0.0,0.0,0.0,0.0,0.0,0.0,0.0,0.0,0.0,0.0,0.0,0.0,0.0,0.0,0.0,0.0,0.0,0.0,0.0,0.0,0.0,0.0,0.0,0.0,0.0,0.0,0.0,0.0,0.0,0.0,0.0,0.0,0.0,0.0,0.0,0.0,0.0,0.0,0.0,0.0,0.0,0.0,0.0,0.0,0.0,0.0,0.0,0.0,0.0,0.0,0.0,0.0,0.0,0.0,0.0,0.0,0.0,0.0,0.0,0.0,0.0,0.0,0.0,0.0,0.0,0.0,0.0,0.0,0.0,0.0,0.0,0.0,0.0,0.0,0.0,0.0,0.0,0.0,0.0,0.0,0.0,0.0,0.0,0.0,0.0,0.0,0.0,0.0,0.0,0.0,0.0,0.0,0.0,0.0,0.0,0.0,0.0,0.0,0.0,0.0,0.0,0.0,0.0,0.0,0.0,0.0,0.0,0.0,0.0,0.0,0.0,0.0,0.0,0.0,0.0,0.0,0.0,0.0,0.0,0.0,0.0,0.0,0.0,0.0,0.0,0.0,0.0,0.0,0.0,0.0,0.0,0.0,0.0,0.0,0.0,0.0,0.0,0.0,0.0,0.0,0.0,0.0,0.0,0.0,0.0,0.0,0.0,0.0,0.0,0.0,0.0,0.0,0.0,0.0,0.0,0.0,0.0,0.0,0.0,0.0,0.0,0.0,0.0,0.0,0.0,0.0,0.0,0.0,0.0,0.0,0.0,0.0,0.0,0.0,0.0,0.0,0.0,0.0,0.0,0.0,0.0,0.0,0.0,0.0,0.0,0.0,0.0,0.0,0.0,0.0,0.0,0.0,0.0,0.0,0.0,0.0,0.0,0.0,0.0,0.0,0.0,0.0,0.0,0.0,0.0,0.0,0.0,0.0,0.0,0.0,0.0,0.0,0.0,0.0,0.0,0.0,0.0,0.0,0.0,0.0,0.0,0.0,0.0,0.0,0.0,0.0,0.0,0.0,0.0,0.0,0.0,0.0,0.0,0.0,0.0,0.0,0.0,0.0,0.0,0.0,0.0,0.0,0.0,0.0,0.0,0.0,0.0,0.0,0.0,0.0,0.0,0.0,0.0,0.0,0.0,0.0,0.0,0.0,0.0,0.0,0.0,0.0,0.0,0.0,0.0,0.0,0.0,0.0,0.0,0.0,0.0,0.0,0.0,0.0,0.0,0.0,0.0,0.0,0.0,0.0,0.0,0.0,0.0,0.0,0.0,0.0,0.0,0.0,0.0,0.0,0.0,0.0,0.0,0.0,0.0,0.0,0.0,0.0,0.0,0.0,0.0,0.0,0.0,0.0,0.0,0.0,0.0,0.0,0.0,0.0,0.0,0.0,0.0,0.0,0.0,0.0,0.0,0.0,0.0,0.0,0.0,0.0,0.0,0.0,0.0,0.0,0.0,0.0,0.0,0.0,0.0,0.0,0.0,0.0,0.0,0.0,0.0,0.0,0.0,0.0,0.0,0.0,0.0,0.0,0.0,0.0,0.0,0.0,0.0,0.0,0.0,0.0,0.0,0.0,0.0,0.0,0.0,0.0,0.0,0.0,0.0,0.0,0.0,0.0,0.0,0.0,0.0,0.0,0.0,0.0,0.0,0.0,0.0,0.0,0.0,0.0,0.0,0.0,0.0,0.0,0.0,0.0,0.0,0.0,0.0,0.0,0.0,0.0,0.0,0.0,0.0,0.0,0.0,0.0,0.0,0.0,0.0,0.0,0.0,0.0,0.0,0.0,0.0,0.0,0.0,0.0,0.0,0.0,0.0,0.0,0.0,0.0,0.0,0.0,0.0,0.0,0.0,0.0,0.0,0.0,0.0,0.0,0.0,0.0,0.0,0.0,0.0,0.0,0.0,0.0,0.0,0.0,0.0,0.0,0.0,0.0,0.0,0.0,0.0,0.0,0.0,0.0,0.0,0.0,0.0,0.0,0.0,0.0,0.0,0.0,0.0,0.0,0.0,0.0,0.0,0.0,0.0,0.0,0.0,0.0,0.0,0.0,0.0,0.0,0.0,0.0,0.0,0.0,0.0,0.0,0.0,0.0,0.0,0.0,0.0,0.0,0.0,0.0,0.0,0.0,0.0,0.0,0.0,0.0,0.0,0.0,0.0,0.0,0.0,0.0,0.0,0.0,0.0,0.0,0.0,0.0,0.0,0.0,0.0,0.0,0.0,0.0,0.0,0.0,0.0,0.0,0.0,0.0,0.0,0.0,0.0,0.0,0.0,0.0,0.0,0.0,0.0,0.0,0.0,0.0,0.0,0.0,0.0,0.0,0.0,0.0,0.0,0.0,0.0,0.0,0.0,0.0,0.0,0.0,0.0,0.0,0.0,0.0,0.0,0.0,0.0,0.0,0.0,0.0,0.0,0.0,0.0,0.0,0.0,0.0,0.0,0.0,0.0,0.0,0.0,0.0,0.0,0.0,0.0,0.0,0.0,0.0,0.0,0.0,0.0,0.0,0.0,0.0,0.0,0.0,0.0,0.0,0.0,0.0,0.0,0.0,0.0,0.0,0.0,0.0,0.0,0.0,0.0,0.0,0.0,0.0,0.0,0.0,0.0,0.0,0.0,0.0,0.0,0.0,0.0,0.0,0.0,0.0,0.0,0.0,0.0,0.0,0.0,0.0,0.0,0.0,0.0,0.0,0.0,0.0,0.0,0.0,0.0,0.0,0.0,0.0,0.0,0.0,0.0,0.0,0.0,0.0,0.0,0.0,0.0,0.0,0.0,0.0,0.0,0.0,0.0,0.0,0.0,0.0,0.0,0.0,0.0,0.0,0.0,0.0,0.0,0.0,0.0,0.0,0.0,0.0,0.0,0.0,0.0,0.0,0.0,0.0,0.0,0.0,0.0,0.0,0.0,0.0,0.0,0.0,0.0,0.0,0.0,0.0,0.0,0.0,0.0,0.0,0.0,0.0,0.0,0.0,0.0,0.0,0.0,0.0,0.0,0.0,0.0,0.0,0.0,0.0,0.0,0.0,0.0,0.0,0.0,0.0,0.0,0.0,0.0,0.0,0.0,0.0,0.0,0.0,0.0,0.0,0.0,0.0,0.0,0.0,0.0,0.0,0.0,0.0,0.0,0.0,0.0,0.0,0.0,0.0,0.0,0.0,0.0,0.0,0.0,0.0,0.0,0.0,0.0,0.0,0.0,0.0,0.0,0.0,0.0,0.0,0.0,0.0,0.0,0.0,0.0,0.0,0.0,0.0,0.0,0.0,0.0,0.0,0.0,0.0,0.0,0.0,0.0,0.0,0.0,0.0,0.0,0.0,0.0,0.0,0.0,0.0,0.0,0.0,0.0,0.0,0.0,0.0,0.0,0.0,0.0,0.0,0.0,0.0,0.0,0.0,0.0,0.0,0.0,0.0,0.0,0.0,0.0,0.0,0.0,0.0,0.0,0.0,0.0,0.0,0.0,0.0,0.0,0.0,0.0,0.0,0.0,0.0,0.0,0.0,0.0,0.0,0.0,0.0,0.0,0.0,0.0,0.0,0.0,0.0,0.0,0.0,0.0,0.0,0.0,0.0,0.0,0.0,0.0,0.0,0.0,0.0,0.0,0.0,0.0,0.0,0.0,0.0,0.0,0.0,0.0,0.0,0.0,0.0,0.0,0.0,0.0,0.0,0.0,0.0,0.0,0.0,0.0,0.0,0.0,0.0,0.0,0.0,0.0,0.0,0.0,0.0,0.0,0.0,0.0,0.0,0.0,0.0,0.0,0.0,0.0,0.0,0.0,0.0,0.0,0.0,0.0,0.0,0.0,0.0,0.0,0.0,0.0,0.0,0.0,0.0,0.0,0.0,0.0,0.0,0.0,0.0,0.0,0.0,0.0,0.0,0.0,0.0,0.0,0.0,0.0,0.0,0.0,0.0,0.0,0.0,0.0,0.0,0.0,0.0,0.0,0.0,0.0,0.0,0.0,0.0,0.0,0.0,0.0,0.0,0.0,0.0,0.0,0.0,0.0,0.0,0.0,0.0,0.0,0.0,0.0,0.0,0.0,0.0,0.0,0.0,0.0,0.0,0.0,0.0,0.0,0.0,0.0,0.0,0.0,0.0,0.0,0.0,0.0,0.0,0.0,0.0,0.0,0.0,0.0,0.0,0.0,0.0,0.0,0.0,0.0,0.0,0.0,0.0,0.0,0.0,0.0,0.0,0.0,0.0,0.0,0.0,0.0,0.0,0.0,0.0,0.0,0.0,0.0,0.0,0.0,0.0,0.0,0.0,0.0,0.0,0.0,0.0,0.0,0.0,0.0,0.0,0.0,0.0,0.0,0.0,0.0,0.0,0.0,0.0,0.0,0.0,0.0,0.0,0.0,0.0,0.0,0.0,0.0,0.0,0.0,0.0,0.0,0.0,0.0,0.0,0.0,0.0,0.0,0.0,0.0,0.0,0.0,0.0,0.0,0.0,0.0,0.0,0.0,0.0,0.0,0.0,0.0,0.0,0.0,0.0,0.0,0.0,0.0,0.0,0.0,0.0,0.0,0.0,0.0,0.0,0.0,0.0,0.0,0.0,0.0,0.0,0.0,0.0,0.0,0.0,0.0,0.0,0.0,0.0,0.0,0.0,0.0,0.0,0.0,0.0,0.0,0.0,0.0,0.0,0.0,0.0,0.0,0.0,0.0,0.0,0.0,0.0,0.0,0.0,0.0,0.0,0.0,0.0,0.0,0.0,0.0,0.0,0.0,0.0,0.0,0.0,0.0,0.0,0.0,0.0,0.0,0.0,0.0,0.0,0.0,0.0,0.0,0.0,0.0,0.0,0.0,0.0,0.0,0.0,-0.9423,0.0,0.0,0.0,0.0,0.0,0.0,0.0,0.0,0.0,0.0,0.0,0.0,0.0,0.0,0.0,0.0,0.0,0.0,0.0,0.0,0.0,0.0,0.0,0.0,-0.5825,-0.5807,-0.599,-0.5925,-0.5878,-0.5878,0.0,0.0,0.0,0.0,0.0,-0.5902,-0.5831,-0.5926,-0.6187,-0.6544,-0.7076,-0.7737,-0.7388,-0.6807,-0.6065,0.0,0.0,0.0,0.0,0.0,0.0,0.0,0.0,0.0,0.0,0.0,0.0,0.0,0.0,0.0,0.0,0.0,0.0,0.0,0.0,0.0,0.0,0.0,0.0,0.0,0.0,0.0,0.0,0.0,0.0,0.0,0.0,0.0,0.0,0.0,0.0,0.0,0.0,0.0,0.0,0.0,0.0,0.0,0.0,0.0,0.0,0.0,0.0,0.0,0.0,0.0,0.0,0.0,0.0,0.0,0.0,0.0,0.0,0.0,0.0,0.0,0.0,0.0,0.0,0.0,0.0,0.0,0.0,0.0,0.0,0.0,-1.0358,0.0,0.0,0.0,0.0,0.0,0.0,0.0,0.0,0.0,0.0,0.0,0.0,0.0,0.0,0.0,0.0,0.0,0.0,0.0,0.0,0.0,-0.597,-0.6401,-0.6297,-0.6412,-0.6943,-0.6705,-0.6516,-0.6543,0.0,0.0,0.0,0.0,-0.6164,-0.6047,-0.6083,-0.6365,-0.6882,-0.7533,-0.84,-0.9461,-0.9461,0.0,0.0,-0.7073,0.0,0.0,0.0,0.0,0.0,0.0,0.0,0.0,0.0,0.0,0.0,0.0,0.0,0.0,0.0,0.0,0.0,0.0,0.0,0.0,0.0,0.0,0.0,0.0,0.0,0.0,0.0,0.0,0.0,0.0,0.0,0.0,0.0,0.0,0.0,0.0,0.0,0.0,0.0,0.0,0.0,0.0,0.0,0.0,0.0,0.0,0.0,0.0,0.0,0.0,0.0,0.0,0.0,0.0,0.0,0.0,0.0,0.0,0.0,0.0,0.0,0.0,0.0,-1.4792,-1.538,-1.5446,-1.5372,-1.5512,-1.5745,-1.3777,-1.3222,-1.3504,-1.1296,0.0,0.0,0.0,0.0,0.0,0.0,0.0,0.0,0.0,0.0,0.0,0.0,0.0,0.0,0.0,0.0,0.0,0.0,0.0,-0.5911,-0.6202,-0.6223,-0.6414,-0.6953,-0.6953,-0.6976,-0.7085,-0.7055,0.0,0.0,-0.7041,-0.7041,-0.7011,-0.7244,-0.7572,-0.799,-0.9119,-0.9951,-1.0497,0.0,0.0,0.0,-0.9257,-0.8644,0.0,0.0,0.0,0.0,0.0,0.0,0.0,0.0,0.0,0.0,0.0,0.0,0.0,0.0,0.0,0.0,0.0,0.0,0.0,0.0,0.0,0.0,0.0,0.0,0.0,0.0,0.0,0.0,0.0,0.0,0.0,0.0,0.0,0.0,0.0,0.0,0.0,0.0,0.0,0.0,0.0,0.0,-0.8964,-0.9109,0.0,0.0,0.0,0.0,0.0,0.0,0.0,0.0,0.0,0.0,0.0,0.0,0.0,-1.4098,-1.4302,-1.5458,-1.5771,-1.5294,-1.6708,-1.7613,-1.7993,-1.7604,-1.7637,-1.8059,-1.7315,0.0,-1.428,-1.3451,0.0,0.0,0.0,0.0,0.0,0.0,0.0,0.0,0.0,0.0,0.0,0.0,0.0,0.0,0.0,0.0,0.0,0.0,0.0,0.0,0.0,-0.763,-0.8258,-0.9067,-0.9058,-0.8856,0.0,0.0,0.0,-0.7214,-0.7196,-0.7275,-0.7418,-0.7764,-0.8575,-0.9891,-1.0825,-1.1592,0.0,0.0,0.0,0.0,-1.1715,-1.0605,0.0,0.0,0.0,0.0,0.0,0.0,0.0,0.0,0.0,0.0,0.0,0.0,0.0,0.0,0.0,0.0,0.0,0.0,0.0,0.0,0.0,0.0,0.0,0.0,0.0,0.0,0.0,0.0,0.0,0.0,0.0,0.0,0.0,0.0,0.0,0.0,0.0,0.0,0.0,0.0,0.0,-0.9022,-1.0226,-1.0027,-1.068,-1.0838,0.0,0.0,0.0,0.0,0.0,0.0,0.0,0.0,0.0,-1.5686,-1.5925,-1.6157,-1.6449,-1.7615,-1.7984,-1.7525,-1.8666,-1.9307,-1.9485,-1.9307,-1.9165,-1.912,-1.8897,-1.8097,-1.6791,-1.5323,-1.4118,-1.3021,0.0,0.0,0.0,0.0,-1.0071,-1.0164,0.0,0.0,0.0,0.0,0.0,0.0,0.0,0.0,0.0,0.0,0.0,0.0,-0.8134,-0.9003,-0.9923,-1.0974,0.0,0.0,0.0,0.0,0.0,-0.7574,-0.7415,-0.7505,-0.7824,-0.8621,-0.9828,0.0,0.0,0.0,0.0,0.0,0.0,0.0,0.0,0.0,0.0,0.0,0.0,0.0,0.0,0.0,0.0,0.0,0.0,0.0,0.0,0.0,0.0,0.0,0.0,0.0,0.0,0.0,0.0,0.0,0.0,0.0,0.0,0.0,0.0,0.0,0.0,0.0,0.0,0.0,0.0,0.0,0.0,0.0,0.0,0.0,0.0,0.0,0.0,0.0,0.0,-1.0229,-1.1249,-1.0913,-1.1987,-1.2373,0.0,0.0,0.0,0.0,0.0,0.0,-1.4852,-1.5463,-1.6213,-1.7279,-1.7829,-1.8244,-1.8526,-1.948,-1.9711,-1.9257,-1.9895,-2.0252,-2.039,-2.0252,-2.0067,-1.9835,-1.9734,-1.9455,-1.8916,-1.6962,-1.5934,-1.5395,-1.3831,-1.2853,-1.2293,-1.2122,-1.1851,-1.1729,0.0,0.0,0.0,0.0,0.0,0.0,0.0,0.0,0.0,0.0,0.0,-0.7686,0.0,0.0,0.0,0.0,0.0,0.0,0.0,0.0,0.0,-0.8451,-0.8016,-0.7981,-0.8444,-1.0343,0.0,0.0,0.0,0.0,0.0,0.0,0.0,0.0,0.0,0.0,0.0,0.0,0.0,0.0,0.0,0.0,0.0,0.0,0.0,0.0,0.0,0.0,0.0,0.0,0.0,0.0,0.0,0.0,0.0,0.0,0.0,0.0,0.0,0.0,0.0,0.0,0.0,0.0,0.0,0.0,0.0,0.0,0.0,0.0,0.0,0.0,0.0,0.0,0.0,0.0,0.0,0.0,0.0,-1.1969,-1.3445,0.0,0.0,0.0,0.0,-1.4629,-1.4952,-1.5597,-1.6713,-1.7095,-1.8112,-1.9971,-2.0048,-2.0201,-2.0456,-2.0497,-2.0321,-1.9886,-1.9902,-2.0152,-2.0594,-2.0103,-2.0152,-2.0546,-2.0103,-1.9861,-1.975,-1.8279,-1.7336,-1.673,-1.6016,-1.4878,-1.3749,-1.3965,-1.3598,-1.3041,0.0,0.0,0.0,-0.5793,-0.5802,-0.5802,-0.5802,-0.6057,-0.6311,-0.6487,-0.7698,0.0,0.0,0.0,0.0,0.0,0.0,0.0,0.0,0.0,-1.0002,-0.9601,-0.8984,-0.9207,-1.0401,-1.1393,-1.2452,0.0,0.0,0.0,0.0,0.0,0.0,0.0,0.0,0.0,0.0,0.0,0.0,0.0,0.0,0.0,0.0,0.0,0.0,0.0,0.0,0.0,0.0,0.0,0.0,0.0,0.0,0.0,0.0,0.0,0.0,0.0,0.0,0.0,0.0,0.0,0.0,0.0,0.0,0.0,0.0,0.0,0.0,0.0,0.0,0.0,0.0,0.0,0.0,0.0,0.0,0.0,0.0,-1.3656,-1.5069,0.0,-1.4746,-1.5385,-1.601,-1.644,-1.6943,-1.7629,-1.852,-1.8641,-1.9077,-1.9986,-2.0011,-2.0037,-2.016,-2.016,-2.0063,-1.9917,-1.9917,-2.0014,-2.016,-1.9965,-2.0014,-2.016,-1.9965,-1.9917,-1.9869,-1.9375,-1.902,-1.8762,-1.8001,-1.7392,-1.6865,-1.6299,-1.5578,-1.4927,-0.5739,-0.5765,0.0,-0.5802,-0.5802,-0.5802,-0.5802,-0.6201,-0.6618,-0.6936,-0.8497,-0.9911,0.0,0.0,0.0,0.0,0.0,0.0,0.0,0.0,-1.0975,-1.0469,-1.0102,-1.0594,-1.2084,-1.263,0.0,0.0,0.0,0.0,0.0,0.0,0.0,0.0,0.0,0.0,0.0,0.0,0.0,0.0,0.0,0.0,-0.9305,0.0,0.0,0.0,0.0,0.0,0.0,0.0,0.0,0.0,0.0,0.0,0.0,0.0,0.0,0.0,0.0,0.0,0.0,0.0,0.0,0.0,0.0,0.0,0.0,0.0,0.0,0.0,0.0,0.0,0.0,0.0,0.0,0.0,0.0,0.0,-1.4757,-1.4935,-1.625,-1.6822,-1.6008,-1.6758,-1.7514,-1.8059,-1.8477,-1.899,-1.9621,-1.9597,-1.9742,-2.0084,-2.0092,-2.0098,-2.0218,-2.0218,-2.0218,-2.0218,-2.0218,-2.0218,-2.0218,-2.0218,-2.0218,-2.0218,-2.0218,-2.0218,-2.0218,-2.0218,-2.0218,-2.0144,-1.9416,-1.8931,-1.8557,-1.7603,-1.675,-1.6042,-0.5802,-0.5802,-0.5802,-0.5802,-0.5802,-0.5802,-0.5802,-0.6212,-0.6848,-0.7776,-0.92,0.0,0.0,0.0,0.0,0.0,0.0,0.0,0.0,-1.2461,-1.1672,-1.096,-1.132,-1.2121,-1.3314,0.0,0.0,0.0,0.0,0.0,0.0,0.0,0.0,0.0,0.0,0.0,0.0,0.0,0.0,0.0,0.0,0.0,-1.1289,0.0,0.0,0.0,0.0,0.0,0.0,0.0,0.0,0.0,0.0,0.0,0.0,0.0,0.0,0.0,0.0,0.0,0.0,0.0,0.0,0.0,0.0,0.0,0.0,0.0,0.0,0.0,0.0,0.0,0.0,0.0,0.0,0.0,-1.3681,-1.4884,-1.5776,-1.5792,-1.701,-1.7712,-1.7507,-1.7999,-1.8659,-1.9442,-1.9467,-1.9582,-1.9909,-1.9925,-2.0092,-2.0466,-2.0424,-2.0599,-2.0948,-2.0948,-2.0948,-2.0948,-2.0948,-2.0948,-2.0948,-2.0948,-2.0948,-2.0948,-2.0948,-2.0948,-2.0948,-2.0948,-2.0948,-2.0869,-2.017,-1.9452,-1.8666,-1.7818,-1.7057,-1.6255,-0.5802,-0.5837,-0.5856,-0.5811,-0.5837,-0.5856,-0.5811,-0.6487,-0.7219,-0.782,0.0,0.0,0.0,0.0,0.0,0.0,0.0,0.0,-1.3931,0.0,-1.1918,-1.1776,-1.2429,0.0,0.0,0.0,0.0,0.0,0.0,0.0,0.0,0.0,0.0,0.0,0.0,0.0,0.0,0.0,0.0,0.0,0.0,0.0,-1.2147,0.0,0.0,0.0,0.0,0.0,0.0,0.0,0.0,0.0,0.0,0.0,0.0,0.0,0.0,0.0,0.0,0.0,0.0,0.0,0.0,0.0,0.0,0.0,0.0,0.0,0.0,0.0,0.0,0.0,0.0,0.0,0.0,-1.5139,-1.5139,-1.6142,-1.7024,-1.7517,-1.8144,-1.8611,-1.8827,-1.8999,-1.9311,-1.975,-1.9766,-2.0071,-2.081,-2.0489,-2.0728,-2.1759,-2.137,-2.1322,-2.1671,-2.1671,-2.1671,-2.1671,-2.1671,-2.1671,-2.1671,-2.1671,-2.1671,-2.1671,-2.1671,-2.1671,-2.1671,-2.1671,-2.1528,-2.1206,-2.0805,-2.0124,-1.9373,-1.8875,-1.7623,-1.6135,-0.5828,-0.5874,-0.5893,-0.5847,-0.5874,-0.5893,-0.5847,-0.6618,-0.7461,-0.818,-1.025,0.0,0.0,0.0,0.0,0.0,0.0,0.0,-1.3563,-1.2594,-1.2272,0.0,0.0,0.0,0.0,0.0,0.0,0.0,0.0,0.0,0.0,0.0,0.0,0.0,0.0,0.0,0.0,0.0,0.0,0.0,0.0,0.0,-1.3544,-1.2597,-1.1887,-1.1326,-1.0672,-1.0014,-0.9402,-0.9123,0.0,0.0,0.0,0.0,0.0,0.0,0.0,0.0,0.0,0.0,0.0,0.0,0.0,0.0,0.0,0.0,0.0,0.0,0.0,0.0,0.0,0.0,0.0,0.0,-1.5737,-1.6652,-1.6754,-1.731,-1.7969,-1.8669,-1.8931,-1.9193,-1.959,-1.963,-1.9765,-2.0059,-2.0473,-2.0864,-2.1263,-2.1383,-2.1658,-2.2177,-2.1823,-2.1759,-2.2011,-2.2011,-2.2011,-2.2011,-2.2011,-2.2011,-2.2011,-2.2011,-2.2011,-2.2011,-2.2011,-2.2011,-2.2011,-2.2011,-2.1838,0.0,0.0,0.0,0.0,0.0,-1.8388,-1.7003,-0.5893,-0.592,-0.5929,-0.5911,-0.592,-0.5929,-0.5911,-0.666,-0.7619,-0.867,0.0,0.0,0.0,0.0,0.0,0.0,0.0,0.0,0.0,0.0,0.0,0.0,0.0,0.0,0.0,0.0,0.0,0.0,0.0,0.0,0.0,0.0,0.0,0.0,0.0,0.0,0.0,0.0,0.0,0.0,0.0,0.0,-1.5117,-1.4096,-1.3638,-1.3446,-1.2526,-1.1695,-1.0997,-1.0387,0.0,0.0,0.0,0.0,0.0,0.0,0.0,0.0,0.0,0.0,0.0,0.0,0.0,0.0,0.0,0.0,0.0,0.0,0.0,0.0,0.0,0.0,0.0,0.0,-1.7175,-1.7969,-1.8359,-1.8422,-1.8661,-1.9296,-1.9455,-1.9606,-1.9941,-2.0021,-2.0181,-2.048,-2.1365,-2.1759,-2.1594,0.0,0.0,0.0,0.0,-2.2091,-2.2131,-2.2131,-2.2131,-2.2131,-2.2131,-2.2131,-2.2131,-2.2131,-2.2131,-2.2131,-2.2131,-2.2131,-2.2131,-2.2131,-2.2107,-2.1981,-2.1494,-2.1102,-2.0715,-1.985,-1.8997,-1.8153,-0.59,-0.6029,-0.6093,-0.5929,-0.6039,-0.6084,-0.5929,-0.6828,-0.7825,-0.8686,-1.0339,0.0,0.0,0.0,0.0,0.0,0.0,0.0,0.0,0.0,0.0,0.0,0.0,0.0,0.0,0.0,0.0,0.0,0.0,0.0,0.0,0.0,0.0,0.0,0.0,0.0,0.0,0.0,0.0,0.0,0.0,0.0,-1.5959,-1.5113,-1.4451,-1.3909,-1.34,-1.276,-1.2166,-1.2048,-1.1555,-1.092,-1.0541,0.0,0.0,0.0,0.0,0.0,0.0,0.0,0.0,0.0,0.0,0.0,0.0,0.0,0.0,0.0,0.0,0.0,0.0,0.0,0.0,-1.6937,-1.7707,-1.8422,-1.9074,-1.9169,-1.9264,-1.9399,-1.9654,-1.9908,-2.0257,-2.0678,-2.1003,-2.1195,-2.1835,-2.2292,-2.2503,-2.2309,-2.2463,-2.3018,-2.2652,-2.2521,-2.2807,-2.2815,-2.2815,-2.2815,0.0,0.0,-2.2815,-2.2815,-2.2815,-2.2815,-2.2815,-2.2815,-2.2815,-2.2815,-2.2641,-2.2268,-2.0941,-2.0401,-2.0204,-1.9091,-1.8153,-1.7516,-0.6057,-0.6129,-0.6165,-0.6066,-0.6129,-0.6165,-0.6066,-0.6932,-0.7841,-0.8508,-1.0286,0.0,0.0,0.0,0.0,0.0,0.0,0.0,0.0,0.0,0.0,0.0,0.0,0.0,0.0,0.0,0.0,0.0,0.0,0.0,0.0,0.0,0.0,0.0,0.0,0.0,0.0,0.0,0.0,0.0,0.0,0.0,-1.6817,-1.6019,-1.5355,-1.4861,-1.4454,-1.3762,-1.3024,-1.2814,-1.2181,-1.1448,-1.1269,-1.0631,-0.9923,0.0,0.0,0.0,0.0,0.0,0.0,0.0,0.0,0.0,0.0,0.0,0.0,0.0,0.0,-1.4847,-1.5524,0.0,-1.7286,-1.8184,-1.8613,-1.9018,-1.959,-1.9773,-1.9884,-1.9884,-2.0027,-2.0265,-2.0623,-2.1017,-2.1317,-2.1373,-2.2307,-2.2807,-2.2662,-2.2832,-2.3011,-2.3125,-2.2919,-2.3007,-2.3464,-2.3127,-2.3127,-2.3464,-2.3127,-2.3014,-2.3014,-2.3014,-2.3014,-2.3014,-2.3014,-2.3014,-2.3014,-2.3014,-2.2911,-2.2641,-2.1736,-2.1264,-2.104,-2.0438,-1.9938,-1.959,-0.6218,-0.6218,-0.621,-0.6201,-0.621,-0.621,-0.6201,-0.7035,-0.7842,-0.8328,-1.0167,-1.1598,-1.2042,-1.2448,-1.2972,0.0,0.0,0.0,0.0,0.0,0.0,0.0,0.0,0.0,0.0,0.0,0.0,0.0,0.0,0.0,0.0,0.0,0.0,0.0,0.0,0.0,0.0,0.0,0.0,0.0,0.0,0.0,-1.7413,-1.6707,-1.6129,-1.5652,-1.5268,-1.4457,-1.3532,-1.3218,-1.2472,-1.1676,-1.1676,-1.1272,-1.0783,-1.0711,-1.0185,0.0,0.0,0.0,0.0,0.0,0.0,0.0,0.0,0.0,-1.391,-1.4665,-1.5547,-1.6357,-1.6887,-1.7612,-1.8412,-1.928,-1.9471,-1.963,-1.9972,-2.021,-2.0416,-2.0488,-2.0496,-2.0639,-2.0937,-2.1334,-2.161,-2.1799,-2.2876,-2.3346,-2.2806,-2.3581,-2.3801,-2.3183,-2.3296,-2.3568,-2.408,-2.3464,-2.3408,-2.3913,-2.3296,-2.3014,-2.3014,-2.3014,-2.3014,-2.3014,-2.3014,-2.3014,-2.3014,-2.3014,-2.3014,-2.299,-2.2704,-2.2418,-2.2202,-2.2067,-2.1904,-2.1641,-0.6286,-0.6286,-0.6272,-0.621,-0.6254,-0.6272,-0.621,-0.7156,-0.799,-0.8353,-0.9601,-1.06,-1.0939,-1.1188,-1.1727,0.0,0.0,0.0,0.0,0.0,0.0,0.0,0.0,0.0,0.0,0.0,0.0,0.0,0.0,0.0,0.0,0.0,0.0,0.0,0.0,0.0,0.0,0.0,0.0,0.0,0.0,0.0,-1.7449,-1.7009,-1.6358,-1.5647,-1.5298,-1.4479,-1.3502,-1.3467,-1.2966,-1.2381,-1.2381,-1.2141,-1.1781,-1.1463,0.0,-1.0504,-1.109,-1.2061,-1.3141,-1.4197,-1.448,-1.5058,0.0,0.0,-1.6142,-1.7151,-1.7707,-1.8025,-1.8112,-1.8708,-1.928,-1.9399,-1.967,-1.998,-2.0281,-2.0369,-2.0512,-2.0821,-2.0861,-2.1004,-2.1301,-2.1844,-2.2453,-2.314,-2.3754,-2.3993,-2.3782,-2.4326,-2.4406,-2.3801,-2.4295,-2.462,-2.4676,-2.4072,-2.3809,-2.3913,-2.3296,-2.3014,-2.3014,-2.3014,-2.3014,-2.3014,-2.3014,-2.3014,-2.3014,-2.3014,-2.3014,-2.3014,-2.2974,-2.2934,-2.2823,-2.2242,-2.1518,-2.0962,-0.6295,-0.6295,-0.6286,-0.6263,-0.629,-0.6286,-0.6263,-0.6921,-0.7592,-0.805,-0.9111,-1.001,-1.0451,-1.1136,-1.162,-1.1764,0.0,0.0,0.0,0.0,0.0,0.0,0.0,0.0,0.0,0.0,0.0,0.0,0.0,0.0,0.0,0.0,0.0,0.0,0.0,0.0,0.0,0.0,0.0,0.0,0.0,0.0,-1.7422,-1.6798,-1.6056,-1.5318,-1.5192,-1.4567,0.0,0.0,-1.2794,-1.2362,-1.2192,-1.193,-1.1627,-1.1535,-1.1431,0.0,-1.329,0.0,0.0,0.0,-1.62,-1.6789,-1.7309,-1.7269,-1.7302,-1.7946,-1.8359,-1.8605,-1.8605,-1.9026,-1.9479,0.0,-1.9948,-2.0297,-2.0655,-2.0527,-2.0548,-2.0952,-2.106,-2.1186,-2.1393,-2.216,-2.2868,-2.3389,-2.4107,-2.4514,-2.4454,-2.4676,-2.4667,-2.4454,-2.4676,-2.4881,-2.5112,-2.4493,-2.4325,-2.454,-2.3907,-2.3618,-2.361,-2.3411,-2.3148,-2.3014,-2.3014,-2.3014,-2.3014,-2.3014,-2.3014,-2.3014,-2.3014,-2.3014,-2.2982,-2.268,-2.2348,-2.2039,-0.6295,-0.6295,-0.6295,-0.6295,-0.6295,-0.6295,-0.6295,-0.688,-0.7455,-0.784,-0.8838,-0.9654,-1.0039,-1.0774,-1.1195,-1.1111,-1.2794,-1.4341,0.0,0.0,0.0,0.0,0.0,0.0,0.0,0.0,0.0,0.0,0.0,0.0,0.0,0.0,0.0,0.0,0.0,0.0,0.0,0.0,0.0,0.0,0.0,0.0,-1.7248,-1.645,-1.5643,-1.4906,-1.4845,-1.4255,0.0,0.0,-1.2439,-1.2132,-1.2047,-1.1834,-1.1707,-1.1975,-1.2302,-1.2916,-1.4406,0.0,0.0,-1.6564,-1.7523,-1.8142,-1.7639,-1.7786,-1.8136,-1.839,-1.8645,-1.8781,-1.8781,-1.9129,-1.9527,-1.9861,-2.0162,-2.0519,-2.0869,-2.0716,-2.0782,-2.1229,-2.1346,-2.1519,-2.1848,-2.2518,-2.3185,-2.3825,-2.4487,-2.496,-2.5055,-2.5229,-2.5171,-2.4932,-2.5108,-2.5289,-2.5449,-2.4877,-2.4721,-2.4994,-2.4408,-2.4114,-2.4106,-2.38,-2.3491,-2.3165,-2.3165,-2.3109,-2.3014,-2.3014,-2.3014,-2.3014,-2.3014,-2.3014,-2.3014,-2.3014,-2.3014,-2.2982,-0.6295,-0.6295,-0.6295,-0.6295,-0.6295,-0.6295,-0.6295,-0.7203,-0.7876,-0.7888,-0.8838,-0.9497,-0.9534,-0.9545,-0.9991,-1.1015,-1.2102,-1.3414,-1.4929,-1.6255,0.0,0.0,0.0,0.0,0.0,0.0,0.0,0.0,0.0,0.0,0.0,0.0,0.0,0.0,0.0,0.0,0.0,0.0,0.0,0.0,0.0,0.0,-1.6835,-1.6019,-1.5221,-1.4465,-1.4156,0.0,0.0,0.0,-1.2085,-1.1865,-1.2185,-1.2295,0.0,-1.3201,-1.3719,0.0,0.0,0.0,-1.6547,-1.768,-1.8475,-1.9076,-1.9406,-1.9139,-1.875,-1.8765,-1.8773,-1.8781,-1.8781,-1.9129,-1.9527,-1.9861,-2.0162,-2.0519,-2.0869,-2.1026,-2.1221,-2.1617,-2.1795,-2.2178,0.0,-2.3074,-2.3652,-2.4951,-2.5075,-2.5243,-2.5661,-2.6254,-2.6141,-2.5318,-2.5852,-2.6044,-2.5784,-2.5269,-2.4986,-2.4994,-2.4408,-2.4114,-2.4114,-2.4106,-2.3848,-2.3465,-2.3465,-2.3275,-2.3014,-2.3014,-2.3014,-2.3014,-2.3014,-2.3014,-2.3014,-2.3014,-2.3014,-2.3014,-0.6295,-0.6295,-0.6295,-0.6295,-0.6295,-0.6295,-0.6295,-0.6904,-0.7491,-0.7863,-0.8838,0.0,0.0,0.0,0.0,0.0,-1.2078,-1.3347,-1.4905,-1.5761,0.0,0.0,0.0,0.0,0.0,0.0,0.0,0.0,0.0,0.0,0.0,0.0,0.0,0.0,0.0,0.0,0.0,0.0,0.0,0.0,0.0,0.0,-1.6422,-1.5606,-1.4799,-1.4057,0.0,0.0,0.0,0.0,0.0,0.0,-1.1921,0.0,0.0,-1.2917,0.0,-1.4409,0.0,0.0,-1.7614,-1.8483,-1.9018,-1.936,-1.9117,-1.892,-1.8781,-1.8781,-1.8645,-1.8549,-1.8742,-1.8931,-1.9201,-1.9821,-2.0162,-2.0662,-2.132,-2.1525,-2.1762,-2.2275,-2.2676,0.0,0.0,0.0,0.0,-2.5058,-2.5487,-2.5982,-2.6654,-2.6865,-2.6992,-2.6978,-2.6702,-2.6486,-2.6218,-2.5645,-2.5242,-2.5057,-2.4875,-2.4868,-2.5103,-2.4635,-2.4213,-2.3864,-2.3642,-2.3417,-2.329,-2.3109,-2.3014,-2.3014,-2.3014,-2.3014,-2.3014,-2.3014,-2.3014,-2.3014,-0.6295,-0.6451,-0.6523,-0.6331,-0.6451,0.0,0.0,0.0,0.0,0.0,0.0,0.0,0.0,0.0,0.0,0.0,0.0,-1.3209,-1.4385,0.0,0.0,0.0,0.0,0.0,0.0,0.0,0.0,0.0,0.0,0.0,0.0,0.0,0.0,0.0,0.0,0.0,0.0,0.0,0.0,0.0,0.0,0.0,-1.5588,-1.4763,-1.4038,0.0,0.0,0.0,0.0,0.0,0.0,0.0,0.0,0.0,0.0,-1.3412,-1.4098,-1.508,0.0,-1.7547,-1.7922,-1.8734,-1.9109,-1.9234,-1.8874,-1.8781,-1.8796,-1.8669,-1.8359,-1.8184,-1.8406,-1.8351,-1.8581,-1.9582,-1.9979,-2.0608,-2.1773,-2.2128,-2.2554,-2.33,-2.3698,-2.3976,0.0,0.0,0.0,-2.5191,-2.5809,-2.6472,-2.7141,-2.7372,-2.7516,-2.767,-2.7218,-2.688,-2.6619,-2.6209,-2.5973,-2.5778,-2.5778,-2.5891,-2.6089,-2.5427,-2.5052,-2.4931,-2.4183,-2.3957,-2.3987,-2.3405,-2.331,-2.3464,-2.3118,-2.3127,-2.3296,-2.307,-2.3014,-2.3014,-0.6295,-0.6712,-0.6892,0.0,0.0,0.0,0.0,0.0,0.0,0.0,0.0,0.0,0.0,0.0,0.0,0.0,0.0,0.0,0.0,0.0,0.0,0.0,0.0,0.0,-1.755,-1.758,0.0,0.0,0.0,0.0,0.0,0.0,0.0,0.0,0.0,0.0,0.0,0.0,0.0,0.0,0.0,0.0,-1.4425,-1.3598,0.0,0.0,0.0,0.0,0.0,0.0,0.0,0.0,0.0,0.0,0.0,0.0,0.0,-1.6023,-1.7066,-1.7376,-1.7596,-1.8581,-1.8781,-1.8781,-1.8781,-1.8765,-1.8647,-1.8327,-1.7954,-1.7727,0.0,0.0,-1.7751,-1.9136,-1.9726,-2.0522,-2.2157,-2.2858,-2.354,0.0,0.0,0.0,0.0,0.0,0.0,-2.5515,0.0,-2.6784,-2.7215,-2.7591,-2.7746,-2.7484,-2.7443,-2.7333,-2.7047,-2.6995,-2.6995,-2.7056,-2.6995,-2.6995,-2.7056,-2.6441,-2.6308,-2.6457,-2.5188,-2.4806,-2.4994,-2.4003,-2.39,-2.4367,-2.3456,-2.344,-2.3881,-2.3304,-2.307,-2.307,0.0,0.0,0.0,0.0,0.0,0.0,0.0,0.0,0.0,0.0,0.0,0.0,0.0,0.0,0.0,0.0,0.0,0.0,0.0,0.0,0.0,0.0,0.0,0.0,0.0,0.0,0.0,0.0,0.0,0.0,0.0,0.0,0.0,0.0,0.0,0.0,0.0,0.0,0.0,0.0,0.0,0.0,-1.4393,0.0,0.0,0.0,0.0,0.0,0.0,0.0,0.0,0.0,0.0,0.0,-1.6123,0.0,0.0,-1.7549,-1.8065,-1.8298,-1.8494,-1.8764,-1.8781,-1.8781,-1.8781,-1.8629,-1.8263,-1.7668,-1.704,-1.6524,-1.6301,0.0,0.0,-1.9003,-2.0229,0.0,-2.3253,-2.393,0.0,-2.5093,0.0,-2.5745,-2.5855,-2.6096,0.0,0.0,-2.6637,-2.7022,-2.8031,-2.8177,-2.8357,-2.8573,-2.8098,-2.7794,-2.7779,-2.7237,-2.7237,-2.7719,-2.7237,-2.7237,-2.7719,-2.7056,-2.6814,-2.6833,-2.5766,-2.566,-2.6025,-2.501,-2.5028,-2.5498,-2.4506,-2.4488,-2.4907,-2.402,-2.3689,-2.3689,0.0,0.0,0.0,0.0,0.0,0.0,0.0,0.0,0.0,0.0,0.0,0.0,0.0,0.0,0.0,0.0,0.0,0.0,0.0,0.0,0.0,0.0,0.0,0.0,0.0,0.0,0.0,0.0,0.0,0.0,0.0,0.0,0.0,0.0,0.0,0.0,0.0,0.0,0.0,0.0,0.0,0.0,0.0,0.0,0.0,0.0,0.0,0.0,0.0,0.0,0.0,-1.5898,-1.5979,-1.6661,-1.755,-1.7922,0.0,-1.8318,-1.8847,-1.8888,-1.8781,-1.8781,-1.8781,-1.8662,-1.8255,-1.7993,-1.7525,-1.6365,-1.5801,0.0,-1.4855,0.0,0.0,0.0,0.0,0.0,-2.3671,-2.4429,-2.512,0.0,-2.6306,0.0,-2.6545,-2.6866,-2.727,0.0,-2.7508,-2.7682,-2.8361,-2.8563,-2.8755,-2.8975,-2.8618,-2.8439,-2.8439,-2.808,-2.808,-2.8439,-2.808,-2.808,-2.8439,-2.7719,-2.7599,-2.7822,0.0,-2.6551,-2.7062,-2.6092,-2.6048,-2.6531,-2.5515,-2.5449,-2.5674,-2.4848,-2.4438,-2.4295,0.0,0.0,0.0,0.0,0.0,0.0,0.0,0.0,0.0,0.0,0.0,0.0,0.0,0.0,0.0,0.0,0.0,0.0,0.0,0.0,0.0,0.0,0.0,0.0,0.0,0.0,0.0,0.0,0.0,0.0,0.0,0.0,0.0,0.0,0.0,0.0,0.0,0.0,0.0,0.0,0.0,0.0,0.0,0.0,0.0,0.0,0.0,0.0,0.0,0.0,-1.634,-1.7168,-1.7332,-1.816,-1.9169,-1.9468,-1.9169,-1.8885,-1.9517,-1.9234,-1.8781,-1.8781,-1.8796,-1.8494,-1.7509,-1.7209,-1.6579,-1.4819,0.0,-1.413,-1.3497,-1.492,-1.6505,-1.7369,0.0,-2.1926,-2.3755,-2.464,-2.5433,-2.6546,-2.6967,-2.7215,-2.7334,-2.7646,-2.8022,-2.8443,-2.8471,-2.8471,-2.8471,-2.8792,-2.8984,-2.8984,-2.8984,-2.8984,-2.8984,-2.8984,-2.8984,-2.8984,-2.8984,-2.8984,-2.8984,-2.8379,-2.8439,-2.8925,-2.7659,-2.7539,-2.8053,-2.7113,-2.7033,-2.7511,-2.6548,-2.6337,-2.6439,-2.5774,-2.5289,-2.4898,0.0,0.0,0.0,0.0,0.0,0.0,0.0,0.0,0.0,0.0,-1.0051,-0.9666,0.0,0.0,0.0,0.0,0.0,0.0,0.0,0.0,0.0,0.0,0.0,0.0,0.0,0.0,0.0,0.0,0.0,0.0,0.0,0.0,0.0,0.0,0.0,0.0,0.0,0.0,0.0,0.0,0.0,0.0,0.0,0.0,0.0,0.0,0.0,0.0,0.0,0.0,-1.6899,-1.8548,-1.9578,-2.0282,-2.0759,-2.1154,-2.0677,-2.003,-2.0158,-1.9509,-1.8781,-1.8781,-1.8605,-1.82,-1.7488,-1.6595,0.0,0.0,0.0,-1.2798,-1.2369,-1.3876,0.0,-1.7377,0.0,0.0,0.0,0.0,-2.5404,0.0,0.0,0.0,0.0,0.0,0.0,0.0,0.0,-2.8883,-2.8883,-2.8948,-2.8984,-2.8984,-2.8984,-2.8984,-2.8984,-2.8984,-2.8984,-2.8984,-2.8984,-2.8984,-2.8984,-2.8865,-2.8856,-2.8984,-2.814,0.0,-2.8797,-2.8068,-2.8152,-2.8592,-2.7655,-2.7378,-2.7448,-2.6492,-2.5895,-2.5514,0.0,0.0,0.0,0.0,0.0,0.0,0.0,-0.986,-1.1015,-1.1837,-1.1359,-1.0991,-1.1119,-1.1351,0.0,0.0,0.0,0.0,0.0,0.0,0.0,0.0,0.0,0.0,0.0,0.0,0.0,0.0,0.0,0.0,0.0,0.0,0.0,0.0,0.0,0.0,0.0,0.0,0.0,0.0,0.0,0.0,0.0,0.0,0.0,0.0,0.0,0.0,0.0,0.0,-1.6175,-1.7869,-1.9615,-2.0622,-2.1145,-2.1346,-2.0891,-2.0292,-2.0292,-1.9563,-1.8781,-1.8781,-1.8565,-1.793,-1.6516,0.0,0.0,0.0,0.0,-1.1874,-1.1312,0.0,0.0,0.0,0.0,0.0,0.0,0.0,0.0,0.0,0.0,0.0,0.0,0.0,0.0,0.0,0.0,-2.8984,-2.8984,-2.8984,-2.8984,-2.8984,-2.8984,-2.8984,-2.8984,-2.8984,-2.8984,-2.8984,-2.8984,-2.8984,-2.8984,-2.8984,-2.8984,-2.8984,-2.8677,-2.8677,-2.8984,-2.8677,-2.8687,-2.8966,-2.8469,-2.8073,-2.7737,-2.7262,-2.6696,-2.619,0.0,0.0,0.0,0.0,0.0,0.0,0.0,-1.0437,-1.164,-1.2645,-1.2702,-1.2547,-1.2294,-1.2108,-1.1931,0.0,0.0,0.0,0.0,0.0,0.0,0.0,0.0,0.0,0.0,0.0,0.0,0.0,0.0,0.0,0.0,0.0,0.0,0.0,0.0,0.0,0.0,0.0,0.0,0.0,0.0,0.0,0.0,0.0,0.0,0.0,0.0,0.0,0.0,0.0,-1.4993,-1.6203,-1.8212,-1.9748,-2.0869,-2.0961,-2.0571,-2.0189,-2.0275,-1.9563,-1.8781,-1.8781,-1.8454,-1.7572,-1.5626,-1.4728,0.0,0.0,0.0,-1.1157,-1.0695,0.0,0.0,0.0,0.0,0.0,0.0,0.0,0.0,0.0,0.0,0.0,0.0,0.0,0.0,0.0,0.0,0.0,-2.8984,-2.8984,-2.8984,-2.8984,-2.8984,-2.8984,-2.8984,-2.8984,-2.8984,-2.8984,-2.8984,-2.8984,-2.8984,-2.8984,-2.8984,-2.8984,-2.8984,-2.8984,-2.8984,-2.8984,-2.8984,-2.8984,-2.8984,-2.8535,-2.795,-2.7849,-2.7381,-2.6701,0.0,0.0,0.0,0.0,0.0,0.0,0.0,-1.0512,-1.2125,-1.2953,-1.3474,-1.3664,-1.3466,-1.274,-1.2271,0.0,0.0,0.0,0.0,0.0,0.0,0.0,0.0,0.0,0.0,0.0,0.0,0.0,0.0,0.0,0.0,0.0,0.0,0.0,0.0,0.0,0.0,0.0,0.0,0.0,0.0,0.0,0.0,0.0,0.0,0.0,0.0,0.0,0.0,0.0,0.0,-1.3972,-1.5024,-1.7493,-2.0067,-2.0466,0.0,0.0,-2.0198,-1.9563,-1.8781,-1.8781,-1.8097,-1.6992,-1.5561,0.0,0.0,0.0,-1.0791,-1.0671,-1.0899,0.0,0.0,0.0,0.0,0.0,0.0,0.0,0.0,0.0,0.0,0.0,0.0,0.0,0.0,0.0,0.0,0.0,-2.8984,-2.8984,-2.8984,-2.8984,-2.8984,-2.8984,-2.8984,-2.8984,-2.8984,-2.8984,-2.8984,-2.8984,-2.8984,-2.8984,-2.8984,-2.8984,-2.8984,-2.8984,0.0,-2.8984,-2.8984,-2.8984,-2.8984,-2.8718,-2.8287,-2.7902,-2.749,-2.7068,0.0,0.0,0.0,0.0,0.0,0.0,-0.9475,-1.0654,-1.2008,-1.3612,-1.3739,-1.3686,-1.3755,-1.3217,-1.2666,0.0,0.0,0.0,0.0,0.0,0.0,0.0,0.0,0.0,0.0,0.0,0.0,0.0,0.0,0.0,0.0,0.0,0.0,0.0,0.0,0.0,0.0,0.0,0.0,0.0,0.0,0.0,0.0,0.0,0.0,0.0,0.0,0.0,0.0,0.0,0.0,0.0,-1.3336,-1.4883,0.0,0.0,-1.8933,-1.923,-1.9804,-1.9624,-1.9188,-1.8874,-1.8049,-1.6857,-1.5229,0.0,0.0,-1.1037,-1.0591,-1.0536,-1.0679,-1.0963,-1.1615,0.0,-1.4031,0.0,0.0,0.0,0.0,0.0,0.0,0.0,0.0,0.0,0.0,0.0,0.0,0.0,-2.8984,-2.8984,-2.8984,-2.8984,-2.8984,-2.8984,-2.8984,-2.8984,-2.8984,-2.8984,-2.8984,-2.8984,-2.8984,-2.8984,-2.8984,-2.8984,-2.8984,-2.8984,0.0,-2.8984,-2.8984,-2.8984,-2.8984,-2.8737,-2.8342,-2.7921,-2.7574,-2.7114,0.0,0.0,0.0,0.0,0.0,-0.8333,-0.9632,-1.069,-1.1883,-1.3412,-1.3453,-1.3403,-1.3581,-1.3058,-1.2535,-1.2166,0.0,0.0,0.0,0.0,0.0,0.0,0.0,0.0,0.0,0.0,0.0,0.0,0.0,0.0,0.0,0.0,0.0,0.0,0.0,0.0,0.0,0.0,0.0,0.0,0.0,0.0,0.0,0.0,0.0,0.0,0.0,0.0,0.0,0.0,0.0,0.0,0.0,0.0,0.0,0.0,-1.7651,-1.8355,-1.9134,-1.9393,-1.9298,-1.876,-1.789,-1.6659,0.0,0.0,-1.2495,-1.0838,-1.0496,-1.0496,-1.0496,-1.0695,-1.1098,0.0,-1.2915,-1.453,-1.7104,0.0,0.0,0.0,0.0,0.0,0.0,0.0,0.0,0.0,0.0,0.0,-2.8984,-2.8984,-2.8984,-2.8984,-2.8984,-2.8984,-2.8984,-2.8984,-2.8984,-2.8984,-2.8984,-2.8984,-2.8984,-2.8984,-2.8984,-2.8984,-2.8984,-2.8984,0.0,-2.8984,-2.8984,-2.8984,-2.8984,-2.881,-2.8498,-2.7967,-2.7647,-2.7279,0.0,0.0,0.0,0.0,0.0,0.0,-0.8634,-1.0524,-1.192,-1.2013,-1.254,-1.2907,-1.2908,-1.2082,-1.17,-1.2156,0.0,0.0,0.0,0.0,0.0,0.0,0.0,0.0,0.0,0.0,-1.2062,-1.2393,-1.3326,0.0,0.0,0.0,0.0,0.0,0.0,0.0,0.0,0.0,0.0,0.0,0.0,0.0,0.0,0.0,0.0,0.0,0.0,0.0,0.0,0.0,0.0,0.0,0.0,0.0,0.0,0.0,-1.6437,-1.7244,-1.8246,-1.8745,-1.8892,-1.8438,-1.7517,-1.6237,0.0,-1.3314,-1.22,-1.0783,-1.0496,-1.0496,-1.0496,-1.0496,-1.0838,-1.1853,-1.2954,-1.4782,-1.7869,0.0,0.0,0.0,0.0,0.0,0.0,0.0,0.0,0.0,0.0,0.0,-2.8984,-2.8984,-2.8984,-2.8984,-2.8984,-2.8984,-2.8984,-2.8984,-2.8984,-2.8984,-2.8984,-2.8984,-2.8984,-2.8984,-2.8984,-2.8984,-2.8984,-2.8984,0.0,-2.8984,-2.8984,-2.8984,-2.8984,-2.8984,-2.8874,-2.8125,-2.7822,-2.7702,0.0,0.0,0.0,0.0,0.0,0.0,0.0,-0.9272,-1.012,-1.1247,-1.1305,-1.1405,-1.1768,-1.135,-1.1198,-1.1678,0.0,0.0,0.0,0.0,0.0,0.0,0.0,0.0,0.0,0.0,-1.1943,-1.2051,-1.2947,-1.3314,-1.3184,0.0,0.0,0.0,0.0,0.0,0.0,0.0,0.0,0.0,0.0,0.0,0.0,0.0,0.0,0.0,0.0,0.0,0.0,0.0,0.0,0.0,0.0,0.0,0.0,-1.2448,0.0,0.0,-1.583,-1.6433,-1.6684,-1.5973,-1.5326,-1.4609,-1.3379,-1.2607,-1.186,-1.0735,-1.0496,-1.0496,-1.0496,-1.0496,-1.0998,-1.2504,0.0,0.0,0.0,0.0,0.0,0.0,0.0,0.0,0.0,0.0,0.0,0.0,0.0,0.0,-2.8984,-2.8984,-2.8984,-2.8984,-2.8984,-2.8984,-2.8984,-2.8984,-2.8984,-2.8984,-2.8984,-2.8984,-2.8984,-2.8984,-2.8984,-2.8984,-2.8984,-2.8984,-2.8984,-2.8984,-2.8984,-2.8984,-2.8984,-2.8984,-2.8883,-2.8125,-2.7822,-2.7711,0.0,0.0,0.0,0.0,0.0,0.0,0.0,-0.8622,-0.9316,-1.0193,-1.0293,-1.0498,-1.1047,-1.0581,-1.0577,-1.1427,0.0,0.0,0.0,0.0,0.0,0.0,0.0,0.0,0.0,-1.1215,-1.1408,-1.1509,-1.2177,-1.2546,-1.2677,-1.2623,-1.2272,0.0,0.0,0.0,0.0,0.0,0.0,0.0,0.0,0.0,-1.0756,0.0,0.0,0.0,0.0,0.0,0.0,0.0,0.0,0.0,0.0,0.0,0.0,0.0,-1.1784,-1.3235,0.0,-1.4891,-1.5323,-1.4596,-1.4172,-1.364,-1.2622,-1.2075,-1.1559,-1.0679,-1.0496,-1.0522,-1.0616,-1.0573,-1.0969,-1.2394,0.0,0.0,0.0,0.0,0.0,0.0,0.0,0.0,0.0,0.0,0.0,0.0,0.0,0.0,-2.8984,-2.8984,-2.8984,-2.8984,-2.8984,-2.8984,-2.8984,-2.8984,-2.8984,-2.8984,-2.8984,-2.8984,-2.8984,-2.8984,-2.8984,-2.8984,-2.8984,-2.8984,0.0,-2.8984,-2.8984,-2.8984,-2.8984,-2.8984,-2.8883,-2.8125,-2.7822,-2.7711,0.0,0.0,0.0,0.0,0.0,0.0,0.0,0.0,-0.9297,-0.9,-0.9474,-1.0045,-1.0591,-0.9825,-0.9841,-1.1275,0.0,0.0,0.0,0.0,0.0,0.0,0.0,0.0,-1.0943,-1.0612,-1.0588,-1.0879,-1.1166,-1.1477,-1.1796,-1.2203,-1.199,-1.1238,-1.0881,0.0,0.0,0.0,0.0,0.0,0.0,-1.0498,0.0,0.0,0.0,0.0,0.0,0.0,0.0,0.0,0.0,0.0,0.0,0.0,0.0,0.0,0.0,0.0,0.0,-1.3924,-1.4428,-1.3956,-1.3624,-1.3139,-1.2139,-1.167,0.0,-1.0605,-1.047,-1.0597,-1.0867,-1.0764,-1.0944,-1.1959,0.0,0.0,0.0,0.0,0.0,0.0,0.0,0.0,0.0,0.0,0.0,0.0,0.0,0.0,-2.8984,-2.8984,-2.8984,-2.8984,-2.8984,-2.8984,-2.8984,-2.8984,-2.8984,-2.8984,-2.8984,-2.8984,-2.8984,-2.8984,-2.8984,0.0,-2.8984,-2.8984,-2.8984,-2.8984,-2.8984,-2.8984,-2.8984,-2.8984,-2.8883,-2.8125,-2.7822,-2.7711,0.0,0.0,0.0,0.0,0.0,0.0,0.0,0.0,0.0,0.0,-0.901,-0.9289,-0.9262,-0.8966,-0.9214,0.0,0.0,0.0,0.0,0.0,0.0,0.0,0.0,0.0,-1.0332,-1.0618,-1.0721,-1.0588,-1.1319,-1.1714,-1.1817,-1.2156,-1.2087,-1.1653,-1.1256,-1.1048,0.0,0.0,0.0,0.0,-1.0964,-1.0498,0.0,0.0,0.0,0.0,-0.9399,-0.9318,0.0,0.0,0.0,0.0,0.0,0.0,0.0,0.0,-0.9399,-0.9773,-1.0494,0.0,-1.1813,-1.1448,-1.1463,-1.1471,0.0,-1.0979,0.0,0.0,0.0,0.0,0.0,0.0,0.0,0.0,0.0,0.0,0.0,0.0,0.0,0.0,0.0,0.0,0.0,0.0,0.0,0.0,0.0,-2.8984,-2.8984,-2.8984,-2.8984,-2.8984,-2.8984,-2.8984,-2.8984,-2.8984,-2.8984,-2.8984,-2.8984,-2.8984,-2.8984,-2.8984,-2.8984,-2.8984,-2.8984,-2.8984,-2.8984,-2.8984,-2.8984,-2.8984,-2.8984,-2.8984,-2.8883,-2.8125,-2.7822,-2.7711,0.0,0.0,0.0,0.0,0.0,0.0,0.0,0.0,0.0,0.0,0.0,0.0,0.0,0.0,0.0,0.0,0.0,0.0,0.0,0.0,0.0,0.0,0.0,-1.0409,-0.9971,-1.0324,-1.0356,-1.0137,-1.0655,-1.102,-1.1194,-1.1401,-1.1384,-1.1212,-1.1107,-1.093,0.0,0.0,0.0,0.0,-1.0754,0.0,0.0,0.0,0.0,0.0,-0.8788,-0.8642,0.0,-0.8643,-0.8937,-0.9133,0.0,0.0,0.0,0.0,-0.8896,-0.9237,-0.9465,-1.0207,-1.0883,-1.0609,-1.0892,-1.1115,-1.0655,0.0,0.0,0.0,0.0,0.0,0.0,0.0,0.0,0.0,0.0,0.0,0.0,0.0,0.0,0.0,0.0,0.0,0.0,0.0,0.0,0.0,0.0,-2.8425,-2.8425,-2.8425,-2.8507,-2.8709,-2.8718,-2.8801,-2.8984,-2.8984,-2.8984,-2.8984,-2.8984,-2.8984,-2.8984,-2.8984,-2.8984,-2.8984,-2.8984,-2.8984,-2.8984,-2.8984,-2.8984,-2.8966,-2.8783,-2.8718,-2.8618,-2.7792,-2.7499,-2.7463,0.0,0.0,0.0,0.0,0.0,0.0,0.0,0.0,0.0,0.0,0.0,0.0,0.0,0.0,0.0,0.0,0.0,0.0,0.0,0.0,0.0,0.0,0.0,-1.0293,-0.9819,-0.9977,-0.9978,-0.9795,-1.0035,-1.0319,-1.0647,-1.0711,-1.0647,-1.0522,-1.0661,-1.0582,0.0,0.0,0.0,0.0,-1.038,0.0,0.0,0.0,0.0,0.0,0.0,0.0,0.0,-0.7968,-0.8458,-0.8829,-0.81,0.0,0.0,0.0,0.0,0.0,-0.9359,-1.0205,-1.0973,-1.0708,-1.1128,-1.1445,0.0,0.0,0.0,0.0,0.0,0.0,0.0,0.0,0.0,0.0,0.0,0.0,0.0,0.0,0.0,0.0,0.0,0.0,0.0,0.0,0.0,0.0,0.0,-2.7822,-2.7822,-2.7822,-2.7987,-2.8287,-2.8297,-2.8462,-2.8792,-2.8865,-2.8893,-2.8893,-2.8893,-2.892,-2.8984,-2.8984,-2.8984,-2.8984,0.0,0.0,-2.8975,-2.892,-2.8893,-2.8856,-2.8452,-2.8297,-2.8205,-2.7453,-2.7178,-2.7114,0.0,0.0,0.0,0.0,0.0,0.0,0.0,0.0,0.0,0.0,0.0,0.0,0.0,0.0,0.0,0.0,0.0,0.0,0.0,0.0,0.0,-0.9852,-1.0069,-1.0092,-0.9888,-1.0228,-1.0354,-1.0212,-1.0902,-1.1281,-1.1336,-1.1638,-1.1312,-1.048,-1.0194,-1.014,-1.0285,0.0,0.0,-1.0193,0.0,0.0,0.0,0.0,0.0,0.0,0.0,0.0,0.0,-0.7265,-0.7586,-0.7834,-0.7681,0.0,0.0,0.0,0.0,0.0,-1.0105,-1.1104,-1.156,-1.1061,-1.1426,-1.1831,0.0,0.0,0.0,0.0,0.0,0.0,0.0,0.0,0.0,0.0,0.0,0.0,0.0,0.0,0.0,0.0,0.0,0.0,0.0,0.0,0.0,0.0,0.0,-2.7822,-2.7822,-2.7822,-2.7849,-2.7914,-2.7914,-2.795,-2.8005,-2.8306,-2.8489,-2.8489,-2.8489,-2.8663,-2.8984,-2.8984,-2.8984,-2.8984,0.0,-2.8984,-2.8957,-2.8627,-2.8489,-2.8443,-2.8022,-2.7914,-2.7868,-2.7343,-2.7178,-2.7114,0.0,0.0,0.0,0.0,0.0,0.0,0.0,0.0,0.0,0.0,0.0,0.0,0.0,0.0,0.0,0.0,0.0,0.0,0.0,0.0,-0.9925,-1.0026,-1.0006,-0.9902,-0.9688,-1.0154,-1.0404,-1.0407,-1.0953,-1.1225,-1.1225,-1.1193,-1.082,-1.0168,-0.9977,-0.9859,-0.9809,-0.9657,-0.9631,-0.9695,0.0,0.0,0.0,0.0,0.0,0.0,0.0,0.0,0.0,0.0,-0.7261,-0.7595,-0.7595,0.0,0.0,0.0,0.0,0.0,-0.9563,-1.0592,-1.1352,-1.175,-1.2833,-1.3599,0.0,0.0,0.0,0.0,0.0,0.0,0.0,0.0,0.0,0.0,0.0,0.0,0.0,0.0,0.0,0.0,0.0,0.0,0.0,0.0,0.0,0.0,0.0,0.0,-2.7132,-2.7132,-2.7224,-2.75,-2.7509,-2.7509,-2.7509,-2.7636,-2.7847,-2.8058,-2.8058,-2.815,-2.8324,-2.8324,-2.8324,-2.8324,0.0,-2.8324,-2.8315,-2.8132,-2.8058,-2.8012,-2.7609,-2.7509,-2.7454,-2.7004,-2.6866,-2.6839,0.0,0.0,0.0,0.0,0.0,0.0,0.0,0.0,0.0,0.0,0.0,0.0,0.0,0.0,0.0,0.0,0.0,0.0,0.0,0.0,-0.971,-1.0042,-0.9988,-0.9891,-0.9789,-1.0207,-1.0449,-1.0496,-1.0899,-1.1074,-1.0995,-1.0743,-1.0311,-0.9779,-0.9779,-0.9557,-0.9158,-0.9101,-0.9043,-0.8938,0.0,0.0,0.0,0.0,0.0,0.0,0.0,0.0,0.0,0.0,0.0,0.0,0.0,0.0,0.0,-0.7901,-0.7901,-0.8152,-0.9261,-1.0165,-1.1119,-1.2484,0.0,-1.471,0.0,0.0,0.0,0.0,0.0,0.0,0.0,0.0,0.0,0.0,0.0,0.0,0.0,0.0,0.0,0.0,0.0,0.0,0.0,0.0,0.0,0.0,0.0,0.0,-2.6591,-2.6591,-2.6729,-2.7031,-2.704,-2.704,-2.704,-2.704,-2.7233,-2.7684,-2.7684,-2.773,-2.7822,-2.7822,-2.7822,-2.7822,-2.7822,-2.7822,-2.7813,-2.7721,-2.7684,-2.7647,-2.7196,-2.704,-2.7004,-2.6701,-2.6591,-2.6591,0.0,0.0,0.0,0.0,0.0,0.0,0.0,0.0,0.0,0.0,0.0,0.0,0.0,0.0,0.0,0.0,0.0,0.0,0.0,0.0,-0.9213,-0.9366,-0.9826,-1.0243,-1.061,-1.0698,-1.0685,-1.0496,-1.1157,-1.1296,-1.0995,-1.0971,-1.0415,-0.9438,-0.9438,-0.9088,-0.8475,-0.8475,-0.8253,-0.7899,-0.7953,0.0,0.0,0.0,0.0,0.0,0.0,0.0,0.0,0.0,0.0,0.0,0.0,0.0,-0.7901,-0.7901,-0.7901,-0.8302,-1.0167,-1.0743,-1.1228,-1.3063,0.0,0.0,0.0,0.0,0.0,0.0,0.0,0.0,0.0,0.0,0.0,0.0,0.0,0.0,0.0,0.0,0.0,0.0,0.0,0.0,0.0,0.0,0.0,0.0,0.0,0.0,-2.6591,-2.6591,-2.66,-2.6628,-2.6628,-2.6628,-2.6628,-2.6628,-2.683,-2.7215,-2.7215,-2.7416,-2.7822,-2.7822,-2.7822,-2.7822,-2.7822,-2.7822,-2.7794,-2.7427,-2.7215,-2.7178,-2.6784,-2.6628,-2.6628,-2.66,-2.6591,-2.6591,0.0,0.0,0.0,0.0,0.0,0.0,0.0,0.0,0.0,0.0,0.0,0.0,0.0,0.0,0.0,0.0,0.0,0.0,0.0,-0.8853,-0.9149,-0.9301,-0.9822,-1.0114,-1.0136,-1.0442,-1.0669,-1.0796,-1.1058,-1.1122,-1.0995,-1.0799,-1.0327,-0.97,-0.9445,-0.9071,-0.8624,-0.8158,-0.7879,-0.7693,-0.7344,-0.7054,0.0,0.0,0.0,0.0,0.0,0.0,0.0,0.0,-0.6848,-0.7194,0.0,0.0,0.0,0.0,-0.7796,-0.8123,-0.9143,-1.0622,-1.202,-1.2703,0.0,0.0,0.0,0.0,0.0,0.0,0.0,0.0,0.0,0.0,0.0,0.0,0.0,0.0,0.0,0.0,0.0,0.0,0.0,0.0,0.0,0.0,0.0,0.0,0.0,0.0,-2.6591,-2.6591,-2.6591,-2.6591,-2.6591,-2.6591,-2.6591,-2.6591,-2.6664,-2.6811,-2.6811,-2.6885,-2.7031,-2.7031,-2.7031,-2.7031,-2.7031,-2.7031,-2.7022,-2.6875,-2.6811,-2.6793,-2.6646,-2.6591,-2.6591,-2.6591,-2.6591,-2.6591,0.0,0.0,0.0,0.0,0.0,0.0,0.0,0.0,0.0,0.0,0.0,0.0,0.0,0.0,0.0,0.0,0.0,0.0,-0.8089,-0.8423,-0.8739,-0.8998,-0.9435,-0.9625,-0.9512,-1.0043,-1.0415,-1.0661,-1.0772,-1.0828,-1.0854,-1.0607,-1.0221,-0.9711,-0.9424,-0.8994,-0.8421,-0.7832,-0.7519,-0.7382,-0.697,-0.6756,0.0,0.0,0.0,0.0,0.0,0.0,0.0,0.0,-0.6781,0.0,0.0,0.0,0.0,0.0,-0.8057,-0.8526,-0.901,-1.0617,-1.2317,0.0,0.0,0.0,0.0,0.0,0.0,0.0,0.0,0.0,0.0,0.0,0.0,0.0,0.0,0.0,0.0,0.0,0.0,0.0,0.0,0.0,0.0,0.0,0.0,0.0,0.0,0.0,0.0,-2.6591,-2.6591,-2.6591,-2.6591,-2.6591,-2.6591,-2.6591,-2.6591,-2.6591,-2.6591,-2.6591,-2.6591,-2.6591,-2.6591,-2.6591,-2.6591,-2.6591,-2.6591,-2.6591,-2.6591,-2.6591,-2.6591,-2.6591,-2.6591,-2.6591,-2.6591,-2.6591,0.0,0.0,0.0,0.0,0.0,0.0,0.0,0.0,0.0,0.0,0.0,0.0,0.0,0.0,0.0,0.0,0.0,0.0,-0.7789,-0.7671,-0.7834,-0.8372,-0.8596,-0.8753,-0.8889,-0.9541,-0.9898,-0.9898,-1.0313,-1.0488,-1.0488,-1.0488,-1.0078,-0.9308,-0.9308,-0.871,-0.7682,-0.7419,-0.7099,-0.6811,-0.6805,-0.6653,-0.6425,0.0,0.0,0.0,0.0,0.0,0.0,0.0,-0.6805,0.0,0.0,0.0,0.0,0.0,-0.8713,-0.9695,-1.015,-1.0828,0.0,0.0,0.0,0.0,0.0,0.0,0.0,0.0,0.0,0.0,0.0,0.0,0.0,0.0,0.0,0.0,0.0,0.0,0.0,0.0,0.0,0.0,0.0,0.0,0.0,0.0,0.0,0.0,0.0,-2.6591,-2.6591,-2.6591,-2.6591,-2.6591,-2.6591,-2.6591,-2.6591,-2.6591,-2.6591,-2.6591,-2.6591,-2.6591,-2.6591,-2.6591,-2.6591,-2.6591,-2.6591,-2.6591,-2.6591,-2.6591,-2.6591,-2.6591,-2.6646,-2.6591,-2.6591,-2.6591,0.0,0.0,0.0,0.0,0.0,0.0,0.0,0.0,0.0,0.0,0.0,0.0,0.0,0.0,0.0,0.0,0.0,0.0,-0.7247,-0.7462,-0.7661,-0.7825,-0.8384,-0.8651,-0.8553,-0.8977,-0.9414,-0.9898,-1.0009,-1.0089,-1.0064,-0.9791,-0.966,-0.9628,-0.9064,-0.8516,-0.8006,-0.7457,-0.7179,-0.7066,-0.6884,-0.6763,-0.6702,0.0,0.0,0.0,0.0,0.0,0.0,0.0,0.0,0.0,0.0,0.0,0.0,-0.7727,-0.8389,-0.9128,-0.8937,0.0,0.0,0.0,0.0,0.0,0.0,0.0,0.0,0.0,0.0,0.0,0.0,0.0,0.0,0.0,0.0,0.0,0.0,0.0,0.0,0.0,0.0,0.0,0.0,0.0,0.0,0.0,0.0,0.0,0.0,-2.6591,-2.6591,-2.6591,-2.6591,-2.6591,-2.6591,-2.6591,-2.6591,-2.6591,-2.6591,-2.6591,-2.6591,-2.6591,-2.6591,-2.6591,-2.6591,-2.6591,-2.6591,-2.6591,-2.6954,-2.7413,-2.6791,-2.7323,-2.8305,-2.7682,-2.7413,-2.7413,0.0,0.0,0.0,0.0,0.0,0.0,0.0,0.0,0.0,0.0,0.0,-0.891,0.0,0.0,0.0,0.0,0.0,0.0,0.0,-0.7226,-0.7433,-0.7603,-0.8079,-0.8428,-0.8601,-0.8921,-0.9239,-0.9494,-0.9628,-0.9763,-0.9898,-0.9498,-0.949,-0.9762,-0.8961,-0.8443,-0.8162,-0.748,-0.72,-0.7188,-0.703,-0.6902,-0.6817,0.0,0.0,0.0,0.0,0.0,0.0,0.0,0.0,0.0,0.0,0.0,0.0,-0.7916,-0.875,-0.9641,-1.0063,0.0,0.0,0.0,0.0,0.0,0.0,0.0,0.0,0.0,0.0,0.0,0.0,0.0,0.0,0.0,0.0,0.0,0.0,0.0,0.0,0.0,0.0,0.0,0.0,0.0,0.0,0.0,0.0,0.0,0.0,-2.6499,-2.6591,-2.6591,-2.6591,-2.6591,-2.6591,-2.6591,-2.6745,-2.7107,-2.7107,-2.726,-2.7574,-2.7215,-2.7107,-2.7107,-2.7422,-2.7574,-2.7574,-2.7574,-2.7887,-2.8242,-2.7789,-2.8208,-2.9039,-2.8509,-2.8295,-2.8295,0.0,0.0,-0.6616,-0.7145,0.0,0.0,0.0,0.0,0.0,0.0,0.0,-0.854,0.0,0.0,0.0,-0.7574,0.0,0.0,0.0,0.0,-0.718,-0.755,-0.7781,-0.8226,-0.8937,-0.9215,-0.9207,-0.8905,-0.9207,-0.951,-0.9802,-0.9428,-0.9417,-0.9658,-0.8908,-0.8404,-0.8066,-0.7424,-0.7164,-0.7164,-0.7164,-0.7024,-0.6835,-0.7072,0.0,0.0,0.0,0.0,0.0,0.0,0.0,0.0,0.0,0.0,0.0,-0.8255,-0.9419,-1.0682,0.0,0.0,0.0,0.0,0.0,0.0,0.0,0.0,0.0,0.0,0.0,0.0,0.0,0.0,0.0,0.0,0.0,0.0,0.0,0.0,0.0,0.0,0.0,0.0,0.0,0.0,0.0,0.0,0.0,0.0,0.0,-2.627,-2.6481,-2.6481,-2.6481,-2.6481,-2.6481,-2.658,-2.6941,-2.7655,-2.7771,-2.8207,-2.9031,-2.8286,-2.7931,-2.7985,-2.8774,-2.9081,-2.9081,-2.9081,-2.9134,-2.9197,-2.9134,-2.9187,-2.9303,-2.925,-2.9197,-2.9197,0.0,0.0,-0.772,-0.826,0.0,0.0,0.0,0.0,-0.9301,-0.9339,-0.8855,-0.8442,-0.8319,-0.7879,0.0,-0.7299,-0.7121,0.0,0.0,0.0,-0.7104,-0.7356,-0.8202,-0.8866,-0.9279,-0.9104,-0.8977,-0.8905,-0.8977,-0.9026,-0.9025,-0.8938,-0.8901,-0.885,-0.8467,-0.796,-0.7388,-0.7029,-0.689,-0.689,-0.689,-0.686,-0.6811,-0.6872,-0.6696,0.0,0.0,0.0,0.0,0.0,0.0,0.0,-0.6726,-0.6951,-0.7212,-0.7697,-0.8778,0.0,0.0,0.0,0.0,0.0,0.0,0.0,0.0,0.0,0.0,0.0,0.0,0.0,0.0,0.0,0.0,0.0,0.0,0.0,0.0,0.0,0.0,0.0,0.0,0.0,0.0,0.0,0.0,0.0,0.0,0.0,-2.5552,-2.5635,-2.5681,-2.5681,-2.5681,-2.5681,-2.5681,-2.6238,-2.6593,-2.6791,-2.74,-2.8,-2.8557,-2.873,-2.8827,-2.8827,-2.9039,-2.9081,-2.9081,-2.9081,-2.9513,-3.0068,-2.9365,-2.988,-3.0991,-3.0328,-3.012,-3.012,0.0,0.0,0.0,0.0,0.0,0.0,0.0,0.0,-0.9046,-0.9017,-0.854,-0.817,-0.8019,-0.7647,0.0,0.0,-0.6981,-0.6824,0.0,0.0,-0.7348,-0.7812,-0.8516,-0.8905,-0.8927,-0.8905,-0.8905,-0.8905,-0.8905,-0.8961,-0.9082,-0.9212,-0.9304,-0.9334,-0.8873,-0.8296,-0.7658,-0.7224,-0.6941,-0.6805,-0.6805,-0.6805,-0.6805,-0.6805,-0.6641,-0.6395,-0.6395,0.0,0.0,0.0,0.0,0.0,0.0,0.0,-0.7138,-0.7759,-0.8449,-0.9432,0.0,0.0,0.0,0.0,0.0,0.0,0.0,0.0,0.0,0.0,0.0,0.0,0.0,0.0,0.0,0.0,0.0,0.0,0.0,0.0,0.0,0.0,0.0,0.0,0.0,0.0,0.0,0.0,0.0,-2.5087,-2.5087,-2.5323,-2.5424,-2.5424,-2.5424,-2.557,-2.5924,-2.6317,-2.6871,-2.7663,-2.8066,-2.861,-2.9283,-2.9591,-2.9942,-3.0297,-3.0297,-3.0297,-3.0297,-3.0297,-3.0578,-3.095,-3.0463,-3.0826,-3.1567,-3.1105,-3.0961,-3.0961,0.0,0.0,0.0,0.0,0.0,0.0,0.0,0.0,0.0,-0.8676,-0.8216,-0.7869,-0.7778,-0.7403,-0.7121,0.0,0.0,0.0,-0.6514,0.0,0.0,-0.8362,-0.8715,-0.877,-0.8489,-0.8691,-0.881,-0.881,-0.881,-0.9072,-0.9596,-0.9718,-0.9895,-1.0077,-0.9397,-0.8726,-0.8095,-0.7471,-0.7023,-0.6738,-0.6738,-0.6708,-0.6671,-0.672,-0.6552,-0.6328,-0.6377,-0.6395,-0.6401,-0.6443,0.0,0.0,0.0,0.0,-0.6965,-0.7803,-0.8159,-0.8915,0.0,0.0,0.0,0.0,0.0,0.0,0.0,0.0,0.0,0.0,0.0,0.0,0.0,0.0,0.0,0.0,0.0,0.0,0.0,0.0,0.0,0.0,0.0,0.0,0.0,0.0,0.0,0.0,0.0,-2.4725,-2.4725,-2.5038,-2.5264,-2.5358,-2.5358,-2.5759,-2.6505,-2.6647,-2.7342,-2.8673,-2.8915,-2.9362,-3.0073,-3.028,-3.0758,-3.1498,-3.1586,-3.1618,-3.1618,-3.1618,-3.1618,-3.1618,-3.1618,-3.1618,-3.1618,-3.1721,-3.1669,-3.1618,0.0,0.0,0.0,0.0,0.0,0.0,0.0,0.0,0.0,0.0,-0.816,-0.7826,-0.7647,-0.727,-0.7017,-0.7002,-0.6718,-0.6521,0.0,0.0,0.0,-0.8362,-0.8715,-0.8881,-0.8834,-0.8601,-0.8465,-0.8465,-0.8465,0.0,0.0,0.0,0.0,-0.9741,-0.8998,-0.8382,-0.7813,-0.714,-0.67,-0.6443,-0.6443,-0.6319,-0.6131,-0.6374,-0.6289,-0.6082,-0.6325,-0.6395,-0.6431,-0.6678,-0.6781,0.0,0.0,0.0,0.0,0.0,0.0,0.0,0.0,0.0,0.0,0.0,0.0,0.0,0.0,0.0,0.0,0.0,0.0,0.0,0.0,0.0,0.0,0.0,0.0,0.0,0.0,0.0,0.0,0.0,0.0,0.0,0.0,0.0,0.0,0.0,-2.4257,-2.4284,-2.4284,-2.4339,-2.4647,-2.5271,-2.532,-2.5713,-2.6492,-2.7157,-2.7587,-2.7778,-2.8881,-2.948,-2.9598,-3.0057,-3.0525,-3.1018,-3.1433,-3.1618,-3.1618,-3.1618,-3.1618,-3.1618,-3.1618,-3.1618,-3.168,-3.2117,-3.2015,-3.1721,0.0,0.0,0.0,0.0,0.0,0.0,0.0,0.0,0.0,0.0,0.0,-0.7637,-0.7403,-0.7225,-0.7077,-0.7002,-0.6794,0.0,0.0,0.0,0.0,-0.7753,-0.792,-0.8008,-0.8008,-0.7857,-0.7995,-0.8394,0.0,0.0,0.0,-1.0743,-1.0791,0.0,0.0,-0.9704,-0.8758,-0.7812,-0.7208,-0.6881,-0.6536,-0.6884,-0.7528,-0.6706,-0.6787,-0.7257,-0.6634,-0.6395,-0.6407,-0.6528,-0.6787,-0.6975,-0.6678,0.0,0.0,0.0,0.0,0.0,0.0,0.0,0.0,0.0,0.0,0.0,0.0,0.0,0.0,0.0,0.0,0.0,0.0,0.0,0.0,0.0,0.0,0.0,0.0,0.0,0.0,0.0,0.0,0.0,0.0,0.0,0.0,0.0,-2.4202,-2.4202,-2.4202,-2.4202,-2.4529,-2.5294,-2.5294,-2.5868,-2.7115,-2.7447,-2.7835,-2.8269,-2.8824,-2.9261,-2.9506,-3.0005,-3.0442,-3.0908,-3.1116,-3.1367,-3.1618,-3.1924,-3.2066,-3.2077,-3.2381,-3.2482,-3.2533,-3.2734,-3.2684,-3.2544,0.0,0.0,0.0,0.0,0.0,0.0,0.0,0.0,0.0,0.0,0.0,-0.7491,-0.7225,0.0,0.0,0.0,-0.687,0.0,0.0,0.0,0.0,0.0,0.0,-0.7314,-0.7173,-0.7173,-0.7444,-0.7995,0.0,0.0,-1.1241,-1.1399,-1.192,0.0,-1.1989,-1.0989,0.0,0.0,-0.8041,-0.7675,-0.7215,-0.7808,-0.8856,-0.8065,-0.8324,-0.8976,-0.7869,-0.7406,-0.7295,-0.7068,-0.7163,-0.7299,0.0,0.0,0.0,0.0,0.0,0.0,0.0,0.0,0.0,0.0,0.0,0.0,0.0,0.0,0.0,0.0,0.0,0.0,0.0,0.0,0.0,0.0,0.0,0.0,0.0,0.0,0.0,0.0,0.0,0.0,0.0,0.0,0.0,0.0,-2.4202,-2.4202,-2.4202,-2.4202,-2.4627,-2.5586,-2.5577,-2.635,-2.7882,-2.7882,-2.8269,-2.8978,-2.8978,-2.9209,-2.968,-3.0052,-3.0468,-3.0942,-3.1185,-3.1506,-3.1849,-3.2376,-3.2622,-3.2622,-3.3047,-3.3197,-3.3197,-3.3346,-3.3296,-3.3247,0.0,0.0,0.0,0.0,0.0,0.0,0.0,0.0,0.0,0.0,0.0,-0.7491,-0.7225,-0.7092,-0.7002,-0.7002,-0.687,0.0,0.0,0.0,0.0,0.0,0.0,0.0,-0.684,-0.6823,-0.6839,0.0,0.0,0.0,-1.056,-1.1472,-1.2623,-1.3934,-1.2705,-1.1536,-1.0391,0.0,0.0,-0.8817,-0.8771,-0.8897,-0.9258,-1.0843,-1.1271,-1.0998,-1.0527,-1.0154,0.0,0.0,0.0,0.0,-0.8111,-0.7557,-0.682,0.0,0.0,0.0,0.0,0.0,0.0,0.0,0.0,0.0,0.0,0.0,0.0,0.0,0.0,0.0,0.0,0.0,0.0,0.0,0.0,0.0,0.0,0.0,0.0,0.0,0.0,0.0,0.0,0.0,0.0,0.0,-2.4202,-2.4202,-2.4202,-2.4202,-2.4873,-2.6408,-2.6456,-2.7173,-2.871,-2.8757,-2.8978,-2.9439,-2.9439,-2.9715,-3.017,-3.0205,-3.0457,-3.0971,-3.1979,-3.2452,-3.2509,-3.2952,-3.3147,-3.3147,-3.3197,-3.3197,-3.3247,-3.3793,-3.3645,-3.3346,0.0,0.0,0.0,0.0,0.0,0.0,0.0,0.0,0.0,0.0,0.0,0.0,0.0,-0.7166,-0.7121,-0.7121,-0.6924,0.0,0.0,0.0,0.0,0.0,0.0,0.0,0.0,-0.6771,0.0,0.0,0.0,-0.8794,-1.0318,-1.1135,-1.185,-1.2432,-1.2189,-1.1927,-1.1616,-1.0045,0.0,-0.9489,-0.9558,-1.0446,-1.1711,-1.1655,-1.227,-1.3019,-1.1705,0.0,0.0,0.0,0.0,0.0,-0.8126,-0.7919,-0.7731,-0.7588,0.0,0.0,0.0,0.0,0.0,0.0,0.0,0.0,0.0,0.0,0.0,0.0,0.0,0.0,0.0,0.0,0.0,0.0,0.0,0.0,0.0,0.0,0.0,0.0,0.0,0.0,0.0,0.0,0.0,0.0,0.0,-2.3382,-2.3382,-2.4094,-2.4996,-2.6081,-2.6829,-2.7741,-2.8803,-2.9128,-2.9347,-2.9485,-2.9806,-3.0216,-3.0623,-3.0623,-3.0908,-3.1435,-3.2168,-3.2288,-3.2041,-3.285,-3.3206,-3.3289,-3.396,-3.4237,-3.4237,-3.4433,-3.4384,-3.4286,0.0,0.0,0.0,-0.9299,0.0,-0.8864,-0.8453,-0.8344,-0.814,-0.7721,0.0,0.0,0.0,0.0,-0.7567,-0.7415,-0.7193,-0.6971,-0.6749,-0.6604,0.0,0.0,0.0,0.0,0.0,-0.7107,0.0,0.0,0.0,0.0,0.0,-1.045,-1.1092,-1.1608,-1.1404,-1.1592,0.0,0.0,0.0,-1.0421,-1.1013,-1.2007,-1.3214,-1.3602,-1.4246,-1.4837,0.0,0.0,0.0,0.0,0.0,0.0,-0.9298,-0.8778,-0.827,-0.7992,-0.8303,0.0,0.0,0.0,0.0,0.0,0.0,0.0,0.0,0.0,0.0,0.0,0.0,0.0,0.0,0.0,0.0,0.0,0.0,0.0,0.0,0.0,0.0,0.0,0.0,0.0,0.0,0.0,0.0,0.0,0.0,0.0,-2.327,-2.4032,-2.4928,-2.5962,-2.7127,-2.7986,-2.8517,-2.9177,-2.9577,-2.976,-3.0216,-3.0668,-3.1172,-3.1172,-3.135,-3.1729,-3.2058,-3.2138,-3.2043,-3.2901,-3.3315,-3.354,-3.4234,-3.4619,-3.4775,-3.4775,-3.4775,-3.4775,-0.9534,-0.9415,-0.9346,-0.9346,-0.9065,-0.8706,-0.8314,-0.8078,-0.792,-0.7837,0.0,0.0,0.0,0.0,0.0,-0.7874,-0.7698,-0.7503,-0.7226,-0.7086,0.0,0.0,0.0,0.0,0.0,0.0,0.0,0.0,0.0,0.0,0.0,0.0,-1.0516,-1.1762,-1.0468,-1.0478,-1.1475,0.0,-1.1781,-1.1663,0.0,-1.3474,-1.3555,0.0,0.0,0.0,-1.6882,-1.6566,0.0,-1.475,0.0,0.0,-1.1728,-1.0132,-0.8363,-0.804,-0.8182,0.0,0.0,0.0,0.0,0.0,0.0,0.0,0.0,0.0,0.0,0.0,0.0,0.0,0.0,0.0,0.0,0.0,0.0,0.0,0.0,0.0,0.0,0.0,0.0,0.0,0.0,0.0,0.0,0.0,-2.3996,-2.395,-2.395,-2.4006,-2.4706,-2.619,-2.7358,-2.7969,-2.8014,-2.9,-2.9738,-3.0193,-3.0713,-3.1217,-3.1705,-3.1705,-3.1705,-3.1705,-3.1705,-3.2018,-3.2515,-3.3044,-3.3549,-3.3946,-3.3982,-3.4306,-3.4763,-3.4775,-3.4775,-3.4775,-1.0075,-1.0167,-1.0232,-1.0232,-0.9961,-0.9624,-0.9271,-0.9165,-0.8981,0.0,0.0,0.0,-0.8534,-0.8756,-0.8875,-0.8747,-0.8306,-0.7872,-0.7512,-0.7088,-0.6863,-0.6863,-0.748,-0.768,-0.7403,-0.8122,-0.8193,-0.7541,-0.8199,-0.8415,-0.8174,-0.8729,-0.9414,-1.0159,-0.9877,-0.9929,-1.0189,-1.013,0.0,-1.231,-1.2476,-1.3937,0.0,0.0,0.0,0.0,0.0,-1.7803,-1.7099,0.0,-1.5358,-1.3821,0.0,-1.0408,-0.9103,-0.9001,-0.9228,-0.9439,-0.9303,0.0,0.0,0.0,0.0,0.0,0.0,0.0,0.0,0.0,0.0,0.0,0.0,0.0,0.0,0.0,0.0,0.0,0.0,0.0,0.0,0.0,0.0,0.0,0.0,0.0,0.0,0.0,-2.3397,-2.314,-2.314,-2.3904,-2.5155,-2.6939,-2.7313,-2.7645,-2.7999,-2.9013,-2.9721,-3.0199,-3.1083,-3.1572,-3.1705,-3.1705,-3.1705,-3.1705,-3.1705,-3.1801,-3.1982,-3.2491,-3.2803,-3.3008,-3.3706,-3.4078,-3.4258,-3.4643,-3.4775,-3.4775,-1.0642,-1.0653,-1.0761,-1.0937,-1.0697,-1.0396,-1.0141,-1.0056,-0.9878,0.0,0.0,0.0,-0.953,-0.987,-0.9907,-0.94,-0.9021,-0.8504,-0.7741,-0.7386,-0.7145,-0.6969,-0.7725,-0.8061,-0.7864,-0.8683,-0.8748,-0.7972,-0.8241,-0.8173,-0.7799,-0.8009,-0.8494,-0.9159,-0.9165,-0.9475,-0.9993,-0.9518,0.0,0.0,-1.3183,0.0,0.0,-1.7564,-1.8612,0.0,0.0,0.0,-1.8602,-1.8342,-1.7059,0.0,0.0,-1.1503,-1.078,-0.9706,-0.9955,-1.0431,-0.9779,-1.0145,0.0,0.0,0.0,0.0,0.0,-1.4385,0.0,0.0,0.0,0.0,0.0,0.0,0.0,0.0,0.0,0.0,0.0,0.0,0.0,0.0,0.0,0.0,0.0,-2.3647,-2.3377,-2.3757,-2.342,-2.3343,-2.3657,-2.4594,-2.5678,-2.6908,-2.7172,-2.7488,-2.7951,-2.8971,-2.9596,-2.9879,-3.0866,-3.138,-3.138,-3.1609,-3.1705,-3.1705,-3.1705,-3.1705,-3.1729,-3.2066,-3.2286,-3.2563,-3.3164,-3.361,-3.403,-3.4342,-3.4595,-3.4775,0.0,-1.1046,-1.1069,-1.1463,-1.1318,-1.1086,-1.0933,-1.0811,-1.0676,0.0,-1.0422,-1.0612,-1.1122,-1.1412,-1.1122,-1.0061,-0.985,-0.927,-0.8083,-0.7928,-0.7725,-0.7366,-0.8132,-0.8562,-0.8562,-0.9308,-0.9317,-0.8562,-0.8351,-0.8014,-0.7611,-0.7436,-0.7861,-0.8733,-0.8536,-0.9183,-1.0396,-0.9672,-0.9886,-1.1015,-1.4369,-1.5514,0.0,0.0,-1.9745,-1.9174,-2.0147,-2.0312,-2.0077,-2.0021,-1.8513,0.0,0.0,-1.3241,-1.2984,-1.059,-1.0795,0.0,-1.0594,-1.084,-1.1483,-1.1953,-1.1797,0.0,-1.3845,-1.3994,-1.429,0.0,0.0,0.0,0.0,0.0,0.0,0.0,0.0,0.0,0.0,0.0,0.0,0.0,0.0,0.0,-2.4594,-2.4155,-2.3757,-2.3714,-2.3757,-2.4102,-2.4861,-2.5506,-2.6041,-2.6487,-2.7018,-2.7507,-2.7916,-2.8834,-2.9346,-2.94,-3.036,-3.0819,-3.0934,-3.1404,-3.1657,-3.1705,-3.1705,-3.1705,-3.1705,-3.1705,-3.1961,-3.2418,-3.2478,-3.3068,-3.3826,-3.3886,-3.4246,-3.4691,-1.1531,-1.1687,-1.1832,-1.182,-1.1907,-1.1914,-1.1704,-1.166,-1.1551,-1.1221,-1.1243,-1.1678,-1.2735,-1.233,-1.1889,-1.1651,-1.0741,-0.9942,-0.9362,-0.8729,-0.8324,-0.8242,-0.8719,-0.8977,-0.8977,-0.9465,-0.9455,-0.8977,-0.8619,-0.84,-0.8301,-0.789,-0.8178,-0.9013,-0.8752,-0.9151,-1.003,-1.0294,0.0,-1.2278,-1.3377,0.0,-1.803,-1.8789,-1.9964,-2.1092,-2.0998,-2.1142,-2.1251,-2.0607,-1.9294,-1.7691,0.0,-1.54,-1.4765,-1.3287,-1.3287,-1.3644,-1.3112,-1.3297,-1.3438,-1.2621,0.0,0.0,-1.2632,-1.3192,-1.4109,0.0,0.0,0.0,0.0,0.0,0.0,0.0,0.0,0.0,0.0,0.0,0.0,0.0,0.0,0.0,-2.3232,-2.3551,-2.3594,-2.3057,-2.3507,-2.4102,-2.4861,-2.5348,-2.5841,-2.6487,-2.696,-2.7428,-2.7912,-2.8486,-2.8941,-2.9337,-2.9947,-3.0458,-3.0922,-3.1031,-3.1308,-3.1705,-3.1705,-3.1705,-3.1705,-3.1705,-3.1765,-3.191,-3.2322,-3.2623,-3.2851,-3.3284,-3.3753,-3.415,-1.2174,-1.2419,-1.2655,-1.2685,-1.2788,-1.2851,-1.2843,-1.2528,-1.2387,-1.2614,-1.2856,-1.3075,-1.3277,-1.2929,-1.2551,-1.2138,-1.1366,-1.0557,-0.9758,-0.9317,-0.8922,-0.8516,-0.8875,-0.9106,-0.9106,-0.9482,-0.9501,-0.9106,-0.8691,-0.838,-0.8152,-0.7917,-0.8263,-0.9096,-0.9175,-0.9767,-1.0723,0.0,-1.1691,-1.3082,-1.4588,0.0,-1.8624,-1.9814,-2.0853,-2.1668,-2.1449,-2.1513,-2.154,-2.0525,-1.9702,0.0,-1.7279,-1.6947,-1.6732,0.0,-1.481,-1.5197,-1.4217,-1.4094,-1.4155,-1.3752,0.0,0.0,0.0,-1.3348,-1.3747,-1.4632,0.0,0.0,0.0,0.0,0.0,0.0,0.0,0.0,0.0,0.0,0.0,0.0,0.0,0.0,-2.251,-2.3292,-2.3671,-2.3343,-2.394,-2.4509,-2.4861,-2.56,-2.6257,-2.6805,-2.7319,-2.7748,-2.8191,-2.8441,-2.8652,-2.8919,-2.9436,-2.9833,-3.011,-3.0639,-3.1067,-3.1332,-3.1585,-3.1705,-3.1705,-3.1705,-3.1705,-3.1741,-3.2018,-3.225,-3.2527,-3.2803,-3.3224,-3.3705,-1.2656,-1.2948,-1.3248,-1.339,-1.3453,-1.3603,-1.3831,-1.3262,-1.3103,-1.3917,-1.4563,-1.4689,-1.4119,-1.4129,-1.4004,-1.3561,-1.2794,-1.1901,-1.0901,-1.0479,-0.9861,-0.8995,-0.9198,-0.9327,-0.9327,-0.9565,-0.9537,-0.9207,-0.8737,-0.8352,-0.8054,-0.7972,-0.8382,-0.9235,-0.9802,0.0,0.0,0.0,0.0,-1.4471,0.0,-1.7569,-1.8172,-2.0618,-2.1558,-2.1586,-2.1826,-2.1909,-2.1752,-2.0512,-2.0113,-1.9847,-1.8066,-1.8214,0.0,0.0,0.0,0.0,0.0,0.0,-1.5134,0.0,0.0,-1.4663,0.0,0.0,0.0,-1.4989,0.0,0.0,0.0,0.0,0.0,0.0,0.0,0.0,0.0,0.0,0.0,0.0,0.0,0.0,-2.1773,-2.2393,-2.3053,-2.3649,-2.3915,-2.4357,-2.5062,-2.5946,-2.6693,-2.7185,-2.7748,-2.8163,-2.851,-2.851,-2.851,-2.8522,-2.8943,-2.9208,-2.9328,-3.0182,-3.0687,-3.0946,-3.1368,-3.1609,-3.1705,-3.1705,-3.1705,-3.1705,-3.1705,-3.1982,-3.2346,-3.2346,-3.2683,-3.3188,-1.2467,-1.2844,-1.3171,-1.306,-1.3292,-1.3648,-1.4077,-1.3576,-1.3441,-1.4312,-1.5595,-1.6536,-1.6735,-1.7142,-1.7718,-1.8585,-1.6545,-1.5145,-1.4928,-1.3249,-1.1792,-1.0674,-1.0339,-1.0153,-1.0153,-0.9859,-0.9684,-0.9629,-0.8875,-0.8655,-0.8949,-0.859,-0.8848,-0.9677,-1.0855,0.0,0.0,0.0,-1.4984,0.0,-1.8232,-1.7609,0.0,-1.9906,-2.1082,-2.1236,-2.2303,-2.2671,-2.2497,0.0,-2.097,-2.075,0.0,-1.961,-1.9948,-1.8254,0.0,0.0,0.0,0.0,0.0,0.0,-1.7123,0.0,0.0,0.0,-1.5034,-1.3827,0.0,0.0,0.0,0.0,0.0,0.0,0.0,0.0,0.0,0.0,0.0,0.0,0.0,0.0,0.0,-1.9647,-2.0393,-2.3064,-2.1818,-2.2321,-2.5588,-2.6082,-2.6517,-2.7185,-2.8018,-2.8431,-2.851,-2.851,-2.851,-2.851,-2.857,-2.8847,-2.9304,-2.9424,-2.9989,-3.0922,-3.0983,-3.1271,-3.1705,-3.1705,-3.1705,-3.1705,-3.1705,-3.1753,-3.1801,-3.1801,-3.2118,-3.2599,-1.2591,-1.313,-1.3446,-1.2969,-1.3455,-1.3898,-1.3912,-1.5058,-1.5693,-1.5042,-1.6584,-1.7678,-1.7494,0.0,0.0,0.0,0.0,-1.651,0.0,-1.4466,-1.3184,-1.1661,-1.1002,-1.0652,-1.0652,-1.0245,-0.9932,-0.9703,-0.9133,-0.8931,0.0,0.0,-0.962,-1.045,-1.2012,0.0,-1.4258,0.0,-1.5148,0.0,0.0,0.0,0.0,-2.1056,-2.2631,-2.27,-2.3179,-2.3377,-2.3235,0.0,-2.169,0.0,0.0,0.0,0.0,-1.9861,0.0,0.0,0.0,0.0,0.0,0.0,0.0,0.0,-1.5269,0.0,-1.4643,0.0,0.0,0.0,0.0,0.0,0.0,0.0,0.0,0.0,0.0,0.0,0.0,0.0,0.0,0.0,0.0,0.0,0.0,0.0,-2.0936,-2.1563,-2.3856,-2.5499,-2.6644,-2.7174,-2.8059,-2.851,-2.851,-2.851,-2.851,-2.851,-2.851,-2.8631,-2.8847,-2.916,-2.9713,-3.0434,-3.0735,-3.1211,-3.1705,-3.1705,-3.1705,-3.1705,-3.1705,-3.1705,-3.1705,-3.1705,-3.1862,-3.2058,-1.3107,0.0,0.0,-1.3209,-1.3771,-1.4236,-1.4136,-1.6036,-1.7197,-1.6337,-1.7774,-1.8844,-1.8682,-1.8408,0.0,0.0,-1.9891,-1.9084,0.0,0.0,-1.5312,-1.3776,-1.245,-1.1759,-1.1759,-1.1145,-1.0501,-0.9859,-0.9465,-0.9262,0.0,0.0,-1.0125,-1.0988,0.0,-1.4436,-1.5752,0.0,0.0,-1.7682,-1.8248,-1.8929,-1.9886,-2.2562,-2.3988,-2.452,-2.4231,-2.4102,-2.3947,-2.306,-2.2436,0.0,-2.2461,0.0,-2.0879,0.0,0.0,0.0,-1.9171,0.0,0.0,0.0,0.0,0.0,0.0,0.0,0.0,0.0,0.0,0.0,0.0,0.0,0.0,0.0,0.0,-1.3791,0.0,0.0,0.0,0.0,0.0,0.0,0.0,0.0,0.0,0.0,0.0,-2.0589,-2.2918,-2.4948,-2.6451,-2.7377,-2.8099,-2.851,-2.851,-2.851,-2.851,-2.851,-2.851,-2.851,-2.8522,-2.8907,-2.9364,-2.9893,-3.0477,-3.1007,-3.15,-3.1645,-3.1705,-3.1705,-3.1705,-3.1705,-3.1705,-3.1705,-3.1705,-3.1765,-1.4144,-1.4265,0.0,0.0,0.0,-1.4635,-1.5067,-1.5955,-1.6994,-1.8312,-1.9291,0.0,0.0,0.0,0.0,0.0,0.0,-2.4032,-2.3387,0.0,-1.8674,-1.7749,-1.5332,-1.3972,-1.3901,-1.275,-1.1522,-1.0272,-0.9877,0.0,0.0,0.0,0.0,0.0,-1.3055,-1.4983,-1.6701,-1.7552,-1.9998,-2.3308,-2.301,-2.4502,-2.6593,0.0,-2.4429,-2.6279,-2.5232,0.0,0.0,-2.354,-2.3168,0.0,0.0,0.0,0.0,0.0,0.0,0.0,0.0,0.0,0.0,-1.7693,0.0,0.0,0.0,0.0,-1.6028,0.0,0.0,0.0,0.0,-1.5322,-1.479,-1.4011,-1.3911,0.0,0.0,0.0,0.0,0.0,0.0,0.0,0.0,0.0,0.0,0.0,-1.76,0.0,-2.3989,-2.4568,-2.5735,-2.7805,-2.8271,-2.851,-2.851,-2.851,-2.851,-2.851,-2.851,-2.851,-2.851,-2.8522,-2.8823,-2.9352,-2.9881,-3.041,-3.0983,-3.15,-3.1705,-3.1705,-3.1705,-3.1705,-3.1705,-3.1705,-3.1705,-3.1705,0.0,0.0,0.0,0.0,0.0,-1.5041,-1.6278,-1.8024,-1.9603,0.0,-2.1682,0.0,0.0,-2.3615,-2.4242,0.0,0.0,-2.507,-2.4055,-2.2489,0.0,-2.0303,-1.8278,-1.6896,0.0,-1.4737,-1.3129,-1.1573,0.0,0.0,0.0,0.0,0.0,0.0,0.0,-1.5486,0.0,0.0,0.0,0.0,0.0,-2.4977,-2.7087,0.0,-2.6282,-2.694,-2.6558,-2.6434,0.0,-2.5986,-2.5371,-2.4897,-2.5469,-2.4727,-2.3796,-2.4422,-2.4145,-2.354,0.0,0.0,-2.345,-2.0061,0.0,0.0,0.0,0.0,0.0,0.0,0.0,0.0,0.0,-1.5368,-1.4928,-1.4387,-1.3846,-1.3286,0.0,0.0,0.0,0.0,0.0,0.0,0.0,0.0,0.0,0.0,-1.7285,0.0,0.0,-2.4271,-2.6019,-2.7328,-2.8132,-2.851,-2.851,-2.851,-2.851,-2.851,-2.851,-2.851,-2.851,-2.851,-2.8799,-2.9304,-2.9484,-3.0062,-3.0891,-3.1115,-3.1392,-3.1705,-3.1705,-3.1705,-3.1705,-3.1705,-3.1705,-3.1705,-1.4835,0.0,0.0,0.0,0.0,0.0,-1.7773,-1.9789,0.0,0.0,-2.3313,0.0,-2.4836,0.0,-2.5123,0.0,-2.6668,-2.6391,-2.523,-2.4318,0.0,-2.2876,-2.1137,-1.9859,0.0,0.0,0.0,0.0,0.0,-1.1454,0.0,0.0,0.0,0.0,0.0,0.0,-1.804,0.0,-2.1293,0.0,0.0,-2.617,0.0,0.0,-2.747,-2.7185,0.0,-2.7185,-2.7185,-2.7185,-2.6753,-2.6294,-2.6989,-2.6219,-2.5227,-2.5963,-2.5668,-2.5007,-2.4632,-2.5018,0.0,-2.1968,-2.1356,0.0,-1.7685,0.0,-1.7564,0.0,0.0,0.0,0.0,-1.6717,-1.5522,-1.5524,-1.441,-1.3259,0.0,-1.2487,0.0,0.0,0.0,0.0,0.0,0.0,-1.4304,-1.5395,-1.6498,0.0,0.0,-2.3657,-2.5697,-2.7242,-2.8076,-2.851,-2.851,-2.851,-2.851,-2.851,-2.851,-2.851,-2.851,-2.851,-2.8703,-2.9027,-2.922,-2.9797,-3.0645,-3.0838,-3.1235,-3.1705,-3.1705,-3.1705,-3.1705,-3.1705,-3.1705,-3.1705,0.0,0.0,0.0,0.0,-1.6406,0.0,0.0,0.0,-2.2703,0.0,-2.4348,-2.4642,-2.5543,-2.6086,-2.656,-2.6928,-2.7945,-2.815,-2.7078,-2.629,0.0,0.0,-2.3931,-2.2829,-2.2195,0.0,0.0,0.0,0.0,0.0,0.0,0.0,0.0,0.0,-1.3764,0.0,-1.8924,-2.1128,-2.3766,-2.6559,-2.7561,-2.8163,-2.8471,-2.8471,-2.7966,-2.7226,-2.7267,-2.7267,-2.7267,-2.7267,-2.7267,-2.7267,-2.7267,-2.7267,-2.7267,-2.7267,-2.7267,-2.703,-2.6015,-2.5759,-2.5282,-2.3335,-2.283,0.0,0.0,0.0,-2.0453,0.0,0.0,0.0,0.0,0.0,-1.6661,-1.721,-1.5389,-1.3497,0.0,0.0,0.0,0.0,0.0,0.0,0.0,0.0,-1.3396,-1.4928,-1.5218,0.0,0.0,-2.2631,-2.4771,-2.7507,-2.821,-2.851,-2.851,-2.851,-2.851,-2.851,-2.851,-2.851,-2.851,-2.851,-2.851,-2.8546,-2.9039,-2.9581,-3.0122,-3.0627,-3.1211,-3.1705,-3.1705,-3.1705,-3.1705,-3.1705,-3.1705,-3.1705,-1.6403,-1.7351,-1.836,0.0,-1.8632,-1.9076,0.0,0.0,0.0,0.0,-2.7123,-2.7766,-2.8793,-2.9035,-2.9124,-2.9225,-2.9511,0.0,0.0,0.0,0.0,-2.7693,-2.6521,-2.5527,-2.4754,-2.2063,-1.9689,-1.7777,0.0,0.0,-1.3278,0.0,0.0,0.0,0.0,0.0,-1.8837,-2.0445,-2.3603,-2.7561,-2.8103,-2.8243,-2.8082,0.0,-2.8191,-2.7748,-2.8059,-2.8179,-2.8179,-2.8179,-2.8179,-2.8179,-2.8179,-2.8179,-2.8179,-2.8179,-2.8179,-2.8103,-2.7841,-2.7766,-2.7366,-2.5694,-2.4842,-2.3962,0.0,0.0,0.0,0.0,0.0,0.0,0.0,0.0,0.0,-1.6432,-1.4872,-1.37,0.0,0.0,0.0,0.0,0.0,0.0,0.0,-1.3194,-1.3773,-1.4196,-1.5202,0.0,0.0,0.0,-2.4158,-2.6441,-2.7813,-2.851,-2.851,-2.851,-2.851,-2.851,-2.851,-2.851,-2.851,-2.851,-2.851,-2.8522,-2.8655,-2.9232,-3.0098,-3.0242,-3.0874,-3.1705,-3.1705,-3.1705,-3.1705,-3.1705,-3.1705,-3.1705,-1.7664,0.0,0.0,-2.1819,0.0,0.0,-2.3504,-2.416,0.0,-2.7426,-2.8186,0.0,-2.9328,-2.9809,-3.0086,-3.0086,-3.0086,0.0,-2.9328,0.0,0.0,-2.8534,-2.8162,-2.7531,-2.6588,-2.4167,0.0,-1.9845,0.0,0.0,-1.4098,0.0,0.0,0.0,0.0,-1.5941,0.0,-2.1618,-2.4705,-2.7592,-2.8255,-2.8351,0.0,-2.8391,-2.8351,-2.8203,-2.8431,-2.851,-2.851,-2.851,-2.851,-2.851,-2.851,-2.851,-2.851,-2.851,-2.851,-2.851,-2.851,-2.851,-2.8307,-2.7406,-2.6874,-2.6127,-2.4672,-2.4301,-2.4231,0.0,-2.3649,-2.3426,0.0,0.0,0.0,0.0,0.0,0.0,0.0,0.0,0.0,0.0,0.0,0.0,-1.2183,-1.2934,-1.3506,-1.3635,-1.4542,0.0,0.0,0.0,-2.3312,-2.5685,-2.732,-2.827,-2.851,-2.851,-2.851,-2.851,-2.851,-2.851,-2.851,-2.851,-2.851,-2.851,-2.851,-2.9112,-3.0086,-3.0086,-3.0711,-3.1705,-3.1705,-3.1705,-3.1705,-3.1705,-3.1705,-3.1705,0.0,0.0,0.0,0.0,0.0,0.0,0.0,-2.6166,0.0,-2.7885,0.0,-2.8919,-2.8919,-2.9737,-3.029,-3.029,0.0,-3.0074,-2.9544,-2.9941,-2.9749,-2.8763,-2.9088,-2.8871,-2.7906,-2.6073,-2.3897,0.0,-1.903,-1.6759,0.0,0.0,0.0,0.0,0.0,0.0,0.0,-2.3584,-2.6229,-2.7329,-2.816,-2.851,-2.851,-2.851,-2.851,-2.851,-2.851,-2.851,-2.851,-2.851,-2.851,-2.851,-2.851,-2.851,-2.851,-2.851,-2.851,-2.851,-2.851,-2.851,-2.851,-2.851,-2.851,-2.8179,-2.6937,-2.6317,-2.6113,-2.6559,-2.4979,-2.4426,-2.7526,0.0,0.0,0.0,0.0,0.0,0.0,0.0,0.0,0.0,0.0,0.0,0.0,-1.2681,-1.3041,-1.3213,-1.3562,0.0,0.0,0.0,-2.2306,-2.5193,-2.6777,-2.7909,-2.8498,-2.851,-2.851,-2.851,-2.851,-2.851,-2.851,-2.851,-2.851,-2.851,-2.851,-2.9076,-2.9989,-3.0062,-3.0711,-3.1705,-3.1705,-3.1705,-3.1705,-3.1705,-3.1705,-3.1705,0.0,0.0,0.0,0.0,0.0,-2.7488,-2.845,-2.8306,-2.8462,-2.9532,-3.0506,-3.1151,-3.1151,-3.132,-3.1428,-3.1428,-3.1428,0.0,0.0,0.0,0.0,-2.9833,-2.9484,-2.9208,-2.9027,-2.6559,-2.4291,-2.2286,-1.972,-1.7453,-1.5543,0.0,0.0,0.0,0.0,0.0,-2.1655,-2.441,0.0,-2.8259,-2.8435,-2.851,-2.851,-2.851,-2.851,-2.851,-2.851,-2.851,-2.851,-2.851,-2.851,-2.851,-2.851,-2.851,-2.851,-2.851,-2.851,-2.851,-2.851,-2.851,-2.851,-2.851,-2.851,-2.8422,-2.8191,-2.8064,-2.8024,-2.8103,-2.779,-2.7219,-2.6275,0.0,0.0,0.0,0.0,0.0,0.0,0.0,0.0,0.0,0.0,0.0,0.0,-1.3167,-1.3093,-1.2827,0.0,0.0,0.0,0.0,-2.1031,0.0,-2.6417,0.0,0.0,0.0,-2.851,-2.851,-2.851,-2.851,-2.851,-2.851,-2.851,-2.851,-2.851,-2.8871,-2.9472,-2.9905,-3.0711,-3.1705,-3.1705,-3.1705,-3.1705,-3.1705,-3.1705,-3.1705,0.0,0.0,0.0,0.0,0.0,0.0,0.0,-2.9965,-3.0134,-3.0098,-3.053,-3.0886,-3.0886,-3.138,-3.1705,-3.1705,-3.1705,-3.1597,-3.1344,-3.1332,-3.1091,-3.0518,-3.0254,-2.9857,-2.9316,-2.7765,-2.5841,-2.3528,-2.1182,-1.8951,-1.6797,-1.5777,0.0,0.0,0.0,-1.9715,0.0,0.0,0.0,-2.7838,-2.8311,-2.851,-2.851,-2.851,-2.851,-2.851,-2.851,-2.851,-2.851,-2.851,-2.851,-2.851,-2.851,-2.851,-2.851,-2.851,-2.851,-2.851,-2.851,-2.851,-2.851,-2.851,-2.851,-2.851,-2.851,-2.851,-2.851,-2.851,-2.851,-2.7925,-2.5947,-2.422,0.0,0.0,0.0,0.0,0.0,0.0,0.0,0.0,0.0,0.0,0.0,0.0,0.0,0.0,0.0,0.0,0.0,0.0,-2.0432,0.0,0.0,0.0,-2.805,0.0,-2.851,-2.851,-2.851,-2.851,-2.851,-2.851,-2.851,-2.851,-2.851,-2.8811,-2.9364,-3.017,-3.0995,-3.1705,-3.1705,-3.1705,-3.1705,-3.1705,-3.1705,-3.1705,0.0,-2.7318,0.0,0.0,-2.9376,0.0,-3.0518,-3.1408,-3.1669,-3.0555,-3.0422,-3.0422,-3.0422,-3.1211,-3.1705,-3.1705,-3.1705,-3.1705,-3.1705,-3.1705,-3.1524,-3.1103,-3.0983,-3.0482,-2.9653,-2.8895,-2.7308,-2.4855,-2.2763,-2.0519,-1.8194,-1.6871,-1.6491,-1.7085,0.0,0.0,0.0,0.0,-2.6774,-2.7478,-2.8211,-2.851,-2.851,-2.851,-2.851,-2.851,-2.851,-2.851,-2.851,-2.851,-2.851,-2.851,-2.851,-2.851,-2.851,-2.851,-2.851,-2.851,-2.851,-2.851,-2.851,-2.851,-2.851,-2.851,-2.851,-2.851,-2.851,-2.851,-2.851,-2.7977,-2.619,-2.5365,0.0,0.0,0.0,0.0,0.0,0.0,0.0,0.0,0.0,0.0,-1.4374,0.0,0.0,0.0,0.0,0.0,-1.7111,0.0,0.0,0.0,0.0,-2.6454,-2.7498,0.0,-2.851,-2.851,-2.851,-2.851,-2.851,-2.851,-2.851,-2.851,-2.851,-2.8871,-2.9532,-3.0362,-3.1127,-3.1705,-3.1705,-3.1705,-3.1705,-3.1705,-3.1705,-3.1705,0.0,0.0,0.0,0.0,0.0,0.0,-3.219,-3.2767,-3.2743,-3.1705,-3.156,-3.156,-3.156,-3.1645,-3.1705,-3.1705,-3.1705,-3.1705,-3.1705,-3.1705,-3.1681,-3.1633,-3.1175,-3.0874,-3.0735,-2.9268,-2.7669,0.0,0.0,-2.174,0.0,-1.896,-1.9301,-2.0499,0.0,0.0,0.0,-2.6125,-2.7142,-2.8359,-2.8447,-2.851,-2.851,-2.851,-2.851,-2.851,-2.851,-2.851,-2.851,-2.851,-2.851,-2.851,-2.851,-2.851,-2.851,-2.851,-2.851,-2.851,-2.851,-2.851,-2.851,-2.851,-2.851,-2.851,-2.851,-2.851,-2.851,-2.851,-2.851,-2.8146,-2.7002,-2.7478,-2.7095,0.0,0.0,0.0,0.0,0.0,0.0,0.0,0.0,0.0,0.0,-1.4318,0.0,0.0,-1.3557,0.0,-1.6978,0.0,0.0,-2.3676,-2.4819,-2.5901,-2.6958,-2.8005,-2.851,-2.851,-2.851,-2.851,-2.851,-2.851,-2.851,-2.851,-2.851,-2.9088,-3.0025,-3.0122,-3.0802,-3.1705,-3.1705,-3.1705,-3.1705,-3.1705,-3.1705,-3.1705,0.0,0.0,0.0,0.0,0.0,0.0,0.0,-3.3152,-3.314,-3.2741,-3.2358,-3.2166,-3.2166,-3.191,-3.1705,-3.1705,-3.1705,-3.1705,-3.1705,-3.1705,-3.1705,-3.1705,-3.15,-3.1247,-3.0922,-3.0254,-2.8991,0.0,0.0,0.0,-2.1711,-2.0839,-2.1224,-2.2711,0.0,-2.5338,-2.6484,-2.732,-2.7996,-2.851,-2.851,-2.851,-2.851,-2.851,-2.851,-2.851,-2.851,-2.851,-2.851,-2.851,-2.851,-2.851,-2.851,-2.851,-2.851,-2.851,-2.851,-2.851,-2.851,-2.851,-2.851,-2.851,-2.851,-2.851,-2.851,-2.851,-2.851,-2.851,-2.851,-2.8378,-2.7957,-2.7666,-2.721,-2.6298,0.0,0.0,0.0,0.0,0.0,0.0,0.0,0.0,0.0,0.0,0.0,0.0,0.0,-1.3716,-1.6577,-1.7227,0.0,-2.225,0.0,-2.5673,-2.6418,-2.7813,-2.851,-2.851,-2.851,-2.851,-2.851,-2.851,-2.851,-2.851,-2.851,-2.9112,-3.0086,-3.0086,-3.0711,-3.1705,-3.1705,-3.1705,-3.1705,-3.1705,-3.1705,-3.1705,-3.2308,0.0,-3.1981,0.0,-3.2623,-3.2671,-3.3597,-3.3741,-3.3741,-3.3741,-3.3272,-3.2899,-3.2755,-3.2382,-3.2126,-3.197,-3.1958,-3.1886,-3.1717,-3.1705,-3.1705,-3.1705,-3.1705,0.0,-3.1151,-3.0995,-3.0146,-2.8655,-2.7031,0.0,-2.4121,-2.3051,-2.3316,0.0,-2.6178,-2.7115,-2.7654,-2.8595,-2.8979,-2.8979,-2.8979,-2.8979,-2.8979,-2.8979,-2.8979,-2.8979,-2.8979,-2.8979,-2.8955,-2.8799,-2.8739,-2.8715,-2.8558,-2.851,-2.851,-2.851,-2.851,-2.851,-2.851,-2.851,-2.851,-2.851,-2.851,-2.851,-2.851,-2.851,-2.851,-2.851,-2.851,-2.851,-2.851,-2.7738,-2.709,-2.7031,0.0,0.0,0.0,-2.358,0.0,0.0,-2.0442,-1.926,-1.8437,0.0,0.0,0.0,0.0,-1.4742,-1.6915,-1.75,0.0,0.0,0.0,0.0,-2.6334,-2.7777,-2.851,-2.851,-2.851,-2.851,-2.851,-2.851,-2.851,-2.851,-2.851,-2.9112,-3.0086,-3.0086,-3.0711,-3.1705,-3.1705,-3.1705,-3.1705,-3.1705,-3.1705,-3.1705,-3.2759,-3.2767,-3.3017,-3.3825,-3.397,-3.415,-3.4679,-3.4763,-3.4763,-3.4763,-3.4294,-3.3837,-3.3332,-3.3272,-3.3056,-3.2539,-3.2491,-3.2262,-3.1741,-3.1705,-3.1705,0.0,0.0,-3.1705,-3.1705,-3.1187,-3.091,-3.0874,0.0,0.0,-2.6825,-2.5733,-2.5841,-2.691,-2.8005,-2.8775,-2.9304,-2.9845,-3.0074,-3.0074,-3.0074,-3.0074,-3.0074,-3.0074,-3.0074,-3.0074,-3.0074,-3.0074,-2.9989,-2.946,-2.9292,-2.9196,-2.8679,-2.851,-2.851,-2.851,-2.851,-2.851,-2.851,-2.851,-2.851,-2.851,-2.851,-2.851,-2.851,-2.851,-2.851,-2.851,-2.851,-2.851,-2.851,-2.8077,-2.715,-2.56,0.0,0.0,0.0,-2.2666,0.0,-2.0827,-1.9672,-1.8999,-1.8987,0.0,0.0,0.0,0.0,-1.7969,-1.8255,-1.8988,0.0,-2.3685,-2.5264,0.0,-2.6885,-2.7942,-2.851,-2.851,-2.851,-2.851,-2.851,-2.851,-2.851,-2.851,-2.851,-2.9112,-3.0086,-3.0086,-3.0711,-3.1705,-3.1705,-3.1705,-3.1705,-3.1705,-3.1705,-3.1705,-3.4984,-3.4974,-3.4991,-3.5063,-3.5064,-3.5077,-3.5042,-3.5223,-3.5223,-3.4823,-3.4824,-3.4715,-3.4354,-3.3717,-3.3224,0.0,-3.3044,-3.2959,0.0,-3.243,-3.2238,-3.2238,-3.191,-3.1705,-3.1705,-3.1536,-3.1284,-3.0922,0.0,0.0,0.0,-2.8198,-2.8402,-2.91,-2.9436,-2.9677,-2.9845,-3.0013,-3.0086,-3.0086,-3.0086,-3.0086,-3.0086,-3.0086,-3.0086,-3.0086,-3.0086,-3.0086,-3.0062,-2.9893,-2.9833,-2.9809,-2.9641,-2.9088,-2.851,-2.851,-2.851,-2.851,-2.851,-2.851,-2.851,-2.851,-2.851,-2.851,-2.851,-2.851,-2.851,-2.851,-2.851,-2.851,-2.851,-2.8077,-2.739,-2.6513,-2.6238,0.0,-2.3565,0.0,-2.2654,-2.1789,-2.0742,-2.0237,-2.0598,-1.9819,0.0,0.0,0.0,0.0,0.0,0.0,0.0,0.0,-2.5276,0.0,-2.6898,-2.7942,-2.851,-2.851,-2.851,-2.851,-2.851,-2.851,-2.851,-2.851,-2.851,-2.8907,-2.9581,-2.9941,-3.0494,-3.1199,-3.1573,-3.1705,-3.1705,-3.1705,-3.1705,-3.1705,-3.6063,-3.6015,-3.592,-3.5668,-3.562,-3.5512,-3.538,-3.5464,-3.5476,-3.5126,-3.5223,-3.5271,-3.5126,-3.4544,0.0,-3.3585,-3.3573,-3.3489,-3.3308,-3.2984,-3.2803,-3.2803,-3.2274,-3.2018,-3.2018,-3.1813,0.0,-3.1211,-3.0639,-3.0218,-2.9893,-2.9689,-2.9773,-3.0098,-3.029,-3.0386,-3.0398,-3.0633,-3.0718,-3.0718,-3.0718,-3.0718,-3.0718,-3.0718,-3.0718,-3.0718,-3.0718,-3.0718,-3.0694,-3.0446,-3.0386,-3.035,-3.0146,-2.9641,-2.91,-2.91,-2.8967,-2.8811,-2.8811,-2.8655,-2.851,-2.851,-2.851,-2.851,-2.851,-2.851,-2.851,-2.851,-2.851,-2.851,-2.851,-2.7921,-2.7282,-2.6946,-2.6298,-2.5324,-2.3998,0.0,-2.3035,0.0,0.0,0.0,0.0,-2.144,-2.1055,0.0,0.0,0.0,0.0,0.0,-2.2448,-2.364,-2.5949,-2.7294,-2.7486,-2.8186,-2.851,-2.851,-2.851,-2.851,-2.851,-2.851,-2.851,-2.851,-2.851,-2.8919,-2.9629,-2.9953,-3.0506,-3.1247,-3.1585,-3.1705,-3.1705,-3.1705,-3.1705,-3.1705,-3.6098,-3.6015,-3.5955,0.0,-3.5668,-3.5668,-3.562,-3.5668,-3.5668,-3.562,-3.562,-3.562,-3.562,-3.562,-3.522,-3.4186,0.0,0.0,-3.3475,-3.3415,-3.3391,-3.3391,-3.2839,-3.2563,-3.2563,-3.2054,-3.1753,-3.1705,-3.1211,-3.097,-3.0915,-3.0422,-3.0194,-3.0218,-3.0711,-3.097,-3.1007,-3.15,-3.1705,-3.1705,-3.1705,-3.1705,-3.1705,-3.1705,-3.1705,-3.1705,-3.1705,-3.1705,-3.1633,-3.1139,-3.097,-3.0886,-3.035,-3.0194,-3.0182,-3.011,-2.9737,-2.9352,-2.9304,-2.8943,-2.8558,-2.8522,-2.851,-2.851,-2.851,-2.851,-2.851,-2.851,-2.851,-2.851,-2.851,-2.7606,-2.6898,-2.6898,-2.5949,-2.4903,-2.3938,-2.3806,-2.3421,0.0,0.0,0.0,-2.2306,-2.2811,-2.3336,0.0,0.0,0.0,0.0,0.0,-2.3313,-2.6021,-2.7188,-2.8017,-2.851,-2.851,-2.851,-2.851,-2.851,-2.851,-2.851,-2.851,-2.851,-2.851,-2.851,-2.9088,-3.0037,-3.0074,-3.073,-3.1657,-3.1693,-3.1705,-3.1705,-3.1705,-3.1705,-3.1705,0.0,0.0,-3.6275,-3.6228,-3.6228,-3.6133,-3.5968,-3.6098,-3.6073,-3.5656,-3.5764,-3.5824,-3.562,-3.562,-3.5511,-3.5245,-3.5233,-3.5184,-3.5061,-3.4469,-3.4144,-3.4144,-3.3473,-3.3104,-3.3104,-3.2575,-3.2094,-3.1705,-3.1585,-3.1524,-3.1524,-3.1392,-3.1332,-3.1344,-3.1464,-3.1524,-3.1524,-3.1657,-3.1705,-3.1705,-3.1705,-3.1705,-3.1705,-3.1705,-3.1705,-3.1705,-3.1705,-3.1705,-3.1693,-3.156,-3.1524,-3.15,-3.138,-3.1332,-3.1175,-3.0326,-3.0001,-2.9809,-2.9412,-2.9208,-2.9015,-2.8607,-2.851,-2.851,-2.851,-2.851,-2.851,-2.851,-2.851,-2.851,-2.851,-2.7606,-2.6898,-2.6898,-2.5649,-2.4494,-2.389,-2.3806,-2.3553,0.0,-2.3496,-2.3821,-2.3469,-2.423,-2.4314,0.0,0.0,-2.4616,-2.4496,-2.4857,-2.5373,-2.6081,-2.7548,-2.8378,-2.851,-2.851,-2.851,-2.851,-2.851,-2.851,-2.851,-2.851,-2.851,-2.851,-2.851,-2.8883,-2.952,-2.9917,-3.047,-3.1151,-3.1548,-3.1705,-3.1705,-3.1705,-3.1705,-3.1705,-3.7129,-3.6675,-3.6405,-3.6405,-3.6405,-3.637,-3.6181,-3.6323,-3.631,-3.5991,-3.6086,-3.6146,-3.5991,-3.5991,-3.5991,-3.5991,-3.5764,-3.562,-3.562,-3.5195,-3.494,-3.494,-3.4193,-3.382,-3.382,-3.3174,-3.2587,-3.209,-3.209,-3.1958,-3.1705,-3.1705,-3.1705,-3.1705,-3.1705,-3.1705,-3.1705,-3.1705,-3.1705,-3.1705,-3.1705,-3.1705,-3.1705,-3.1705,-3.1705,-3.1705,-3.1705,-3.1705,-3.1705,-3.1705,-3.1705,-3.1705,-3.1705,-3.1705,-3.1597,-3.1019,-3.0639,-3.0386,-3.0098,-2.9665,-2.9172,-2.8643,-2.851,-2.851,-2.851,-2.851,-2.851,-2.851,-2.851,-2.851,-2.851,-2.7606,-2.6813,-2.6549,-2.5612,-2.4626,-2.3914,-2.3965,-2.4097,-2.4049,-2.4542,-2.4975,-2.5192,-2.5721,-2.5661,-2.4855,-2.5528,0.0,-2.5601,-2.6622,-2.7091,-2.6851,-2.7921,-2.851,-2.851,-2.851,-2.851,-2.851,-2.851,-2.851,-2.851,-2.851,-2.851,-2.851,-2.851,-2.8811,-2.934,-2.9869,-3.0398,-3.0927,-3.15,-3.1705,-3.1705,-3.1705,-3.1705,-3.1705,-3.7808,-3.7036,-3.6405,-3.6405,-3.6405,-3.6405,-3.6405,-3.6405,-3.6405,-3.6405,-3.6405,-3.6405,-3.6405,-3.6405,-3.6405,-3.6405,-3.5991,-3.5704,-3.5704,-3.5668,-3.5668,-3.5668,-3.494,-3.4495,-3.4495,-3.381,-3.314,-3.2623,-3.2623,-3.2334,-3.1837,-3.1837,-3.1789,-3.1705,-3.1705,-3.1705,-3.1705,-3.1705,-3.1705,-3.1705,-3.1705,-3.1705,-3.1705,-3.1705,-3.1705,-3.1705,-3.1705,-3.1705,-3.1705,-3.1705,-3.1705,-3.1705,-3.1705,-3.1705,-3.1705,-3.1705,-3.1392,-3.1019,-3.0946,-3.011,-2.9184,-2.8739,-2.857,-2.851,-2.851,-2.851,-2.851,-2.851,-2.851,-2.851,-2.851,-2.7606,-2.6717,-2.619,-2.5588,-2.4855,-2.3938,0.0,-2.4807,-2.5252,-2.5528,-2.6009,-2.6813,-2.697,-2.7018,-2.7018,-2.7426,-2.7522,-2.715,-2.8029,-2.8306,-2.7861,-2.827,-2.851,-2.851,-2.851,-2.851,-2.851,-2.851,-2.851,-2.851,-2.851,-2.851,-2.851,-2.851,-2.8811,-2.934,-2.9869,-3.0398,-3.0927,-3.15,-3.1705,-3.1705,-3.1705,-3.1705,-3.1705,-3.7933,-3.7036,-3.6405,-3.6405,-3.6405,-3.6405,-3.6405,-3.6405,-3.6405,-3.6405,-3.6405,-3.6405,-3.6405,-3.6405,-3.6405,-3.6405,-3.631,-3.6275,-3.6275,-3.6051,-3.592,-3.592,-3.5391,-3.5101,-3.5101,-3.4293,-3.3681,-3.3164,-3.3164,-3.2899,-3.237,-3.237,-3.2118,-3.1705,-3.1705,-3.1705,-3.1705,-3.1705,-3.1705,-3.1705,-3.1705,-3.1705,-3.1705,-3.1705,-3.1705,-3.1705,-3.1705,-3.1705,-3.1705,-3.1705,-3.1705,-3.1705,-3.1705,-3.1705,-3.1705,-3.1705,-3.1657,-3.1488,-3.1043,-3.011,-2.928,-2.9196,-2.8847,-2.851,-2.851,-2.851,-2.851,-2.851,-2.851,-2.851,-2.851,-2.7606,-2.6717,-2.619,-2.5276,-2.4434,-2.389,0.0,-2.5216,-2.53,-2.6514,-2.7198,-2.6922,-2.7294,-2.7596,-2.7596,-2.763,-2.7846,-2.8246,-2.8426,-2.8474,-2.839,-2.8474,-2.851,-2.851,-2.851,-2.851,-2.851,-2.851,-2.851,-2.851,-2.851,-2.851,-2.851,-2.851,-2.8811,-2.934,-2.9869,-3.0398,-3.0927,-3.15,-3.1705,-3.1705,-3.1705,-3.1705,-3.1705,-3.872,-3.7795,-3.6989,-3.6499,-3.6405,-3.6405,-3.6405,-3.6405,-3.6405,-3.6405,-3.6405,-3.6405,-3.6405,-3.6405,-3.6405,-3.6405,-3.6405,-3.6405,-3.6405,-3.6275,-3.6228,-3.6228,-3.5704,-3.5271,-3.4981,-3.4643,-3.4162,-3.3693,-3.3693,-3.3428,-3.2923,-3.2923,-3.2791,-3.2539,-3.2539,-3.2539,-3.2539,-3.2539,-3.2539,-3.2539,-3.2539,-3.2415,-3.2118,-3.2118,-3.1925,-3.1705,-3.1705,-3.1705,-3.1705,-3.1705,-3.1705,-3.1705,-3.1705,-3.1705,-3.1705,-3.1705,-3.1705,-3.1585,-3.1067,-3.0518,-3.0013,-2.9436,-2.9112,-2.8859,-2.857,-2.851,-2.851,-2.851,-2.851,-2.851,-2.851,-2.7846,-2.715,-2.6635,-2.5889,-2.5288,-2.5059,-2.5432,-2.5949,-2.6538,-2.7234,-2.7702,-2.7777,-2.8005,-2.815,-2.815,-2.815,-2.8246,-2.8498,-2.851,-2.851,-2.851,-2.851,-2.851,-2.851,-2.851,-2.851,-2.851,-2.851,-2.851,-2.851,-2.851,-2.851,-2.851,-2.851,-2.8655,-2.8919,-2.9448,-2.9977,-3.0506,-3.1079,-3.1452,-3.1705,-3.1705,-3.1705,-3.1705,-3.9373,-3.8419,-3.7487,-3.6546,-3.6405,-3.6405,-3.6405,-3.6405,-3.6405,-3.6405,-3.6405,-3.6405,-3.6405,-3.6405,-3.6405,-3.6405,-3.6405,-3.6405,-3.6405,-3.6405,-3.6358,-3.6323,-3.58,-3.5271,-3.4823,-3.4775,-3.4583,-3.4174,-3.4174,-3.397,-3.3464,-3.3464,-3.3404,-3.3284,-3.3284,-3.3284,-3.3284,-3.3284,-3.3284,-3.3284,-3.3284,-3.3044,-3.2683,-3.2683,-3.2418,-3.209,-3.209,-3.2006,-3.191,-3.191,-3.1813,-3.1705,-3.1705,-3.1705,-3.1705,-3.1705,-3.1705,-3.1621,-3.1211,-3.1007,-3.0651,-2.9713,-2.9388,-2.916,-2.8631,-2.851,-2.851,-2.851,-2.851,-2.851,-2.851,-2.8077,-2.751,-2.6982,0.0,-2.625,-2.6117,-2.631,-2.6791,-2.7582,-2.7798,-2.8065,-2.8474,-2.851,-2.851,-2.851,-2.851,-2.851,-2.851,-2.851,-2.851,-2.851,-2.851,-2.851,-2.851,-2.851,-2.851,-2.851,-2.851,-2.851,-2.851,-2.851,-2.851,-2.851,-2.851,-2.851,-2.8546,-2.9076,-2.9617,-3.0146,-3.0675,-3.1247,-3.1705,-3.1705,-3.1705,-3.1705,-3.9373,-3.8419,-3.7487,-3.6546,-3.6405,-3.6405,-3.6405,-3.6405,-3.6405,-3.6405,-3.6405,-3.6405,-3.6405,-3.6405,-3.6405,-3.6405,-3.6405,-3.6405,-3.6405,-3.6405,-3.6275,-3.6063,-3.5524,-3.5078,-3.4835,-3.4775,-3.4763,-3.4727,-3.4727,-3.445,-3.3934,-3.3934,-3.3729,-3.3284,-3.3284,-3.3284,-3.3284,-3.3284,-3.3284,-3.3284,-3.3284,-3.3272,-3.3236,-3.3236,-3.32,-3.3176,-3.3176,-3.2851,-3.2442,-3.2442,-3.2094,-3.1705,-3.1705,-3.1705,-3.1705,-3.1705,-3.1705,-3.1705,-3.1657,-3.1296,-3.0735,-3.017,-2.9665,-2.916,-2.8631,-2.851,-2.851,-2.851,-2.851,-2.851,-2.851,-2.8077,-2.751,-2.6982,0.0,0.0,-2.6178,-2.6971,-2.7594,-2.7678,-2.8162,-2.8474,-2.851,-2.851,-2.851,-2.851,-2.851,-2.851,-2.851,-2.851,-2.851,-2.851,-2.851,-2.851,-2.851,-2.851,-2.851,-2.851,-2.851,-2.851,-2.851,-2.851,-2.851,-2.851,-2.851,-2.851,-2.8546,-2.9076,-2.9617,-3.0146,-3.0675,-3.1247,-3.1705,-3.1705,-3.1705,-3.1705,-4.026,-3.9768,-3.9077,-3.7533,-3.7268,-3.7083,-3.6499,-3.6405,-3.6405,-3.6405,-3.6405,-3.6405,-3.6405,-3.6405,-3.6405,-3.6405,-3.6405,-3.6405,-3.6405,-3.6405,-3.6275,-3.6015,-3.5812,-3.5464,-3.5078,-3.5078,-3.4981,-3.4775,-3.4775,-3.4679,-3.4486,-3.4486,-3.4378,-3.4246,-3.4246,-3.4246,-3.4246,-3.4246,-3.4246,-3.4246,-3.4246,-3.4042,-3.3753,-3.3753,-3.3561,-3.3284,-3.3284,-3.3164,-3.2996,-3.2996,-3.2635,-3.2178,-3.2178,-3.1994,-3.1705,-3.1705,-3.1705,-3.1705,-3.1705,-3.156,-3.1284,-3.0711,-3.0182,-2.9653,-2.9124,-2.8751,-2.851,-2.851,-2.851,-2.851,-2.851,-2.8342,-2.815,-2.7945,0.0,-2.7426,-2.7572,-2.7669,-2.7798,-2.8174,-2.839,-2.851,-2.851,-2.851,-2.851,-2.851,-2.851,-2.851,-2.851,-2.851,-2.851,-2.851,-2.851,-2.851,-2.851,-2.851,-2.851,-2.851,-2.851,-2.851,-2.851,-2.851,-2.851,-2.851,-2.851,-2.851,-2.8522,-2.8727,-2.9316,-3.011,-3.0302,-3.0946,-3.1705,-3.1705,-3.1705,-3.1705,-4.0788,-4.0603,-4.0116,-3.8509,-3.8251,-3.7933,-3.6989,-3.6862,-3.6722,-3.6452,-3.6405,-3.6405,-3.6405,-3.6405,-3.6499,-3.6815,-3.6593,-3.6546,-3.6815,-3.6862,-3.6593,-3.6015,-3.592,-3.5716,-3.532,-3.5332,-3.5223,-3.5078,-3.4981,-3.4932,-3.4932,-3.4823,-3.4775,-3.4775,-3.4872,-3.4884,-3.4835,-3.4872,-3.4884,-3.4823,-3.5066,-3.48,-3.4282,-3.4521,-3.4256,-3.3777,-3.3777,-3.3669,-3.3571,-3.3793,-3.3533,-3.3104,-3.3159,-3.2629,-3.2013,-3.2013,-3.1837,-3.1705,-3.1705,-3.1705,-3.1585,-3.1055,-3.0603,-3.0158,-2.946,-2.9015,-2.8703,-2.8546,-2.851,-2.851,-2.8578,-2.855,-2.851,-2.8578,-2.8237,-2.8089,-2.8462,-2.8198,-2.8102,-2.8474,-2.8657,-2.8697,-2.851,-2.8657,-2.8697,-2.851,-2.851,-2.851,-2.851,-2.851,-2.851,-2.851,-2.851,-2.851,-2.851,-2.851,-2.851,-2.851,-2.851,-2.851,-2.851,-2.851,-2.851,-2.851,-2.851,-2.851,-2.851,-2.851,-2.9039,-2.9857,-3.0025,-3.0627,-3.1476,-3.1645,-3.1705,-3.1705,-4.0831,-4.0603,-4.0346,-3.9373,-3.921,-3.8899,-3.7946,-3.7808,-3.75,-3.6546,-3.6405,-3.6405,-3.6405,-3.6405,-3.6815,-3.7717,-3.6956,-3.6815,-3.7763,-3.7808,-3.7268,-3.6063,-3.5764,-3.562,-3.562,-3.562,-3.562,-3.562,-3.532,-3.5223,-3.5223,-3.492,-3.4775,-3.4823,-3.5078,-3.5078,-3.4823,-3.5078,-3.5078,-3.4872,-3.5679,-3.5536,-3.492,-3.5679,-3.5488,-3.4823,-3.4823,-3.4499,-3.4137,-3.4972,-3.4844,-3.442,-3.4563,-3.3756,-3.2723,-3.2723,-3.2245,-3.1705,-3.1705,-3.1705,-3.1585,-3.1055,-3.0922,-3.0603,-2.9556,-2.9304,-2.9148,-2.8619,-2.851,-2.8538,-2.8764,-2.8657,-2.8578,-2.8764,-2.8618,-2.851,-2.851,-2.851,-2.851,-2.851,-2.904,-2.9184,-2.859,-2.904,-2.9157,-2.855,-2.851,-2.851,-2.851,-2.851,-2.851,-2.851,-2.851,-2.851,-2.851,-2.851,-2.851,-2.851,-2.851,-2.851,-2.851,-2.851,-2.851,-2.851,-2.851,-2.851,-2.851,-2.851,-2.8823,-2.9352,-2.9881,-3.041,-3.0983,-3.1512,-3.1705,-3.1705,-4.1717,-4.1675,-4.1353,-4.0346,-4.0159,-3.9855,-3.8944,-3.8765,-3.8675,-3.8405,-3.836,-3.836,-3.836,-3.836,-3.8496,-3.8765,-3.8541,-3.8496,-3.8765,-3.8765,-3.863,-3.827,-3.8179,-3.7723,-3.6871,-3.6871,-3.6427,-3.562,-3.5524,-3.5476,-3.5464,-3.5223,-3.5078,-3.5078,-3.5175,-3.5175,-3.5114,-3.6071,-3.6213,-3.5893,-3.6295,-3.6436,-3.6367,-3.6108,-3.6191,-3.6414,-3.6414,-3.6301,-3.6209,-3.6443,-3.6167,-3.5653,-3.5359,-3.4663,-3.3956,-3.3458,-3.3214,-3.2988,-3.2537,-3.2742,-3.2821,-3.1719,-3.1199,-3.0838,-3.0525,-2.9833,-2.9285,-2.9278,-2.8991,-2.8764,-2.8961,-2.8973,-2.8934,-2.9013,-2.8973,-2.9,-2.9289,-2.9328,-2.9445,-2.9716,-2.9909,-2.9947,-2.9793,-2.9947,-2.9793,-2.9197,-2.8736,-2.8657,-2.9118,-2.8736,-2.851,-2.851,-2.851,-2.851,-2.851,-2.851,-2.851,-2.851,-2.851,-2.851,-2.851,-2.851,-2.851,-2.851,-2.851,-2.851,-2.851,-2.851,-2.8823,-2.9352,-2.9881,-3.041,-3.0983,-3.1512,-3.1705,-3.1705,-4.2092,-4.2092,-4.1912,-4.1296,-4.1198,-4.0887,-3.9899,-3.9768,-3.9733,-3.9625,-3.9621,-3.9703,-3.992,-3.9743,-3.9755,-4.0096,-3.992,-3.9768,-3.9768,-3.9768,-3.9913,-4.0331,-4.0331,-3.9664,-3.8134,-3.8134,-3.7769,-3.701,-3.6905,-3.6858,-3.6858,-3.6611,-3.6295,-3.5941,-3.6389,-3.6342,-3.5988,-3.7191,-3.7514,-3.7191,-3.7606,-3.7697,-3.7573,-3.7289,-3.7243,-3.7368,-3.715,-3.7103,-3.715,-3.7441,-3.7339,-3.7072,-3.6775,-3.6162,-3.5465,-3.461,-3.4345,-3.4194,-3.3496,-3.3645,-3.3814,-3.3164,-3.2339,-3.1681,-3.1473,-3.0796,-3.0202,-3.0082,-2.9862,-2.9756,-2.9965,-3.0048,-3.0088,-3.0165,-2.9986,-2.9896,-3.0152,-3.0037,-3.0012,-3.0279,-3.0507,-3.0545,-3.0317,-3.0507,-3.0406,-2.9793,-2.9419,-2.9263,-2.938,-2.904,-2.8736,-2.851,-2.851,-2.851,-2.851,-2.851,-2.851,-2.851,-2.851,-2.851,-2.851,-2.851,-2.851,-2.851,-2.851,-2.851,-2.851,-2.851,-2.8703,-2.9039,-2.9569,-3.0098,-3.0627,-3.1199,-3.1524,-3.1705,-4.2092,-4.2092,-4.2092,-4.2092,-4.2136,-4.1886,-4.0944,-4.0858,-4.081,-4.0552,-4.0531,-4.0736,-4.1288,-4.0836,-4.0807,-4.1646,-4.1112,-4.0731,-4.0731,-4.0731,-4.1156,-4.2051,-4.2092,-4.1283,-3.9519,-3.9387,-3.9285,-3.921,-3.8961,-3.8859,-3.8814,-3.8564,-3.7977,-3.7191,-3.8307,-3.8185,-3.7237,-3.8442,-3.8801,-3.8595,-3.9343,-3.9241,-3.8653,-3.8868,-3.8612,-3.7984,-3.7599,-3.7428,-3.752,-3.8141,-3.8439,-3.8534,-3.8534,-3.8,-3.7165,-3.6175,-3.5725,-3.5373,-3.4695,-3.4553,-3.4637,-3.5061,-3.422,-3.3148,-3.26,-3.2139,-3.1725,-3.1232,-3.1253,-3.1371,-3.1539,-3.1578,-3.1676,-3.1796,-3.1378,-3.1007,-3.1007,-3.0683,-3.0469,-3.0482,-3.0972,-3.1084,-3.0507,-3.0921,-3.0996,-3.0507,-3.0355,-3.0088,-2.96,-2.9457,-2.9157,-2.859,-2.851,-2.851,-2.851,-2.851,-2.851,-2.851,-2.851,-2.851,-2.851,-2.851,-2.851,-2.851,-2.851,-2.851,-2.851,-2.851,-2.851,-2.8558,-2.9088,-2.9593,-3.0086,-3.0663,-3.1223,-3.1645,-4.2092,-4.2092,-4.2092,-4.2092,-4.2484,-4.2747,-4.2507,-4.2911,-4.3243,-4.3169,-4.3184,-4.3241,-4.3356,-4.2797,-4.2453,-4.2681,-4.2119,-4.1758,-4.1758,-4.1758,-4.1856,-4.2092,-4.2092,-4.1912,-4.1465,-4.0703,-3.9942,-3.921,-3.9152,-3.9108,-3.9108,-3.8859,-3.8622,-3.8411,-3.8667,-3.8667,-3.8487,-3.9697,-3.9972,-3.9623,-3.9986,-4.0187,-4.0128,-3.9648,-3.9692,-4.0055,-3.9968,-3.9924,-3.9881,-3.9675,-3.9651,-3.9628,-3.9628,-3.9202,-3.8594,-3.8203,-3.7744,-3.7192,-3.6511,-3.6373,-3.6441,-3.652,-3.6056,-3.5373,-3.4587,-3.4,-3.3645,-3.3701,-3.3408,-3.3055,-3.2713,-3.2674,-3.2543,-3.2082,-3.1928,-3.1833,-3.1859,-3.175,-3.1726,-3.179,-3.19,-3.1936,-3.179,-3.1431,-3.1344,-3.1753,-3.0859,-3.0431,-3.0771,-2.9909,-2.9341,-2.9223,-2.8736,-2.851,-2.851,-2.851,-2.851,-2.851,-2.851,-2.851,-2.851,-2.851,-2.851,-2.851,-2.851,-2.851,-2.851,-2.851,-2.851,-2.8558,-2.9088,-2.9364,-2.9581,-3.053,-3.0995,-3.1151,-4.2092,-4.2324,-4.2528,-4.2528,-4.305,-4.3471,-4.3471,-4.3761,-4.4095,-4.4385,-4.4414,-4.4545,-4.4864,-4.4037,-4.3224,-4.2615,-4.2281,-4.2092,-4.2092,-4.2092,-4.2092,-4.2092,-4.2092,-4.2092,-4.2092,-4.1577,-4.1085,-4.0603,-4.0603,-4.0603,-4.0603,-4.0446,-4.0116,-3.9697,-4.0159,-4.0116,-3.9741,-4.0845,-4.117,-4.0944,-4.1085,-4.1226,-4.1297,-4.0674,-4.0688,-4.1001,-4.0787,-4.0702,-4.0659,-4.043,-4.0343,-4.0343,-4.0343,-4.0263,-4.0069,-3.9437,-3.8989,-3.8512,-3.7868,-3.7521,-3.7341,-3.7519,-3.739,-3.6922,-3.5883,-3.5224,-3.4888,-3.4994,-3.4888,-3.4727,-3.4499,-3.4492,-3.4393,-3.3775,-3.3356,-3.3043,-3.2923,-3.2467,-3.2228,-3.2408,-3.2314,-3.2218,-3.2218,-3.19,-3.1813,-3.2169,-3.1593,-3.1209,-3.1182,-3.0582,-3.0126,-2.9832,-2.9223,-2.8922,-2.8922,-2.8657,-2.851,-2.851,-2.851,-2.851,-2.851,-2.851,-2.851,-2.851,-2.851,-2.851,-2.851,-2.851,-2.851,-2.8534,-2.8823,-2.9076,-2.9364,-2.9917,-3.0446,-3.0958,-4.2092,-4.2586,-4.2992,-4.2992,-4.3631,-4.4139,-4.4139,-4.424,-4.4487,-4.4995,-4.5053,-4.5227,-4.5663,-4.4574,-4.3355,-4.2194,-4.2092,-4.2092,-4.2092,-4.2092,-4.2092,-4.2092,-4.2092,-4.2092,-4.2092,-4.2092,-4.2092,-4.2092,-4.2092,-4.2092,-4.2092,-4.2092,-4.1675,-4.0873,-4.1717,-4.1633,-4.0916,-4.1773,-4.2092,-4.2092,-4.2092,-4.2092,-4.2051,-4.1662,-4.1522,-4.148,-4.1086,-4.0958,-4.0915,-4.083,-4.083,-4.083,-4.083,-4.1086,-4.1254,-4.0434,-3.9989,-3.9631,-3.9039,-3.837,-3.7945,-3.8156,-3.8202,-3.7924,-3.6858,-3.632,-3.6055,-3.6055,-3.6231,-3.6339,-3.6241,-3.6372,-3.6272,-3.5654,-3.4996,-3.4455,-3.417,-3.3239,-3.2631,-3.2833,-3.2477,-3.2218,-3.2218,-3.2218,-3.2218,-3.2218,-3.2218,-3.1973,-3.1381,-3.127,-3.0959,-3.0469,-2.9871,-2.9561,-2.9561,-2.9079,-2.8776,-2.8657,-2.8657,-2.859,-2.851,-2.851,-2.851,-2.851,-2.851,-2.851,-2.851,-2.851,-2.851,-2.851,-2.851,-2.8775,-2.9172,-2.9268,-2.9917,-3.0735,-4.2092,-4.2586,-4.2992,-4.2992,-4.3979,-4.4763,-4.4763,-4.5256,-4.5663,-4.5735,-4.575,-4.5561,-4.5082,-4.3892,-4.2847,-4.215,-4.2092,-4.2092,-4.2092,-4.2092,-4.2092,-4.2092,-4.2092,-4.2092,-4.2092,-4.2092,-4.2092,-4.2092,-4.2092,-4.2092,-4.2092,-4.2092,-4.2051,-4.1912,-4.2051,-4.2009,-4.1912,-4.2051,-4.2092,-4.2092,-4.2092,-4.2092,-4.2092,-4.2009,-4.2009,-4.2009,-4.1926,-4.1926,-4.1829,-4.1438,-4.1311,-4.1311,-4.1311,-4.1354,-4.1465,-4.1728,-4.136,-4.0735,-4.0083,-3.9445,-3.8851,-3.8347,-3.8202,-3.8165,-3.7962,-3.7886,-3.7834,-3.7834,-3.789,-3.7748,-3.7205,-3.7157,-3.6954,-3.6286,-3.6099,-3.5892,-3.5583,-3.4602,-3.3818,-3.3591,-3.2773,-3.2218,-3.2218,-3.2218,-3.2218,-3.2218,-3.2218,-3.2169,-3.2059,-3.1505,-3.1145,-3.1071,-3.0469,-3.0177,-3.0177,-3.0101,-2.9793,-2.9263,-2.9263,-2.9,-2.851,-2.851,-2.851,-2.851,-2.851,-2.851,-2.851,-2.851,-2.851,-2.851,-2.851,-2.8558,-2.8679,-2.9136,-2.9677,-3.0194,-4.2092,-4.2876,-4.3544,-4.3544,-4.4603,-4.5445,-4.5445,-4.5692,-4.588,-4.588,-4.5561,-4.5213,-4.4922,-4.3747,-4.2745,-4.215,-4.2092,-4.2092,-4.2092,-4.2092,-4.2092,-4.2092,-4.2092,-4.2092,-4.2092,-4.2092,-4.2092,-4.2092,-4.2092,-4.2092,-4.2092,-4.2092,-4.2092,-4.2092,-4.2092,-4.2092,-4.2092,-4.2092,-4.2092,-4.2092,-4.2092,-4.2092,-4.2092,-4.2092,-4.2092,-4.2092,-4.2092,-4.2092,-4.2051,-4.187,-4.1787,-4.1787,-4.1787,-4.1787,-4.1829,-4.2051,-4.1628,-4.1033,-4.0742,-3.9944,-3.9131,-3.8826,-3.8478,-3.8202,-3.8202,-3.8202,-3.8202,-3.8202,-3.8202,-3.813,-3.7854,-3.781,-3.7607,-3.6968,-3.6656,-3.633,-3.5818,-3.4973,-3.4164,-3.3426,-3.2682,-3.2218,-3.2218,-3.2218,-3.2218,-3.2218,-3.2218,-3.2218,-3.2218,-3.1936,-3.1776,-3.1776,-3.1121,-3.0809,-3.0809,-3.0469,-3.0177,-2.9909,-2.9909,-2.9419,-2.851,-2.851,-2.851,-2.851,-2.851,-2.851,-2.851,-2.851,-2.851,-2.851,-2.851,-2.851,-2.8546,-2.8775,-2.9196,-2.9641]},{"header":{"parameterUnit":"m.s-1","parameterCategory":1,"la1":30.6,"la2":28.766,"lo1":-90.7593,"lo2":-88.6598,"dy":0.0162,"dx":0.0183,"nx":116,"ny":114,"refTime":"2024-07-06T12:00:00:Z","depth":0,"parameterNumber":3,"parameterNumberName":"V-component_of_WINDS"},"data":[0.0,0.0,0.0,0.0,0.0,0.0,0.0,0.0,0.0,0.0,0.0,0.0,0.0,0.0,0.0,0.0,0.0,0.0,0.0,0.0,0.0,0.0,0.0,0.0,0.0,0.0,0.0,0.0,0.0,0.0,0.0,0.0,0.0,0.0,0.0,0.0,0.0,0.0,0.0,0.0,0.0,0.0,0.0,0.0,0.0,0.0,0.0,0.0,0.0,0.0,0.0,0.0,0.0,0.0,0.0,0.0,0.0,0.0,0.0,0.0,0.0,0.0,0.0,0.0,0.0,0.0,0.0,0.0,0.0,0.0,0.0,0.0,0.0,0.0,0.0,0.0,0.0,0.0,0.0,0.0,0.0,0.0,0.0,0.0,0.0,0.0,0.0,0.0,0.0,0.0,0.0,0.0,0.0,0.0,0.0,0.0,0.0,0.0,0.0,0.0,0.0,0.0,0.0,0.0,0.0,0.0,0.0,0.0,0.0,0.0,0.0,0.0,0.0,0.0,0.0,0.0,0.0,0.0,0.0,0.0,0.0,0.0,0.0,0.0,0.0,0.0,0.0,0.0,0.0,0.0,0.0,0.0,0.0,0.0,0.0,0.0,0.0,0.0,0.0,0.0,0.0,0.0,0.0,0.0,0.0,0.0,0.0,0.0,0.0,0.0,0.0,0.0,0.0,0.0,0.0,0.0,0.0,0.0,0.0,0.0,0.0,0.0,0.0,0.0,0.0,0.0,0.0,0.0,0.0,0.0,0.0,0.0,0.0,0.0,0.0,0.0,0.0,0.0,0.0,0.0,0.0,0.0,0.0,0.0,0.0,0.0,0.0,0.0,0.0,0.0,0.0,0.0,0.0,0.0,0.0,0.0,0.0,0.0,0.0,0.0,0.0,0.0,0.0,0.0,0.0,0.0,0.0,0.0,0.0,0.0,0.0,0.0,0.0,0.0,0.0,0.0,0.0,0.0,0.0,0.0,0.0,0.0,0.0,0.0,0.0,0.0,0.0,0.0,0.0,0.0,0.0,0.0,0.0,0.0,0.0,0.0,0.0,0.0,0.0,0.0,0.0,0.0,0.0,0.0,0.0,0.0,0.0,0.0,0.0,0.0,0.0,0.0,0.0,0.0,0.0,0.0,0.0,0.0,0.0,0.0,0.0,0.0,0.0,0.0,0.0,0.0,0.0,0.0,0.0,0.0,0.0,0.0,0.0,0.0,0.0,0.0,0.0,0.0,0.0,0.0,0.0,0.0,0.0,0.0,0.0,0.0,0.0,0.0,0.0,0.0,0.0,0.0,0.0,0.0,0.0,0.0,0.0,0.0,0.0,0.0,0.0,0.0,0.0,0.0,0.0,0.0,0.0,0.0,0.0,0.0,0.0,0.0,0.0,0.0,0.0,0.0,0.0,0.0,0.0,0.0,0.0,0.0,0.0,0.0,0.0,0.0,0.0,0.0,0.0,0.0,0.0,0.0,0.0,0.0,0.0,0.0,0.0,0.0,0.0,0.0,0.0,0.0,0.0,0.0,0.0,0.0,0.0,0.0,0.0,0.0,0.0,0.0,0.0,0.0,0.0,0.0,0.0,0.0,0.0,0.0,0.0,0.0,0.0,0.0,0.0,0.0,0.0,0.0,0.0,0.0,0.0,0.0,0.0,0.0,0.0,0.0,0.0,0.0,0.0,0.0,0.0,0.0,0.0,0.0,0.0,0.0,0.0,0.0,0.0,0.0,0.0,0.0,0.0,0.0,0.0,0.0,0.0,0.0,0.0,0.0,0.0,0.0,0.0,0.0,0.0,0.0,0.0,0.0,0.0,0.0,0.0,0.0,0.0,0.0,0.0,0.0,0.0,0.0,0.0,0.0,0.0,0.0,0.0,0.0,0.0,0.0,0.0,0.0,0.0,0.0,0.0,0.0,0.0,0.0,0.0,0.0,0.0,0.0,0.0,0.0,0.0,0.0,0.0,0.0,0.0,0.0,0.0,0.0,0.0,0.0,0.0,0.0,0.0,0.0,0.0,0.0,0.0,0.0,0.0,0.0,0.0,0.0,0.0,0.0,0.0,0.0,0.0,0.0,0.0,0.0,0.0,0.0,0.0,0.0,0.0,0.0,0.0,0.0,0.0,0.0,0.0,0.0,0.0,0.0,0.0,0.0,0.0,0.0,0.0,0.0,0.0,0.0,0.0,0.0,0.0,0.0,0.0,0.0,0.0,0.0,0.0,0.0,0.0,0.0,0.0,0.0,0.0,0.0,0.0,0.0,0.0,0.0,0.0,0.0,0.0,0.0,0.0,0.0,0.0,0.0,0.0,0.0,0.0,0.0,0.0,0.0,0.0,0.0,0.0,0.0,0.0,0.0,0.0,0.0,0.0,0.0,0.0,0.0,0.0,0.0,0.0,0.0,0.0,0.0,0.0,0.0,0.0,0.0,0.0,0.0,0.0,0.0,0.0,0.0,0.0,0.0,0.0,0.0,0.0,0.0,0.0,0.0,0.0,0.0,0.0,0.0,0.0,0.0,0.0,0.0,0.0,0.0,0.0,0.0,0.0,0.0,0.0,0.0,0.0,0.0,0.0,0.0,0.0,0.0,0.0,0.0,0.0,0.0,0.0,0.0,0.0,0.0,0.0,0.0,0.0,0.0,0.0,0.0,0.0,0.0,0.0,0.0,0.0,0.0,0.0,0.0,0.0,0.0,0.0,0.0,0.0,0.0,0.0,0.0,0.0,0.0,0.0,0.0,0.0,0.0,0.0,0.0,0.0,0.0,0.0,0.0,0.0,0.0,0.0,0.0,0.0,0.0,0.0,0.0,0.0,0.0,0.0,0.0,0.0,0.0,0.0,0.0,0.0,0.0,0.0,0.0,0.0,0.0,0.0,0.0,0.0,0.0,0.0,0.0,0.0,0.0,0.0,0.0,0.0,0.0,0.0,0.0,0.0,0.0,0.0,0.0,0.0,0.0,0.0,0.0,0.0,0.0,0.0,0.0,0.0,0.0,0.0,0.0,0.0,0.0,0.0,0.0,0.0,0.0,0.0,0.0,0.0,0.0,0.0,0.0,0.0,0.0,0.0,0.0,0.0,0.0,0.0,0.0,0.0,0.0,0.0,0.0,0.0,0.0,0.0,0.0,0.0,0.0,0.0,0.0,0.0,0.0,0.0,0.0,0.0,0.0,0.0,0.0,0.0,0.0,0.0,0.0,0.0,0.0,0.0,0.0,0.0,0.0,0.0,0.0,0.0,0.0,0.0,0.0,0.0,0.0,0.0,0.0,0.0,0.0,0.0,0.0,0.0,0.0,0.0,0.0,0.0,0.0,0.0,0.0,0.0,0.0,0.0,0.0,0.0,0.0,0.0,0.0,0.0,0.0,0.0,0.0,0.0,0.0,0.0,0.0,0.0,0.0,0.0,0.0,0.0,0.0,0.0,0.0,0.0,0.0,0.0,0.0,0.0,0.0,0.0,0.0,0.0,0.0,0.0,0.0,0.0,0.0,0.0,0.0,0.0,0.0,0.0,0.0,0.0,0.0,0.0,0.0,0.0,0.0,0.0,0.0,0.0,0.0,0.0,0.0,0.0,0.0,0.0,0.0,0.0,0.0,0.0,0.0,0.0,0.0,0.0,0.0,0.0,0.0,0.0,0.0,0.0,0.0,0.0,0.0,0.0,0.0,0.0,0.0,0.0,0.0,0.0,0.0,0.0,0.0,0.0,0.0,0.0,0.0,0.0,0.0,0.0,0.0,0.0,0.0,0.0,0.0,0.0,0.0,0.0,0.0,0.0,0.0,0.0,0.0,0.0,0.0,0.0,0.0,0.0,0.0,0.0,0.0,0.0,0.0,0.0,0.0,0.0,0.0,0.0,0.0,0.0,0.0,0.0,0.0,0.0,0.0,0.0,0.0,0.0,0.0,0.0,0.0,0.0,0.0,0.0,0.0,0.0,0.0,0.0,0.0,0.0,0.0,0.0,0.0,0.0,0.0,0.0,0.0,0.0,0.0,0.0,0.0,0.0,0.0,0.0,0.0,0.0,0.0,0.0,0.0,0.0,0.0,0.0,0.0,0.0,0.0,0.0,0.0,0.0,0.0,0.0,0.0,0.0,0.0,0.0,0.0,0.0,0.0,0.0,0.0,0.0,0.0,0.0,0.0,0.0,0.0,0.0,0.0,0.0,0.0,0.0,0.0,0.0,0.0,0.0,0.0,0.0,0.0,0.0,0.0,0.0,0.0,0.0,0.0,0.0,0.0,0.0,0.0,0.0,0.0,0.0,0.0,0.0,0.0,0.0,0.0,0.0,0.0,0.0,0.0,0.0,0.0,0.0,0.0,0.0,0.0,0.0,0.0,0.0,0.0,0.0,0.0,0.0,0.0,0.0,0.0,0.0,0.0,0.0,0.0,0.0,0.0,0.0,0.0,0.0,0.0,0.0,0.0,0.0,0.0,0.0,0.0,0.0,0.0,0.0,0.0,0.0,0.0,0.0,0.0,0.0,0.0,0.0,0.0,0.0,0.0,0.0,0.0,0.0,0.0,0.0,0.0,0.0,0.0,0.0,0.0,0.0,0.0,0.0,0.0,0.0,0.0,0.0,0.0,0.0,0.0,0.0,0.0,0.0,0.0,0.0,0.0,0.0,0.0,0.0,0.0,0.0,0.0,0.0,0.0,0.0,0.0,0.0,0.0,0.0,0.0,0.0,0.0,0.0,0.0,0.0,0.0,0.0,0.0,0.0,0.0,0.0,0.0,0.0,0.0,0.0,0.0,0.0,0.0,0.0,0.0,0.0,0.0,0.0,0.0,0.0,0.0,0.0,0.0,0.0,0.0,0.0,0.0,0.0,0.0,0.0,0.0,0.0,0.0,0.0,0.0,0.0,0.0,0.0,0.0,0.0,0.0,0.0,0.0,0.0,0.0,0.0,0.0,0.0,0.0,0.0,0.0,0.0,0.0,0.0,0.0,0.0,0.0,0.0,0.0,0.0,0.0,0.0,0.0,0.0,0.0,0.0,0.0,0.0,0.0,0.0,0.0,0.0,0.0,0.0,0.0,0.0,0.0,0.0,0.0,0.0,0.0,0.0,0.0,0.0,0.0,0.0,0.0,0.0,0.0,0.0,0.0,0.0,0.0,0.0,0.0,0.0,0.0,0.0,0.0,0.0,0.0,0.0,0.0,0.0,0.0,0.0,0.0,0.0,0.0,0.0,0.0,0.0,0.0,0.0,0.0,0.0,0.0,0.0,0.0,0.0,0.0,0.0,0.0,0.0,0.0,0.0,0.0,0.0,0.0,0.0,0.0,0.0,0.0,0.0,0.0,0.0,0.0,0.0,0.0,0.0,0.0,0.0,0.0,0.0,0.0,0.0,0.0,0.0,0.0,0.0,0.0,0.0,0.0,0.0,0.0,0.0,0.0,0.0,0.0,0.0,0.0,0.0,0.0,0.0,0.0,0.0,0.0,0.0,0.0,0.0,0.0,0.0,0.0,0.0,0.0,0.0,0.0,0.0,0.0,0.0,0.0,0.0,0.0,0.0,0.0,0.0,0.0,0.0,0.0,0.0,0.0,0.0,0.0,0.0,0.0,0.0,0.0,0.0,0.0,0.0,0.0,0.0,0.0,0.0,0.0,0.0,0.0,0.0,0.0,0.0,0.0,0.0,0.0,0.0,0.0,0.0,0.0,0.0,0.0,0.0,0.0,0.0,0.0,0.0,0.0,0.0,0.0,0.0,0.0,0.0,0.0,0.0,0.0,0.0,0.0,0.0,0.0,0.0,0.0,0.0,0.0,0.0,0.0,0.0,0.0,0.0,0.0,0.0,0.0,0.0,0.0,0.0,0.0,0.0,0.0,0.0,0.0,0.0,0.0,0.0,0.0,0.0,0.0,0.0,0.0,0.0,0.0,0.0,0.0,0.0,0.0,0.0,0.0,0.0,0.0,0.0,0.0,0.0,0.0,0.0,0.0,0.0,0.0,0.0,0.0,0.0,0.0,0.0,0.0,0.0,0.0,0.0,0.0,0.0,0.0,0.0,0.0,0.0,0.0,0.0,0.0,0.0,0.0,0.0,0.0,0.0,0.0,0.0,0.0,0.0,0.0,0.0,0.0,0.0,0.0,0.0,0.0,-2.3619,0.0,0.0,0.0,0.0,0.0,0.0,0.0,0.0,0.0,0.0,0.0,0.0,0.0,0.0,0.0,0.0,0.0,0.0,0.0,0.0,0.0,0.0,0.0,0.0,-0.9188,-0.9384,-0.9775,-1.0314,-1.0632,-1.0632,0.0,0.0,0.0,0.0,0.0,-1.146,-1.1475,-1.1886,-1.265,-1.3454,-1.4389,-1.5391,-1.5063,-1.4151,-1.2752,0.0,0.0,0.0,0.0,0.0,0.0,0.0,0.0,0.0,0.0,0.0,0.0,0.0,0.0,0.0,0.0,0.0,0.0,0.0,0.0,0.0,0.0,0.0,0.0,0.0,0.0,0.0,0.0,0.0,0.0,0.0,0.0,0.0,0.0,0.0,0.0,0.0,0.0,0.0,0.0,0.0,0.0,0.0,0.0,0.0,0.0,0.0,0.0,0.0,0.0,0.0,0.0,0.0,0.0,0.0,0.0,0.0,0.0,0.0,0.0,0.0,0.0,0.0,0.0,0.0,0.0,0.0,0.0,0.0,0.0,0.0,-2.6379,0.0,0.0,0.0,0.0,0.0,0.0,0.0,0.0,0.0,0.0,0.0,0.0,0.0,0.0,0.0,0.0,0.0,0.0,0.0,0.0,0.0,-0.8789,-0.9535,-0.9674,-1.0065,-1.0977,-1.1215,-1.1371,-1.1535,0.0,0.0,0.0,0.0,-1.1809,-1.1868,-1.2004,-1.2802,-1.4267,-1.5275,-1.6894,-1.9028,-1.9028,0.0,0.0,-1.4998,0.0,0.0,0.0,0.0,0.0,0.0,0.0,0.0,0.0,0.0,0.0,0.0,0.0,0.0,0.0,0.0,0.0,0.0,0.0,0.0,0.0,0.0,0.0,0.0,0.0,0.0,0.0,0.0,0.0,0.0,0.0,0.0,0.0,0.0,0.0,0.0,0.0,0.0,0.0,0.0,0.0,0.0,0.0,0.0,0.0,0.0,0.0,0.0,0.0,0.0,0.0,0.0,0.0,0.0,0.0,0.0,0.0,0.0,0.0,0.0,0.0,0.0,0.0,-3.3223,-3.3944,-3.3892,-3.3926,-3.4334,-3.4851,-3.2556,-3.1434,-3.1058,-2.8676,0.0,0.0,0.0,0.0,0.0,0.0,0.0,0.0,0.0,0.0,0.0,0.0,0.0,0.0,0.0,0.0,0.0,0.0,0.0,-0.8805,-0.9596,-0.9698,-1.034,-1.1953,-1.2134,-1.2457,-1.3221,-1.3304,0.0,0.0,-1.3311,-1.3311,-1.3327,-1.4064,-1.4862,-1.5723,-1.78,-1.9743,-2.1522,0.0,0.0,0.0,-1.9084,-1.7384,0.0,0.0,0.0,0.0,0.0,0.0,0.0,0.0,0.0,0.0,0.0,0.0,0.0,0.0,0.0,0.0,0.0,0.0,0.0,0.0,0.0,0.0,0.0,0.0,0.0,0.0,0.0,0.0,0.0,0.0,0.0,0.0,0.0,0.0,0.0,0.0,0.0,0.0,0.0,0.0,0.0,0.0,-1.9224,-2.0339,0.0,0.0,0.0,0.0,0.0,0.0,0.0,0.0,0.0,0.0,0.0,0.0,0.0,-3.032,-3.203,-3.4316,-3.5631,-3.5922,-3.7971,-3.8872,-3.8697,-3.8854,-3.8925,-3.8839,-3.8663,0.0,-3.3743,-3.2777,0.0,0.0,0.0,0.0,0.0,0.0,0.0,0.0,0.0,0.0,0.0,0.0,0.0,0.0,0.0,0.0,0.0,0.0,0.0,0.0,0.0,-1.1556,-1.2686,-1.4232,-1.4928,-1.5071,0.0,0.0,0.0,-1.3639,-1.3605,-1.3828,-1.4326,-1.5115,-1.674,-1.9204,-2.1074,-2.2568,0.0,0.0,0.0,0.0,-2.2746,-2.1098,0.0,0.0,0.0,0.0,0.0,0.0,0.0,0.0,0.0,0.0,0.0,0.0,0.0,0.0,0.0,0.0,0.0,0.0,0.0,0.0,0.0,0.0,0.0,0.0,0.0,0.0,0.0,0.0,0.0,0.0,0.0,0.0,0.0,0.0,0.0,0.0,0.0,0.0,0.0,0.0,0.0,-1.9348,-2.1868,-2.2389,-2.31,-2.3242,0.0,0.0,0.0,0.0,0.0,0.0,0.0,0.0,0.0,-3.2702,-3.367,-3.4748,-3.5989,-3.7775,-3.8787,-3.9018,-4.0258,-4.0821,-4.0736,-4.0821,-4.0866,-4.0887,-4.0991,-4.0174,-3.8617,-3.6208,-3.4403,-3.3055,0.0,0.0,0.0,0.0,-3.3071,-3.3246,0.0,0.0,0.0,0.0,0.0,0.0,0.0,0.0,0.0,0.0,0.0,0.0,-1.2088,-1.3411,-1.4816,-1.6463,0.0,0.0,0.0,0.0,0.0,-1.4244,-1.4019,-1.4303,-1.515,-1.665,-1.8929,0.0,0.0,0.0,0.0,0.0,0.0,0.0,0.0,0.0,0.0,0.0,0.0,0.0,0.0,0.0,0.0,0.0,0.0,0.0,0.0,0.0,0.0,0.0,0.0,0.0,0.0,0.0,0.0,0.0,0.0,0.0,0.0,0.0,0.0,0.0,0.0,0.0,0.0,0.0,0.0,0.0,0.0,0.0,0.0,0.0,0.0,0.0,0.0,0.0,0.0,-2.2125,-2.4192,-2.4367,-2.6003,-2.6534,0.0,0.0,0.0,0.0,0.0,0.0,-3.1671,-3.3734,-3.5474,-3.6637,-3.7803,-3.8903,-3.9957,-4.0955,-4.1558,-4.1771,-4.2184,-4.2339,-4.2273,-4.2339,-4.2427,-4.2536,-4.2562,-4.269,-4.2611,-3.9011,-3.72,-3.6601,-3.5339,-3.4958,-3.5324,-3.7031,-3.7303,-3.7199,0.0,0.0,0.0,0.0,0.0,0.0,0.0,0.0,0.0,0.0,0.0,-1.1448,0.0,0.0,0.0,0.0,0.0,0.0,0.0,0.0,0.0,-1.5769,-1.5115,-1.509,-1.5839,-1.9452,0.0,0.0,0.0,0.0,0.0,0.0,0.0,0.0,0.0,0.0,0.0,0.0,0.0,0.0,0.0,0.0,0.0,0.0,0.0,0.0,0.0,0.0,0.0,0.0,0.0,0.0,0.0,0.0,0.0,0.0,0.0,0.0,0.0,0.0,0.0,0.0,0.0,0.0,0.0,0.0,0.0,0.0,0.0,0.0,0.0,0.0,0.0,0.0,0.0,0.0,0.0,0.0,0.0,-2.6804,-2.9417,0.0,0.0,0.0,0.0,-3.1107,-3.2808,-3.4424,-3.5738,-3.6659,-3.8404,-4.1174,-4.1332,-4.2234,-4.3992,-4.4081,-4.4205,-4.4403,-4.4438,-4.4347,-4.4165,-4.4369,-4.4347,-4.4187,-4.4369,-4.4478,-4.4228,-4.1056,-3.9871,-3.9896,-3.831,-3.8012,-3.8559,-3.9436,-3.9915,-4.0285,0.0,0.0,0.0,-0.8508,-0.8502,-0.8502,-0.8502,-0.8896,-0.9313,-0.9572,-1.144,0.0,0.0,0.0,0.0,0.0,0.0,0.0,0.0,0.0,-1.7589,-1.7143,-1.6546,-1.7269,-1.951,-2.1371,-2.3419,0.0,0.0,0.0,0.0,0.0,0.0,0.0,0.0,0.0,0.0,0.0,0.0,0.0,0.0,0.0,0.0,0.0,0.0,0.0,0.0,0.0,0.0,0.0,0.0,0.0,0.0,0.0,0.0,0.0,0.0,0.0,0.0,0.0,0.0,0.0,0.0,0.0,0.0,0.0,0.0,0.0,0.0,0.0,0.0,0.0,0.0,0.0,0.0,0.0,0.0,0.0,0.0,-3.0672,-3.297,0.0,-3.2451,-3.3662,-3.4729,-3.5155,-3.6751,-3.8349,-3.983,-4.0786,-4.1982,-4.3478,-4.3531,-4.3841,-4.4493,-4.4493,-4.4537,-4.4603,-4.4603,-4.4559,-4.4493,-4.4581,-4.4559,-4.4493,-4.4581,-4.4603,-4.4496,-4.339,-4.2971,-4.302,-4.2667,-4.2644,-4.2814,-4.274,-4.2945,-4.3197,-0.8568,-0.8527,0.0,-0.8502,-0.8502,-0.8502,-0.8502,-0.9128,-0.9766,-1.0258,-1.2597,-1.4659,0.0,0.0,0.0,0.0,0.0,0.0,0.0,0.0,-1.9058,-1.8694,-1.8606,-1.9717,-2.2198,-2.3567,0.0,0.0,0.0,0.0,0.0,0.0,0.0,0.0,0.0,0.0,0.0,0.0,0.0,0.0,0.0,0.0,-2.0013,0.0,0.0,0.0,0.0,0.0,0.0,0.0,0.0,0.0,0.0,0.0,0.0,0.0,0.0,0.0,0.0,0.0,0.0,0.0,0.0,0.0,0.0,0.0,0.0,0.0,0.0,0.0,0.0,0.0,0.0,0.0,0.0,0.0,0.0,0.0,-3.2382,-3.3544,-3.5865,-3.6807,-3.5331,-3.6772,-3.8101,-3.8839,-4.0195,-4.155,-4.2807,-4.3504,-4.421,-4.4977,-4.4995,-4.5142,-4.541,-4.541,-4.541,-4.541,-4.541,-4.541,-4.541,-4.541,-4.541,-4.541,-4.541,-4.541,-4.541,-4.541,-4.541,-4.5378,-4.5057,-4.5009,-4.508,-4.4832,-4.4949,-4.5145,-0.8502,-0.8502,-0.8502,-0.8502,-0.8502,-0.8502,-0.8502,-0.9144,-1.0129,-1.1529,-1.3608,0.0,0.0,0.0,0.0,0.0,0.0,0.0,0.0,-2.0585,-1.9963,-2.0451,-2.1234,-2.2266,-2.3592,0.0,0.0,0.0,0.0,0.0,0.0,0.0,0.0,0.0,0.0,0.0,0.0,0.0,0.0,0.0,0.0,0.0,-2.283,0.0,0.0,0.0,0.0,0.0,0.0,0.0,0.0,0.0,0.0,0.0,0.0,0.0,0.0,0.0,0.0,0.0,0.0,0.0,0.0,0.0,0.0,0.0,0.0,0.0,0.0,0.0,0.0,0.0,0.0,0.0,0.0,0.0,-3.0639,-3.3332,-3.5329,-3.5365,-3.8093,-3.932,-3.7652,-3.9726,-4.1421,-4.2051,-4.2963,-4.3854,-4.4585,-4.4621,-4.4995,-4.5833,-4.5873,-4.6266,-4.7051,-4.7051,-4.7051,-4.7051,-4.7051,-4.7051,-4.7051,-4.7051,-4.7051,-4.7051,-4.7051,-4.7051,-4.7051,-4.7051,-4.7051,-4.6873,-4.5302,-4.4871,-4.5204,-4.5524,-4.5773,-4.6063,-0.8502,-0.8454,-0.8441,-0.8495,-0.8454,-0.8441,-0.8495,-0.9572,-1.0703,-1.1594,0.0,0.0,0.0,0.0,0.0,0.0,0.0,0.0,-2.1554,0.0,-2.1173,-2.2031,-2.2654,0.0,0.0,0.0,0.0,0.0,0.0,0.0,0.0,0.0,0.0,0.0,0.0,0.0,0.0,0.0,0.0,0.0,0.0,0.0,-2.4497,0.0,0.0,0.0,0.0,0.0,0.0,0.0,0.0,0.0,0.0,0.0,0.0,0.0,0.0,0.0,0.0,0.0,0.0,0.0,0.0,0.0,0.0,0.0,0.0,0.0,0.0,0.0,0.0,0.0,0.0,0.0,0.0,-3.3902,-3.3902,-3.6149,-3.8237,-3.9343,-4.0753,-4.1678,-4.1795,-4.2424,-4.3119,-4.3843,-4.4135,-4.4555,-4.5141,-4.5352,-4.6015,-4.7199,-4.744,-4.789,-4.8675,-4.8675,-4.8675,-4.8675,-4.8675,-4.8675,-4.8675,-4.8675,-4.8675,-4.8675,-4.8675,-4.8675,-4.8675,-4.8675,-4.8354,-4.777,-4.673,-4.656,-4.6771,-4.6279,-4.606,-4.6044,-0.846,-0.8428,-0.8415,-0.8448,-0.8428,-0.8415,-0.8448,-0.9742,-1.1035,-1.1986,-1.4948,0.0,0.0,0.0,0.0,0.0,0.0,0.0,-2.1187,-2.1596,-2.2139,0.0,0.0,0.0,0.0,0.0,0.0,0.0,0.0,0.0,0.0,0.0,0.0,0.0,0.0,0.0,0.0,0.0,0.0,0.0,0.0,0.0,-2.644,-2.4993,-2.3907,-2.303,-2.2002,-2.1233,-2.057,-1.9903,0.0,0.0,0.0,0.0,0.0,0.0,0.0,0.0,0.0,0.0,0.0,0.0,0.0,0.0,0.0,0.0,0.0,0.0,0.0,0.0,0.0,0.0,0.0,0.0,-3.5346,-3.7291,-3.763,-3.8879,-4.036,-4.193,-4.2519,-4.3108,-4.3872,-4.3961,-4.4264,-4.5053,-4.5316,-4.5782,-4.6523,-4.692,-4.7524,-4.8382,-4.8586,-4.8871,-4.9293,-4.9293,-4.9293,-4.9293,-4.9293,-4.9293,-4.9293,-4.9293,-4.9293,-4.9293,-4.9293,-4.9293,-4.9293,-4.9293,-4.9049,0.0,0.0,0.0,0.0,0.0,-4.6832,-4.6875,-0.8415,-0.8396,-0.839,-0.8403,-0.8396,-0.839,-0.8403,-0.969,-1.1164,-1.2527,0.0,0.0,0.0,0.0,0.0,0.0,0.0,0.0,0.0,0.0,0.0,0.0,0.0,0.0,0.0,0.0,0.0,0.0,0.0,0.0,0.0,0.0,0.0,0.0,0.0,0.0,0.0,0.0,0.0,0.0,0.0,0.0,-2.8505,-2.7078,-2.6479,-2.6248,-2.4919,-2.4045,-2.3318,-2.19,0.0,0.0,0.0,0.0,0.0,0.0,0.0,0.0,0.0,0.0,0.0,0.0,0.0,0.0,0.0,0.0,0.0,0.0,0.0,0.0,0.0,0.0,0.0,0.0,-3.8576,-4.036,-4.1234,-4.1377,-4.1912,-4.334,-4.3568,-4.3907,-4.4656,-4.4706,-4.5062,-4.5998,-4.6477,-4.7199,-4.8217,0.0,0.0,0.0,0.0,-4.9471,-4.9561,-4.9561,-4.9561,-4.9561,-4.9561,-4.9561,-4.9561,-4.9561,-4.9561,-4.9561,-4.9561,-4.9561,-4.9561,-4.9561,-4.9507,-4.9371,-4.8561,-4.7816,-4.7218,-4.7483,-4.7767,-4.8073,-0.8387,-0.8318,-0.8272,-0.839,-0.8311,-0.8278,-0.839,-0.9572,-1.0996,-1.2492,-1.4529,0.0,0.0,0.0,0.0,0.0,0.0,0.0,0.0,0.0,0.0,0.0,0.0,0.0,0.0,0.0,0.0,0.0,0.0,0.0,0.0,0.0,0.0,0.0,0.0,0.0,0.0,0.0,0.0,0.0,0.0,0.0,-3.0093,-2.8574,-2.7686,-2.7152,-2.6228,-2.5523,-2.4945,-2.4633,-2.4091,-2.3419,-2.2669,0.0,0.0,0.0,0.0,0.0,0.0,0.0,0.0,0.0,0.0,0.0,0.0,0.0,0.0,0.0,0.0,0.0,0.0,0.0,0.0,-3.8041,-3.9771,-4.1377,-4.284,-4.3054,-4.314,-4.3444,-4.4014,-4.4714,-4.5499,-4.5374,-4.5955,-4.7604,-4.7636,-4.7942,-4.8813,-4.9095,-4.9432,-4.993,-5.014,-5.0584,-5.1226,-5.1244,-5.1244,-5.1244,0.0,0.0,-5.1244,-5.1244,-5.1244,-5.1244,-5.1244,-5.1244,-5.1244,-5.1244,-5.0852,-5.0162,-4.9036,-4.8501,-4.8329,-4.8003,-4.8073,-4.8288,-0.8298,-0.8245,-0.8218,-0.8292,-0.8245,-0.8218,-0.8292,-0.9497,-1.0792,-1.19,-1.4061,0.0,0.0,0.0,0.0,0.0,0.0,0.0,0.0,0.0,0.0,0.0,0.0,0.0,0.0,0.0,0.0,0.0,0.0,0.0,0.0,0.0,0.0,0.0,0.0,0.0,0.0,0.0,0.0,0.0,0.0,0.0,-3.1627,-3.0127,-2.9108,-2.8397,-2.7618,-2.7009,-2.6482,-2.6128,-2.561,-2.5047,-2.4656,-2.353,-2.2221,0.0,0.0,0.0,0.0,0.0,0.0,0.0,0.0,0.0,0.0,0.0,0.0,0.0,0.0,-3.3348,-3.4971,0.0,-3.8826,-4.0842,-4.1805,-4.2715,-4.3872,-4.441,-4.466,-4.466,-4.4981,-4.5517,-4.632,-4.6656,-4.7185,-4.8145,-4.8666,-4.9189,-4.9728,-5.0101,-5.0492,-5.0891,-5.1027,-5.1223,-5.1487,-5.164,-5.164,-5.1487,-5.164,-5.169,-5.169,-5.169,-5.169,-5.169,-5.169,-5.169,-5.169,-5.169,-5.1458,-5.1001,-4.999,-4.9344,-4.8972,-4.874,-4.8735,-4.8792,-0.8178,-0.8178,-0.8184,-0.8191,-0.8184,-0.8184,-0.8191,-0.9421,-1.0598,-1.1307,-1.3493,-1.5251,-1.5944,-1.6519,-1.7175,0.0,0.0,0.0,0.0,0.0,0.0,0.0,0.0,0.0,0.0,0.0,0.0,0.0,0.0,0.0,0.0,0.0,0.0,0.0,0.0,0.0,0.0,0.0,0.0,0.0,0.0,0.0,-3.2748,-3.142,-3.0334,-2.9437,-2.8867,-2.8145,-2.7364,-2.6953,-2.6445,-2.5994,-2.5994,-2.5169,-2.4147,-2.3987,-2.281,0.0,0.0,0.0,0.0,0.0,0.0,0.0,0.0,0.0,-3.1242,-3.2938,-3.4918,-3.6738,-3.8041,-3.9557,-4.1232,-4.3176,-4.3604,-4.3961,-4.4728,-4.5392,-4.5856,-4.6016,-4.6034,-4.6355,-4.7163,-4.7777,-4.8253,-4.8532,-4.9479,-5.0209,-5.0628,-5.1004,-5.1333,-5.1615,-5.1564,-5.1418,-5.1202,-5.1487,-5.1513,-5.1281,-5.1564,-5.169,-5.169,-5.169,-5.169,-5.169,-5.169,-5.169,-5.169,-5.169,-5.169,-5.1637,-5.0994,-5.0352,-4.9721,-4.9418,-4.9341,-4.9329,-0.8101,-0.8101,-0.8137,-0.8184,-0.815,-0.8137,-0.8184,-0.9305,-1.0437,-1.1289,-1.2598,-1.3752,-1.455,-1.4581,-1.5078,0.0,0.0,0.0,0.0,0.0,0.0,0.0,0.0,0.0,0.0,0.0,0.0,0.0,0.0,0.0,0.0,0.0,0.0,0.0,0.0,0.0,0.0,0.0,0.0,0.0,0.0,0.0,-3.2817,-3.199,-3.0765,-2.9506,-2.9623,-2.8265,-2.6571,-2.7309,-2.7183,-2.6703,-2.6703,-2.6641,-2.6461,-2.5747,0.0,-2.3523,-2.4908,-2.6313,-2.7943,-3.0101,-3.0788,-3.22,0.0,0.0,-3.6256,-3.8522,-3.9771,-4.0485,-4.0681,-4.2019,-4.3176,-4.3444,-4.405,-4.4745,-4.5552,-4.5749,-4.607,-4.6766,-4.6855,-4.7176,-4.7984,-4.7933,-4.8427,-4.9766,-4.9801,-5.0162,-5.1147,-5.0999,-5.1026,-5.1333,-5.1079,-5.0901,-5.0874,-5.1184,-5.135,-5.1281,-5.1564,-5.169,-5.169,-5.169,-5.169,-5.169,-5.169,-5.169,-5.169,-5.169,-5.169,-5.169,-5.1601,-5.1512,-5.1262,-4.981,-4.9489,-4.9685,-0.8094,-0.8094,-0.8101,-0.8144,-0.8123,-0.8101,-0.8144,-0.8919,-0.9783,-1.0539,-1.1793,-1.29,-1.362,-1.435,-1.4839,-1.5024,0.0,0.0,0.0,0.0,0.0,0.0,0.0,0.0,0.0,0.0,0.0,0.0,0.0,0.0,0.0,0.0,0.0,0.0,0.0,0.0,0.0,0.0,0.0,0.0,0.0,0.0,-3.2766,-3.1593,-3.0196,-2.8885,-2.8951,-2.8132,0.0,0.0,-2.616,-2.6064,-2.6145,-2.5878,-2.5588,-2.5758,-2.5676,0.0,-2.8994,0.0,0.0,0.0,-3.4447,-3.6004,-3.798,-3.8448,-3.8861,-4.0307,-4.1234,-4.1787,-4.1787,-4.2733,-4.3622,0.0,-4.4803,-4.5588,-4.6391,-4.6105,-4.5882,-4.6107,-4.6079,-4.6623,-4.805,-4.8347,-4.8901,-5.0016,-5.0259,-5.054,-5.0982,-5.0874,-5.0857,-5.0982,-5.0874,-5.1013,-5.1487,-5.1785,-5.2166,-5.2626,-5.2917,-5.3046,-5.3028,-5.2582,-5.2144,-5.169,-5.169,-5.169,-5.169,-5.169,-5.169,-5.169,-5.169,-5.169,-5.1619,-5.0941,-5.0789,-5.0838,-0.8094,-0.8094,-0.8094,-0.8094,-0.8094,-0.8094,-0.8094,-0.8826,-0.9542,-1.0035,-1.1337,-1.2385,-1.2878,-1.379,-1.4329,-1.4221,-1.6302,-1.8315,0.0,0.0,0.0,0.0,0.0,0.0,0.0,0.0,0.0,0.0,0.0,0.0,0.0,0.0,0.0,0.0,0.0,0.0,0.0,0.0,0.0,0.0,0.0,0.0,-3.2438,-3.0938,-2.942,-2.8108,-2.8141,-2.7457,0.0,0.0,-2.5224,-2.5222,-2.5544,-2.5234,-2.5035,-2.6352,-2.7469,-2.8841,-3.134,0.0,0.0,-3.542,-3.7472,-3.9016,-3.8817,-3.9715,-4.0735,-4.1306,-4.1877,-4.2308,-4.2308,-4.2965,-4.3729,-4.4478,-4.5285,-4.6088,-4.6873,-4.6257,-4.5734,-4.5787,-4.5517,-4.6018,-4.7802,-4.8289,-4.8882,-4.981,-5.0206,-5.0474,-5.0667,-5.0602,-5.0762,-5.1119,-5.1054,-5.1423,-5.2323,-5.2597,-5.3015,-5.3599,-5.3869,-5.4001,-5.3983,-5.3457,-5.2761,-5.2029,-5.2029,-5.1904,-5.169,-5.169,-5.169,-5.169,-5.169,-5.169,-5.169,-5.169,-5.169,-5.1619,-0.8094,-0.8094,-0.8094,-0.8094,-0.8094,-0.8094,-0.8094,-0.9219,-1.0081,-1.0096,-1.1337,-1.221,-1.2231,-1.2272,-1.2816,-1.4098,-1.5455,-1.7131,-1.9194,-2.1377,0.0,0.0,0.0,0.0,0.0,0.0,0.0,0.0,0.0,0.0,0.0,0.0,0.0,0.0,0.0,0.0,0.0,0.0,0.0,0.0,0.0,0.0,-3.1662,-3.0127,-2.8627,-2.7348,-2.7487,0.0,0.0,0.0,-2.4985,-2.4462,-2.5262,-2.549,0.0,-2.839,-3.0279,0.0,0.0,0.0,-3.5385,-3.7701,-3.9507,-4.0908,-4.1616,-4.1997,-4.2236,-4.2272,-4.229,-4.2308,-4.2308,-4.2965,-4.3729,-4.4478,-4.5285,-4.6088,-4.6873,-4.6138,-4.5769,-4.6489,-4.5693,-4.5725,0.0,-4.744,-4.7962,-4.9234,-4.9346,-4.9677,-5.0363,-5.0166,-5.0621,-5.1909,-5.171,-5.2094,-5.3159,-5.3427,-5.3582,-5.3599,-5.3869,-5.4001,-5.4001,-5.3983,-5.3564,-5.2858,-5.2858,-5.2429,-5.169,-5.169,-5.169,-5.169,-5.169,-5.169,-5.169,-5.169,-5.169,-5.169,-0.8094,-0.8094,-0.8094,-0.8094,-0.8094,-0.8094,-0.8094,-0.8857,-0.9588,-1.0042,-1.1337,0.0,0.0,0.0,0.0,0.0,-1.5424,-1.7084,-1.9163,-2.0402,0.0,0.0,0.0,0.0,0.0,0.0,0.0,0.0,0.0,0.0,0.0,0.0,0.0,0.0,0.0,0.0,0.0,0.0,0.0,0.0,0.0,0.0,-3.0886,-2.9351,-2.7833,-2.6437,0.0,0.0,0.0,0.0,0.0,0.0,-2.365,0.0,0.0,-2.8262,0.0,-3.2175,0.0,0.0,-3.7667,-3.9525,-4.0784,-4.1637,-4.2071,-4.2246,-4.2308,-4.2308,-4.1877,-4.1663,-4.2218,-4.2519,-4.3126,-4.4389,-4.5285,-4.6002,-4.6648,-4.6424,-4.6012,-4.5418,-4.5481,0.0,0.0,0.0,0.0,-4.9179,-4.9091,-4.9515,-5.0795,-5.0794,-5.1168,-5.2101,-5.2265,-5.2834,-5.3903,-5.4222,-5.4755,-5.5462,-5.5544,-5.5204,-5.4453,-5.4688,-5.4384,-5.3599,-5.31,-5.2751,-5.2465,-5.1904,-5.169,-5.169,-5.169,-5.169,-5.169,-5.169,-5.169,-5.169,-0.8094,-0.8294,-0.8387,-0.814,-0.8294,0.0,0.0,0.0,0.0,0.0,0.0,0.0,0.0,0.0,0.0,0.0,0.0,-1.6869,-1.8454,0.0,0.0,0.0,0.0,0.0,0.0,0.0,0.0,0.0,0.0,0.0,0.0,0.0,0.0,0.0,0.0,0.0,0.0,0.0,0.0,0.0,0.0,0.0,-2.9317,-2.7764,-2.6402,0.0,0.0,0.0,0.0,0.0,0.0,0.0,0.0,0.0,0.0,-2.9346,-3.1479,-3.3672,0.0,-3.8172,-3.8988,-4.0872,-4.1689,-4.2082,-4.2267,-4.2308,-4.2216,-4.193,-4.1234,-4.0842,-4.1341,-4.1217,-4.1734,-4.3854,-4.4874,-4.5748,-4.6826,-4.6918,-4.6629,-4.5976,-4.6013,-4.5935,0.0,0.0,0.0,-4.865,-4.9054,-4.9786,-5.1045,-5.1343,-5.1886,-5.2732,-5.2989,-5.362,-5.4729,-5.4948,-5.5384,-5.6077,-5.6077,-5.5681,-5.5005,-5.5314,-5.4971,-5.4081,-5.3842,-5.3494,-5.3095,-5.2414,-5.205,-5.1938,-5.1772,-5.164,-5.1564,-5.1665,-5.169,-5.169,-0.8094,-0.8611,-0.8842,0.0,0.0,0.0,0.0,0.0,0.0,0.0,0.0,0.0,0.0,0.0,0.0,0.0,0.0,0.0,0.0,0.0,0.0,0.0,0.0,0.0,-2.3556,-2.4646,0.0,0.0,0.0,0.0,0.0,0.0,0.0,0.0,0.0,0.0,0.0,0.0,0.0,0.0,0.0,0.0,-2.7059,-2.5574,0.0,0.0,0.0,0.0,0.0,0.0,0.0,0.0,0.0,0.0,0.0,0.0,0.0,-3.5882,-3.8218,-3.8914,-3.9521,-4.1734,-4.2308,-4.2308,-4.2308,-4.2272,-4.2004,-4.1163,-4.0324,-3.9698,0.0,0.0,-3.9752,-4.2855,-4.4046,-4.5294,-4.738,-4.7523,-4.7603,0.0,0.0,0.0,0.0,0.0,0.0,-4.7862,0.0,-5.0373,-5.1183,-5.189,-5.2736,-5.3796,-5.3861,-5.4376,-5.5455,-5.5502,-5.5502,-5.5472,-5.5502,-5.5502,-5.5472,-5.5746,-5.5312,-5.4395,-5.4951,-5.4589,-5.3599,-5.313,-5.2748,-5.2405,-5.192,-5.1584,-5.136,-5.1582,-5.1665,-5.1665,0.0,0.0,0.0,0.0,0.0,0.0,0.0,0.0,0.0,0.0,0.0,0.0,0.0,0.0,0.0,0.0,0.0,0.0,0.0,0.0,0.0,0.0,0.0,0.0,0.0,0.0,0.0,0.0,0.0,0.0,0.0,0.0,0.0,0.0,0.0,0.0,0.0,0.0,0.0,0.0,0.0,0.0,-2.6099,0.0,0.0,0.0,0.0,0.0,0.0,0.0,0.0,0.0,0.0,0.0,-3.2074,0.0,0.0,-3.7848,-3.9073,-4.0384,-4.1538,-4.2144,-4.2308,-4.2308,-4.2308,-4.1841,-4.102,-3.9682,-3.8272,-3.7113,-3.6506,0.0,0.0,-4.0985,-4.2891,0.0,-4.6895,-4.7605,0.0,-4.782,0.0,-4.8293,-4.8499,-4.9079,0.0,0.0,-5.0097,-5.0821,-5.2718,-5.2994,-5.3473,-5.4309,-5.4556,-5.4844,-5.5113,-5.5383,-5.5383,-5.5144,-5.5383,-5.5383,-5.5144,-5.5472,-5.5437,-5.5168,-5.4942,-5.456,-5.4105,-5.3635,-5.3217,-5.2863,-5.2404,-5.2068,-5.1782,-5.1511,-5.1384,-5.1384,0.0,0.0,0.0,0.0,0.0,0.0,0.0,0.0,0.0,0.0,0.0,0.0,0.0,0.0,0.0,0.0,0.0,0.0,0.0,0.0,0.0,0.0,0.0,0.0,0.0,0.0,0.0,0.0,0.0,0.0,0.0,0.0,0.0,0.0,0.0,0.0,0.0,0.0,0.0,0.0,0.0,0.0,0.0,0.0,0.0,0.0,0.0,0.0,0.0,0.0,0.0,-3.0058,-3.0942,-3.2524,-3.4351,-3.6044,0.0,-3.9171,-4.0303,-4.1446,-4.2308,-4.2308,-4.2308,-4.204,-4.1002,-4.0414,-3.9361,-3.6756,-3.5489,0.0,-3.3366,0.0,0.0,0.0,0.0,0.0,-4.6708,-4.7944,-4.8643,0.0,-4.9344,0.0,-4.9792,-5.0528,-5.1287,0.0,-5.1735,-5.2063,-5.3339,-5.3718,-5.408,-5.4494,-5.4683,-5.4776,-5.4776,-5.4961,-5.4961,-5.4776,-5.4961,-5.4961,-5.4776,-5.5144,-5.5204,-5.5048,0.0,-5.4892,-5.4577,-5.4095,-5.3704,-5.3358,-5.2898,-5.2323,-5.1777,-5.1659,-5.1379,-5.1079,0.0,0.0,0.0,0.0,0.0,0.0,0.0,0.0,0.0,0.0,0.0,0.0,0.0,0.0,0.0,0.0,0.0,0.0,0.0,0.0,0.0,0.0,0.0,0.0,0.0,0.0,0.0,0.0,0.0,0.0,0.0,0.0,0.0,0.0,0.0,0.0,0.0,0.0,0.0,0.0,0.0,0.0,0.0,0.0,0.0,0.0,0.0,0.0,0.0,0.0,-3.0731,-3.2458,-3.3562,-3.5355,-3.7318,-3.894,-3.9631,-4.0156,-4.1499,-4.2082,-4.2308,-4.2308,-4.2216,-4.1538,-3.9325,-3.8539,-3.7238,-3.3382,0.0,-3.1829,-3.0315,-3.2458,-3.4995,-3.6724,0.0,-4.4218,-4.6621,-4.8099,-4.925,-5.0057,-5.0718,-5.1183,-5.1407,-5.1994,-5.2701,-5.3494,-5.3546,-5.3546,-5.3546,-5.4149,-5.4512,-5.4512,-5.4512,-5.4512,-5.4512,-5.4512,-5.4512,-5.4512,-5.4512,-5.4512,-5.4512,-5.4807,-5.4776,-5.4543,-5.5174,-5.5234,-5.4909,-5.453,-5.422,-5.3848,-5.3393,-5.2537,-5.161,-5.1836,-5.1423,-5.0766,0.0,0.0,0.0,0.0,0.0,0.0,0.0,0.0,0.0,0.0,-1.2893,-1.24,0.0,0.0,0.0,0.0,0.0,0.0,0.0,0.0,0.0,0.0,0.0,0.0,0.0,0.0,0.0,0.0,0.0,0.0,0.0,0.0,0.0,0.0,0.0,0.0,0.0,0.0,0.0,0.0,0.0,0.0,0.0,0.0,0.0,0.0,0.0,0.0,0.0,0.0,-3.1783,-3.4976,-3.7016,-3.8346,-3.9352,-4.0314,-4.0911,-4.1297,-4.1561,-4.1956,-4.2308,-4.2308,-4.1787,-4.0877,-3.9163,-3.7273,0.0,0.0,0.0,-2.8744,-2.7781,-3.0014,0.0,-3.5529,0.0,0.0,0.0,0.0,-4.8031,0.0,0.0,0.0,0.0,0.0,0.0,0.0,0.0,-5.4322,-5.4322,-5.4443,-5.4512,-5.4512,-5.4512,-5.4512,-5.4512,-5.4512,-5.4512,-5.4512,-5.4512,-5.4512,-5.4512,-5.4575,-5.4557,-5.4512,-5.493,0.0,-5.4589,-5.4791,-5.4661,-5.4344,-5.384,-5.3016,-5.2032,-5.1715,-5.1098,-5.0481,0.0,0.0,0.0,0.0,0.0,0.0,0.0,-1.262,-1.4098,-1.5116,-1.477,-1.4388,-1.4264,-1.4529,0.0,0.0,0.0,0.0,0.0,0.0,0.0,0.0,0.0,0.0,0.0,0.0,0.0,0.0,0.0,0.0,0.0,0.0,0.0,0.0,0.0,0.0,0.0,0.0,0.0,0.0,0.0,0.0,0.0,0.0,0.0,0.0,0.0,0.0,0.0,0.0,-3.0663,-3.4053,-3.7085,-3.8784,-3.9767,-4.0146,-4.089,-4.1604,-4.1604,-4.1952,-4.2308,-4.2308,-4.1698,-4.0271,-3.7095,0.0,0.0,0.0,0.0,-2.659,-2.5408,0.0,0.0,0.0,0.0,0.0,0.0,0.0,0.0,0.0,0.0,0.0,0.0,0.0,0.0,0.0,0.0,-5.4512,-5.4512,-5.4512,-5.4512,-5.4512,-5.4512,-5.4512,-5.4512,-5.4512,-5.4512,-5.4512,-5.4512,-5.4512,-5.4512,-5.4512,-5.4512,-5.4512,-5.4652,-5.4652,-5.4512,-5.4652,-5.4669,-5.4477,-5.4254,-5.3358,-5.2166,-5.1954,-5.1147,-5.0178,0.0,0.0,0.0,0.0,0.0,0.0,0.0,-1.3359,-1.4898,-1.6294,-1.6742,-1.6688,-1.6022,-1.5673,-1.5513,0.0,0.0,0.0,0.0,0.0,0.0,0.0,0.0,0.0,0.0,0.0,0.0,0.0,0.0,0.0,0.0,0.0,0.0,0.0,0.0,0.0,0.0,0.0,0.0,0.0,0.0,0.0,0.0,0.0,0.0,0.0,0.0,0.0,0.0,0.0,-2.8725,-3.1376,-3.48,-3.7435,-3.925,-3.9422,-4.0374,-4.1394,-4.1569,-4.1952,-4.2308,-4.2308,-4.1448,-3.9468,-3.5096,-3.308,0.0,0.0,0.0,-2.4985,-2.3951,0.0,0.0,0.0,0.0,0.0,0.0,0.0,0.0,0.0,0.0,0.0,0.0,0.0,0.0,0.0,0.0,0.0,-5.4512,-5.4512,-5.4512,-5.4512,-5.4512,-5.4512,-5.4512,-5.4512,-5.4512,-5.4512,-5.4512,-5.4512,-5.4512,-5.4512,-5.4512,-5.4512,-5.4512,-5.4512,-5.4512,-5.4512,-5.4512,-5.4512,-5.4512,-5.3667,-5.2429,-5.2239,-5.136,-5.0218,0.0,0.0,0.0,0.0,0.0,0.0,0.0,-1.3425,-1.5659,-1.7189,-1.7922,-1.834,-1.8365,-1.7178,-1.6358,0.0,0.0,0.0,0.0,0.0,0.0,0.0,0.0,0.0,0.0,0.0,0.0,0.0,0.0,0.0,0.0,0.0,0.0,0.0,0.0,0.0,0.0,0.0,0.0,0.0,0.0,0.0,0.0,0.0,0.0,0.0,0.0,0.0,0.0,0.0,0.0,-2.7274,-2.9807,-3.3875,-3.784,-3.8491,0.0,0.0,-4.1411,-4.1952,-4.2308,-4.2308,-4.0646,-3.8165,-3.4848,0.0,0.0,0.0,-2.4165,-2.3898,-2.448,0.0,0.0,0.0,0.0,0.0,0.0,0.0,0.0,0.0,0.0,0.0,0.0,0.0,0.0,0.0,0.0,0.0,-5.4512,-5.4512,-5.4512,-5.4512,-5.4512,-5.4512,-5.4512,-5.4512,-5.4512,-5.4512,-5.4512,-5.4512,-5.4512,-5.4512,-5.4512,-5.4512,-5.4512,-5.4512,0.0,-5.4512,-5.4512,-5.4512,-5.4512,-5.4011,-5.3201,-5.2477,-5.1701,-5.0907,0.0,0.0,0.0,0.0,0.0,0.0,-1.2128,-1.3636,-1.5404,-1.762,-1.8357,-1.8665,-1.8589,-1.8233,-1.7595,0.0,0.0,0.0,0.0,0.0,0.0,0.0,0.0,0.0,0.0,0.0,0.0,0.0,0.0,0.0,0.0,0.0,0.0,0.0,0.0,0.0,0.0,0.0,0.0,0.0,0.0,0.0,0.0,0.0,0.0,0.0,0.0,0.0,0.0,0.0,0.0,0.0,-2.6895,-2.9528,0.0,0.0,-3.746,-3.9319,-4.0604,-4.1492,-4.2103,-4.2267,-4.0538,-3.7862,-3.4204,0.0,0.0,-2.4718,-2.3719,-2.3594,-2.3915,-2.4623,-2.5936,0.0,-2.992,0.0,0.0,0.0,0.0,0.0,0.0,0.0,0.0,0.0,0.0,0.0,0.0,0.0,-5.4512,-5.4512,-5.4512,-5.4512,-5.4512,-5.4512,-5.4512,-5.4512,-5.4512,-5.4512,-5.4512,-5.4512,-5.4512,-5.4512,-5.4512,-5.4512,-5.4512,-5.4512,0.0,-5.4512,-5.4512,-5.4512,-5.4512,-5.4046,-5.3304,-5.2511,-5.1722,-5.0994,0.0,0.0,0.0,0.0,0.0,-1.0666,-1.2328,-1.3682,-1.5278,-1.7479,-1.8181,-1.8532,-1.8693,-1.8562,-1.807,-1.7136,0.0,0.0,0.0,0.0,0.0,0.0,0.0,0.0,0.0,0.0,0.0,0.0,0.0,0.0,0.0,0.0,0.0,0.0,0.0,0.0,0.0,0.0,0.0,0.0,0.0,0.0,0.0,0.0,0.0,0.0,0.0,0.0,0.0,0.0,0.0,0.0,0.0,0.0,0.0,0.0,-3.5306,-3.7529,-3.9669,-4.0888,-4.1623,-4.1889,-4.0182,-3.7416,0.0,0.0,-2.7981,-2.4272,-2.3505,-2.3505,-2.3505,-2.3951,-2.4926,0.0,-2.8177,-3.0549,-3.4684,0.0,0.0,0.0,0.0,0.0,0.0,0.0,0.0,0.0,0.0,0.0,-5.4512,-5.4512,-5.4512,-5.4512,-5.4512,-5.4512,-5.4512,-5.4512,-5.4512,-5.4512,-5.4512,-5.4512,-5.4512,-5.4512,-5.4512,-5.4512,-5.4512,-5.4512,0.0,-5.4512,-5.4512,-5.4512,-5.4512,-5.4184,-5.3598,-5.2597,-5.186,-5.1304,0.0,0.0,0.0,0.0,0.0,0.0,-1.1026,-1.344,-1.557,-1.6573,-1.73,-1.8095,-1.9093,-1.7954,-1.7387,-1.8022,0.0,0.0,0.0,0.0,0.0,0.0,0.0,0.0,0.0,0.0,-1.9684,-1.95,-2.0968,0.0,0.0,0.0,0.0,0.0,0.0,0.0,0.0,0.0,0.0,0.0,0.0,0.0,0.0,0.0,0.0,0.0,0.0,0.0,0.0,0.0,0.0,0.0,0.0,0.0,0.0,0.0,-3.3423,-3.5355,-3.8687,-4.02,-4.0864,-4.1049,-3.9343,-3.6577,0.0,-2.9904,-2.7322,-2.4147,-2.3505,-2.3505,-2.3505,-2.3505,-2.4272,-2.6621,-2.8181,-3.0904,-3.6136,0.0,0.0,0.0,0.0,0.0,0.0,0.0,0.0,0.0,0.0,0.0,-5.4512,-5.4512,-5.4512,-5.4512,-5.4512,-5.4512,-5.4512,-5.4512,-5.4512,-5.4512,-5.4512,-5.4512,-5.4512,-5.4512,-5.4512,-5.4512,-5.4512,-5.4512,0.0,-5.4512,-5.4512,-5.4512,-5.4512,-5.4512,-5.4305,-5.2756,-5.2188,-5.1964,0.0,0.0,0.0,0.0,0.0,0.0,0.0,-1.1841,-1.3012,-1.4757,-1.5348,-1.5879,-1.6652,-1.6515,-1.6642,-1.7354,0.0,0.0,0.0,0.0,0.0,0.0,0.0,0.0,0.0,0.0,-1.9779,-1.9714,-2.118,-2.194,-2.1996,0.0,0.0,0.0,0.0,0.0,0.0,0.0,0.0,0.0,0.0,0.0,0.0,0.0,0.0,0.0,0.0,0.0,0.0,0.0,0.0,0.0,0.0,0.0,0.0,-2.708,0.0,0.0,-3.3564,-3.4942,-3.5881,-3.5562,-3.4524,-3.2813,-2.9961,-2.8316,-2.6639,-2.404,-2.3505,-2.3505,-2.3505,-2.3505,-2.4629,-2.8084,0.0,0.0,0.0,0.0,0.0,0.0,0.0,0.0,0.0,0.0,0.0,0.0,0.0,0.0,-5.4512,-5.4512,-5.4512,-5.4512,-5.4512,-5.4512,-5.4512,-5.4512,-5.4512,-5.4512,-5.4512,-5.4512,-5.4512,-5.4512,-5.4512,-5.4512,-5.4512,-5.4512,-5.4512,-5.4512,-5.4512,-5.4512,-5.4512,-5.4512,-5.4322,-5.2756,-5.2188,-5.1981,0.0,0.0,0.0,0.0,0.0,0.0,0.0,-1.101,-1.2005,-1.3375,-1.391,-1.4583,-1.5631,-1.5432,-1.5718,-1.6982,0.0,0.0,0.0,0.0,0.0,0.0,0.0,0.0,0.0,-1.8804,-1.971,-2.0035,-2.1251,-2.2007,-2.2292,-2.2368,-2.2027,0.0,0.0,0.0,0.0,0.0,0.0,0.0,0.0,0.0,-2.2806,0.0,0.0,0.0,0.0,0.0,0.0,0.0,0.0,0.0,0.0,0.0,0.0,0.0,-2.6545,-2.8546,0.0,-3.1933,-3.2766,-3.2497,-3.1831,-3.0636,-2.8267,-2.7121,-2.5961,-2.3915,-2.3505,-2.3494,-2.343,-2.3471,-2.4492,-2.7513,0.0,0.0,0.0,0.0,0.0,0.0,0.0,0.0,0.0,0.0,0.0,0.0,0.0,0.0,-5.4512,-5.4512,-5.4512,-5.4512,-5.4512,-5.4512,-5.4512,-5.4512,-5.4512,-5.4512,-5.4512,-5.4512,-5.4512,-5.4512,-5.4512,-5.4512,-5.4512,-5.4512,0.0,-5.4512,-5.4512,-5.4512,-5.4512,-5.4512,-5.4322,-5.2756,-5.2188,-5.1981,0.0,0.0,0.0,0.0,0.0,0.0,0.0,0.0,-1.2143,-1.2388,-1.301,-1.4018,-1.5591,-1.46,-1.4659,-1.6755,0.0,0.0,0.0,0.0,0.0,0.0,0.0,0.0,-1.7344,-1.8613,-1.9654,-2.0406,-2.1337,-2.2166,-2.2903,-2.271,-2.2315,-2.1762,-2.0957,0.0,0.0,0.0,0.0,0.0,0.0,-2.2904,0.0,0.0,0.0,0.0,0.0,0.0,0.0,0.0,0.0,0.0,0.0,0.0,0.0,0.0,0.0,0.0,0.0,-3.0465,-3.0942,-3.1072,-3.06,-2.9512,-2.7264,-2.6211,0.0,-2.382,-2.3517,-2.3524,-2.3573,-2.362,-2.4225,-2.6016,0.0,0.0,0.0,0.0,0.0,0.0,0.0,0.0,0.0,0.0,0.0,0.0,0.0,0.0,-5.4512,-5.4512,-5.4512,-5.4512,-5.4512,-5.4512,-5.4512,-5.4512,-5.4512,-5.4512,-5.4512,-5.4512,-5.4512,-5.4512,-5.4512,0.0,-5.4512,-5.4512,-5.4512,-5.4512,-5.4512,-5.4512,-5.4512,-5.4512,-5.4322,-5.2756,-5.2188,-5.1981,0.0,0.0,0.0,0.0,0.0,0.0,0.0,0.0,0.0,0.0,-1.226,-1.2903,-1.3352,-1.32,-1.3692,0.0,0.0,0.0,0.0,0.0,0.0,0.0,0.0,0.0,-1.776,-1.9304,-2.0269,-2.0558,-2.2641,-2.3753,-2.3963,-2.4515,-2.4375,-2.363,-2.2825,-2.2099,0.0,0.0,0.0,0.0,-2.3182,-2.2904,0.0,0.0,0.0,0.0,-2.2278,-2.2566,0.0,0.0,0.0,0.0,0.0,0.0,0.0,0.0,-2.4091,-2.4342,-2.5102,0.0,-2.6147,-2.5561,-2.5747,-2.5765,0.0,-2.4659,0.0,0.0,0.0,0.0,0.0,0.0,0.0,0.0,0.0,0.0,0.0,0.0,0.0,0.0,0.0,0.0,0.0,0.0,0.0,0.0,0.0,-5.4512,-5.4512,-5.4512,-5.4512,-5.4512,-5.4512,-5.4512,-5.4512,-5.4512,-5.4512,-5.4512,-5.4512,-5.4512,-5.4512,-5.4512,-5.4512,-5.4512,-5.4512,-5.4512,-5.4512,-5.4512,-5.4512,-5.4512,-5.4512,-5.4512,-5.4322,-5.2756,-5.2188,-5.1981,0.0,0.0,0.0,0.0,0.0,0.0,0.0,0.0,0.0,0.0,0.0,0.0,0.0,0.0,0.0,0.0,0.0,0.0,0.0,0.0,0.0,0.0,0.0,-1.7715,-1.7943,-1.9264,-2.0216,-2.0785,-2.2529,-2.3566,-2.3938,-2.438,-2.4345,-2.3908,-2.3417,-2.2723,0.0,0.0,0.0,0.0,-2.3194,0.0,0.0,0.0,0.0,0.0,-2.1348,-2.187,0.0,-2.3271,-2.3745,-2.4026,0.0,0.0,0.0,0.0,-2.4114,-2.3986,-2.3876,-2.4565,-2.5255,-2.4841,-2.4974,-2.5111,-2.48,0.0,0.0,0.0,0.0,0.0,0.0,0.0,0.0,0.0,0.0,0.0,0.0,0.0,0.0,0.0,0.0,0.0,0.0,0.0,0.0,0.0,0.0,-5.346,-5.346,-5.346,-5.3615,-5.3994,-5.4011,-5.4167,-5.4512,-5.4512,-5.4512,-5.4512,-5.4512,-5.4512,-5.4512,-5.4512,-5.4512,-5.4512,-5.4512,-5.4512,-5.4512,-5.4512,-5.4512,-5.4477,-5.4132,-5.4011,-5.3822,-5.227,-5.1718,-5.1515,0.0,0.0,0.0,0.0,0.0,0.0,0.0,0.0,0.0,0.0,0.0,0.0,0.0,0.0,0.0,0.0,0.0,0.0,0.0,0.0,0.0,0.0,0.0,-1.7828,-1.8226,-1.9115,-2.0123,-2.1185,-2.2278,-2.3178,-2.3844,-2.3987,-2.3844,-2.3494,-2.3259,-2.2758,0.0,0.0,0.0,0.0,-2.3043,0.0,0.0,0.0,0.0,0.0,0.0,0.0,0.0,-2.258,-2.3318,-2.3931,-2.4208,0.0,0.0,0.0,0.0,0.0,-2.4462,-2.5578,-2.6573,-2.6091,-2.5979,-2.6011,0.0,0.0,0.0,0.0,0.0,0.0,0.0,0.0,0.0,0.0,0.0,0.0,0.0,0.0,0.0,0.0,0.0,0.0,0.0,0.0,0.0,0.0,0.0,-5.2188,-5.2188,-5.2188,-5.2498,-5.3201,-5.3218,-5.3529,-5.4149,-5.4287,-5.4339,-5.4339,-5.4339,-5.4391,-5.4512,-5.4512,-5.4512,-5.4512,0.0,0.0,-5.4494,-5.4391,-5.4339,-5.427,-5.3511,-5.3218,-5.3046,-5.1632,-5.1114,-5.0994,0.0,0.0,0.0,0.0,0.0,0.0,0.0,0.0,0.0,0.0,0.0,0.0,0.0,0.0,0.0,0.0,0.0,0.0,0.0,0.0,0.0,-1.8098,-1.7933,-1.83,-1.925,-2.0019,-2.0939,-2.2025,-2.4201,-2.5337,-2.5461,-2.6139,-2.5408,-2.347,-2.2763,-2.2316,-2.212,0.0,0.0,-2.3234,0.0,0.0,0.0,0.0,0.0,0.0,0.0,0.0,0.0,-2.1872,-2.2671,-2.3329,-2.338,0.0,0.0,0.0,0.0,0.0,-2.6498,-2.81,-2.8612,-2.5667,-2.5892,-2.6652,0.0,0.0,0.0,0.0,0.0,0.0,0.0,0.0,0.0,0.0,0.0,0.0,0.0,0.0,0.0,0.0,0.0,0.0,0.0,0.0,0.0,0.0,0.0,-5.2188,-5.2188,-5.2188,-5.2239,-5.236,-5.236,-5.2429,-5.2532,-5.3235,-5.358,-5.358,-5.358,-5.3908,-5.4512,-5.4512,-5.4512,-5.4512,0.0,-5.4512,-5.446,-5.3839,-5.358,-5.3494,-5.2701,-5.236,-5.2274,-5.1425,-5.1114,-5.0994,0.0,0.0,0.0,0.0,0.0,0.0,0.0,0.0,0.0,0.0,0.0,0.0,0.0,0.0,0.0,0.0,0.0,0.0,0.0,0.0,-1.828,-1.8758,-1.8769,-1.9022,-1.9591,-2.082,-2.1935,-2.2903,-2.4456,-2.5212,-2.5212,-2.514,-2.4302,-2.2839,-2.2475,-2.2014,-2.1587,-2.221,-2.2689,-2.298,0.0,0.0,0.0,0.0,0.0,0.0,0.0,0.0,0.0,0.0,-2.2182,-2.3203,-2.3203,0.0,0.0,0.0,0.0,0.0,-2.5408,-2.7063,-2.8275,-2.6944,-2.8322,-2.984,0.0,0.0,0.0,0.0,0.0,0.0,0.0,0.0,0.0,0.0,0.0,0.0,0.0,0.0,0.0,0.0,0.0,0.0,0.0,0.0,0.0,0.0,0.0,0.0,-5.1028,-5.1028,-5.12,-5.1584,-5.1602,-5.1602,-5.1602,-5.1977,-5.2373,-5.277,-5.277,-5.2942,-5.327,-5.327,-5.327,-5.327,0.0,-5.327,-5.3253,-5.2908,-5.277,-5.2684,-5.1925,-5.1602,-5.1498,-5.0787,-5.0528,-5.0476,0.0,0.0,0.0,0.0,0.0,0.0,0.0,0.0,0.0,0.0,0.0,0.0,0.0,0.0,0.0,0.0,0.0,0.0,0.0,0.0,-1.8262,-1.9037,-1.9549,-1.9948,-2.0237,-2.1704,-2.2797,-2.3505,-2.448,-2.4873,-2.4694,-2.4058,-2.316,-2.2029,-2.2029,-2.1593,-2.0936,-2.1704,-2.2172,-2.2404,0.0,0.0,0.0,0.0,0.0,0.0,0.0,0.0,0.0,0.0,0.0,0.0,0.0,0.0,0.0,-2.45,-2.45,-2.4541,-2.4771,-2.614,-2.7695,-2.8541,0.0,-3.1909,0.0,0.0,0.0,0.0,0.0,0.0,0.0,0.0,0.0,0.0,0.0,0.0,0.0,0.0,0.0,0.0,0.0,0.0,0.0,0.0,0.0,0.0,0.0,0.0,-5.0011,-5.0011,-5.0269,-5.0838,-5.0856,-5.0856,-5.0856,-5.0856,-5.1218,-5.1929,-5.1929,-5.2015,-5.2188,-5.2188,-5.2188,-5.2188,-5.2188,-5.2188,-5.217,-5.1998,-5.1929,-5.186,-5.1149,-5.0856,-5.0787,-5.0218,-5.0011,-5.0011,0.0,0.0,0.0,0.0,0.0,0.0,0.0,0.0,0.0,0.0,0.0,0.0,0.0,0.0,0.0,0.0,0.0,0.0,0.0,0.0,-1.7465,-1.8332,-1.9871,-2.1059,-2.1814,-2.2747,-2.3312,-2.3505,-2.4985,-2.5372,-2.4694,-2.4641,-2.3392,-2.1197,-2.1197,-2.0839,-2.0272,-2.0336,-2.0953,-2.1776,-2.0922,0.0,0.0,0.0,0.0,0.0,0.0,0.0,0.0,0.0,0.0,0.0,0.0,0.0,-2.45,-2.45,-2.45,-2.4903,-2.6746,-2.7361,-2.7967,-2.9866,0.0,0.0,0.0,0.0,0.0,0.0,0.0,0.0,0.0,0.0,0.0,0.0,0.0,0.0,0.0,0.0,0.0,0.0,0.0,0.0,0.0,0.0,0.0,0.0,0.0,0.0,-5.0011,-5.0011,-5.0028,-5.008,-5.008,-5.008,-5.008,-5.008,-5.0459,-5.1183,-5.1183,-5.1563,-5.2188,-5.2188,-5.2188,-5.2188,-5.2188,-5.2188,-5.2136,-5.1447,-5.1183,-5.1114,-5.0373,-5.008,-5.008,-5.0028,-5.0011,-5.0011,0.0,0.0,0.0,0.0,0.0,0.0,0.0,0.0,0.0,0.0,0.0,0.0,0.0,0.0,0.0,0.0,0.0,0.0,0.0,-1.6262,-1.7389,-1.8255,-1.9917,-2.0969,-2.137,-2.2715,-2.3684,-2.4248,-2.4837,-2.498,-2.4694,-2.4183,-2.3195,-2.185,-2.1983,-2.1632,-2.095,-2.1115,-2.1429,-2.1725,-2.0957,-2.0706,0.0,0.0,0.0,0.0,0.0,0.0,0.0,0.0,-2.0919,-2.1977,0.0,0.0,0.0,0.0,-2.4082,-2.4633,-2.5293,-2.7052,-2.893,-2.9745,0.0,0.0,0.0,0.0,0.0,0.0,0.0,0.0,0.0,0.0,0.0,0.0,0.0,0.0,0.0,0.0,0.0,0.0,0.0,0.0,0.0,0.0,0.0,0.0,0.0,0.0,-5.0011,-5.0011,-5.0011,-5.0011,-5.0011,-5.0011,-5.0011,-5.0011,-5.0149,-5.0424,-5.0424,-5.0562,-5.0838,-5.0838,-5.0838,-5.0838,-5.0838,-5.0838,-5.0821,-5.0545,-5.0424,-5.039,-5.0114,-5.0011,-5.0011,-5.0011,-5.0011,-5.0011,0.0,0.0,0.0,0.0,0.0,0.0,0.0,0.0,0.0,0.0,0.0,0.0,0.0,0.0,0.0,0.0,0.0,0.0,-1.4631,-1.5717,-1.6832,-1.7949,-1.9345,-2.0294,-2.0692,-2.2295,-2.3392,-2.3945,-2.4195,-2.432,-2.4308,-2.3755,-2.3093,-2.24,-2.2543,-2.2192,-2.1516,-2.1447,-2.1455,-2.144,-2.0982,-2.0641,0.0,0.0,0.0,0.0,0.0,0.0,0.0,0.0,-2.0715,0.0,0.0,0.0,0.0,0.0,-2.4346,-2.5116,-2.4925,-2.6781,-2.9017,0.0,0.0,0.0,0.0,0.0,0.0,0.0,0.0,0.0,0.0,0.0,0.0,0.0,0.0,0.0,0.0,0.0,0.0,0.0,0.0,0.0,0.0,0.0,0.0,0.0,0.0,0.0,0.0,-5.0011,-5.0011,-5.0011,-5.0011,-5.0011,-5.0011,-5.0011,-5.0011,-5.0011,-5.0011,-5.0011,-5.0011,-5.0011,-5.0011,-5.0011,-5.0011,-5.0011,-5.0011,-5.0011,-5.0011,-5.0011,-5.0011,-5.0011,-5.0011,-5.0011,-5.0011,-5.0011,0.0,0.0,0.0,0.0,0.0,0.0,0.0,0.0,0.0,0.0,0.0,0.0,0.0,0.0,0.0,0.0,0.0,0.0,-1.4727,-1.4855,-1.5627,-1.7213,-1.8123,-1.9041,-1.9966,-2.1493,-2.2296,-2.2296,-2.3095,-2.3487,-2.3487,-2.3487,-2.3177,-2.2612,-2.2612,-2.2326,-2.177,-2.0952,-2.0691,-2.0808,-2.079,-2.0325,-1.9701,0.0,0.0,0.0,0.0,0.0,0.0,0.0,-2.079,0.0,0.0,0.0,0.0,0.0,-2.5485,-2.6547,-2.6355,-2.6801,0.0,0.0,0.0,0.0,0.0,0.0,0.0,0.0,0.0,0.0,0.0,0.0,0.0,0.0,0.0,0.0,0.0,0.0,0.0,0.0,0.0,0.0,0.0,0.0,0.0,0.0,0.0,0.0,0.0,-5.0011,-5.0011,-5.0011,-5.0011,-5.0011,-5.0011,-5.0011,-5.0011,-5.0011,-5.0011,-5.0011,-5.0011,-5.0011,-5.0011,-5.0011,-5.0011,-5.0011,-5.0011,-5.0011,-5.0011,-5.0011,-5.0011,-5.0011,-4.9982,-5.0011,-5.0011,-5.0011,0.0,0.0,0.0,0.0,0.0,0.0,0.0,0.0,0.0,0.0,0.0,0.0,0.0,0.0,0.0,0.0,0.0,0.0,-1.3997,-1.4567,-1.5407,-1.6544,-1.7878,-1.8766,-1.9154,-2.0162,-2.1207,-2.2296,-2.2546,-2.266,-2.2671,-2.279,-2.3037,-2.3389,-2.3613,-2.3318,-2.2609,-2.189,-2.1612,-2.1588,-2.1031,-2.066,-2.0474,0.0,0.0,0.0,0.0,0.0,0.0,0.0,0.0,0.0,0.0,0.0,0.0,-2.3694,-2.4626,-2.5775,-2.5863,0.0,0.0,0.0,0.0,0.0,0.0,0.0,0.0,0.0,0.0,0.0,0.0,0.0,0.0,0.0,0.0,0.0,0.0,0.0,0.0,0.0,0.0,0.0,0.0,0.0,0.0,0.0,0.0,0.0,0.0,-5.0011,-5.0011,-5.0011,-5.0011,-5.0011,-5.0011,-5.0011,-5.0011,-5.0011,-5.0011,-5.0011,-5.0011,-5.0011,-5.0011,-5.0011,-5.0011,-5.0011,-5.0011,-5.0011,-4.9772,-4.9453,-4.986,-4.9547,-4.8903,-4.9303,-4.9453,-4.9453,0.0,0.0,0.0,0.0,0.0,0.0,0.0,0.0,0.0,0.0,0.0,-1.2549,0.0,0.0,0.0,0.0,0.0,0.0,0.0,-1.4533,-1.541,-1.6259,-1.7524,-1.8546,-1.9261,-2.0037,-2.0751,-2.1386,-2.1689,-2.1993,-2.2296,-2.2512,-2.2981,-2.3714,-2.4049,-2.3759,-2.2968,-2.2274,-2.1996,-2.1959,-2.1476,-2.1087,-2.0827,0.0,0.0,0.0,0.0,0.0,0.0,0.0,0.0,0.0,0.0,0.0,0.0,-2.3487,-2.4624,-2.6046,-2.7369,0.0,0.0,0.0,0.0,0.0,0.0,0.0,0.0,0.0,0.0,0.0,0.0,0.0,0.0,0.0,0.0,0.0,0.0,0.0,0.0,0.0,0.0,0.0,0.0,0.0,0.0,0.0,0.0,0.0,0.0,-4.9838,-5.0011,-5.0011,-5.0011,-5.0011,-5.0011,-5.0011,-4.9906,-4.9666,-4.9666,-4.956,-4.9364,-4.9607,-4.9666,-4.9666,-4.9471,-4.9364,-4.9364,-4.9364,-4.9165,-4.8917,-4.9243,-4.8981,-4.8448,-4.8762,-4.8886,-4.8886,0.0,0.0,-0.8488,-0.9165,0.0,0.0,0.0,0.0,0.0,0.0,0.0,-1.2781,0.0,0.0,0.0,-1.3421,0.0,0.0,0.0,0.0,-1.553,-1.6284,-1.7274,-1.853,-2.0073,-2.0697,-2.068,-2.0002,-2.068,-2.1422,-2.2211,-2.2414,-2.2947,-2.3756,-2.3985,-2.3649,-2.2857,-2.2189,-2.1885,-2.1885,-2.1885,-2.1458,-2.0882,-2.1606,0.0,0.0,0.0,0.0,0.0,0.0,0.0,0.0,0.0,0.0,0.0,-2.3474,-2.5108,-2.686,0.0,0.0,0.0,0.0,0.0,0.0,0.0,0.0,0.0,0.0,0.0,0.0,0.0,0.0,0.0,0.0,0.0,0.0,0.0,0.0,0.0,0.0,0.0,0.0,0.0,0.0,0.0,0.0,0.0,0.0,0.0,-4.9407,-4.9804,-4.9804,-4.9804,-4.9804,-4.9804,-4.9729,-4.949,-4.9005,-4.8961,-4.8734,-4.8316,-4.8869,-4.9118,-4.9087,-4.8606,-4.84,-4.84,-4.84,-4.8368,-4.8353,-4.8368,-4.8336,-4.8289,-4.8321,-4.8353,-4.8353,0.0,0.0,-0.9881,-1.0549,0.0,0.0,0.0,0.0,-1.2287,-1.2282,-1.2588,-1.2845,-1.2995,-1.3244,0.0,-1.3549,-1.3644,0.0,0.0,0.0,-1.5543,-1.633,-1.8369,-1.9912,-2.084,-2.0448,-2.0162,-2.0002,-2.0162,-2.0696,-2.1588,-2.1645,-2.2524,-2.4069,-2.3502,-2.2873,-2.216,-2.1394,-2.1049,-2.1049,-2.1049,-2.0957,-2.0808,-2.0994,-2.0455,0.0,0.0,0.0,0.0,0.0,0.0,0.0,-2.0548,-2.1235,-2.1951,-2.3087,-2.4365,0.0,0.0,0.0,0.0,0.0,0.0,0.0,0.0,0.0,0.0,0.0,0.0,0.0,0.0,0.0,0.0,0.0,0.0,0.0,0.0,0.0,0.0,0.0,0.0,0.0,0.0,0.0,0.0,0.0,0.0,0.0,-4.7931,-4.8086,-4.8172,-4.8172,-4.8172,-4.8172,-4.8172,-4.7826,-4.7607,-4.7474,-4.7102,-4.718,-4.7644,-4.8291,-4.8574,-4.8574,-4.8448,-4.84,-4.84,-4.84,-4.8161,-4.7886,-4.8274,-4.7934,-4.727,-4.7721,-4.7853,-4.7853,0.0,0.0,0.0,0.0,0.0,0.0,0.0,0.0,-1.2451,-1.2497,-1.2781,-1.3043,-1.3182,-1.3379,0.0,0.0,-1.3738,-1.3838,0.0,0.0,-1.6312,-1.7495,-1.9127,-2.0002,-1.9992,-2.0002,-2.0002,-2.0002,-2.0002,-2.0425,-2.1267,-2.2102,-2.3246,-2.4555,-2.3811,-2.3107,-2.2399,-2.1206,-2.0745,-2.079,-2.079,-2.079,-2.079,-2.079,-2.0288,-1.9609,-1.9609,0.0,0.0,0.0,0.0,0.0,0.0,0.0,-2.1646,-2.2777,-2.3612,-2.4978,0.0,0.0,0.0,0.0,0.0,0.0,0.0,0.0,0.0,0.0,0.0,0.0,0.0,0.0,0.0,0.0,0.0,0.0,0.0,0.0,0.0,0.0,0.0,0.0,0.0,0.0,0.0,0.0,0.0,-4.7182,-4.7182,-4.75,-4.7689,-4.7689,-4.7689,-4.7589,-4.7375,-4.7113,-4.6777,-4.6267,-4.6024,-4.6009,-4.6187,-4.747,-4.7918,-4.7671,-4.7671,-4.7671,-4.7671,-4.7671,-4.7538,-4.732,-4.7588,-4.7354,-4.6911,-4.7218,-4.7336,-4.7336,0.0,0.0,0.0,0.0,0.0,0.0,0.0,0.0,0.0,-1.2712,-1.2991,-1.3227,-1.3303,-1.3493,-1.3644,0.0,0.0,0.0,-1.4009,0.0,0.0,-1.8726,-1.9573,-1.9698,-1.9011,-1.952,-1.9787,-1.9787,-1.9787,-2.0376,-2.1554,-2.3034,-2.4187,-2.502,-2.4322,-2.3573,-2.2701,-2.1244,-2.0614,-2.0585,-2.0585,-2.0493,-2.0381,-2.053,-2.0091,-1.9404,-1.9553,-1.9609,-1.9627,-1.9757,0.0,0.0,0.0,0.0,-2.1045,-2.2266,-2.2803,-2.4003,0.0,0.0,0.0,0.0,0.0,0.0,0.0,0.0,0.0,0.0,0.0,0.0,0.0,0.0,0.0,0.0,0.0,0.0,0.0,0.0,0.0,0.0,0.0,0.0,0.0,0.0,0.0,0.0,0.0,-4.6379,-4.6379,-4.6965,-4.7265,-4.7193,-4.7193,-4.6953,-4.6491,-4.6387,-4.5958,-4.5116,-4.517,-4.4998,-4.4691,-4.6405,-4.7026,-4.6698,-4.6828,-4.6876,-4.6876,-4.6876,-4.6876,-4.6876,-4.6876,-4.6876,-4.6876,-4.6807,-4.6842,-4.6876,0.0,0.0,0.0,0.0,0.0,0.0,0.0,0.0,0.0,0.0,-1.3027,-1.3252,-1.3379,-1.3565,-1.3698,-1.3705,-1.389,-1.3984,0.0,0.0,0.0,-1.8726,-1.9573,-1.9948,-1.9841,-1.9261,-1.8958,-1.8958,-1.8958,0.0,0.0,0.0,0.0,-2.5131,-2.4472,-2.3346,-2.191,-2.111,-2.0392,-1.9757,-1.9757,-1.9305,-1.8729,-1.9472,-1.9212,-1.8581,-1.9323,-1.9609,-1.972,-2.04,-2.0715,0.0,0.0,0.0,0.0,0.0,0.0,0.0,0.0,0.0,0.0,0.0,0.0,0.0,0.0,0.0,0.0,0.0,0.0,0.0,0.0,0.0,0.0,0.0,0.0,0.0,0.0,0.0,0.0,0.0,0.0,0.0,0.0,0.0,0.0,0.0,-4.55,-4.5552,-4.5552,-4.5656,-4.5512,-4.5124,-4.5097,-4.4874,-4.4418,-4.3992,-4.3723,-4.3603,-4.3842,-4.3913,-4.3881,-4.4772,-4.5469,-4.5986,-4.6601,-4.6876,-4.6876,-4.6876,-4.6876,-4.6876,-4.6876,-4.6876,-4.6858,-4.6512,-4.6582,-4.6807,0.0,0.0,0.0,0.0,0.0,0.0,0.0,0.0,0.0,0.0,0.0,-1.3362,-1.3493,-1.3589,-1.3667,-1.3705,-1.3853,0.0,0.0,0.0,0.0,-1.7414,-1.7789,-1.7985,-1.7985,-1.7646,-1.7905,-1.8797,0.0,0.0,0.0,-2.5463,-2.6458,0.0,0.0,-2.4873,-2.431,-2.1683,-2.0426,-2.0126,-1.9747,-2.0063,-2.0684,-1.9896,-2.0137,-2.0781,-1.99,-1.9609,-1.9646,-2.0017,-2.0734,-2.1309,-2.04,0.0,0.0,0.0,0.0,0.0,0.0,0.0,0.0,0.0,0.0,0.0,0.0,0.0,0.0,0.0,0.0,0.0,0.0,0.0,0.0,0.0,0.0,0.0,0.0,0.0,0.0,0.0,0.0,0.0,0.0,0.0,0.0,0.0,-4.5397,-4.5397,-4.5397,-4.5397,-4.5177,-4.4708,-4.4708,-4.4356,-4.3604,-4.3396,-4.3171,-4.2912,-4.3036,-4.2976,-4.2832,-4.3556,-4.4606,-4.5824,-4.6131,-4.6504,-4.6876,-4.6668,-4.6547,-4.6563,-4.6353,-4.6282,-4.6246,-4.6104,-4.614,-4.6262,0.0,0.0,0.0,0.0,0.0,0.0,0.0,0.0,0.0,0.0,0.0,-1.3445,-1.3589,0.0,0.0,0.0,-1.3816,0.0,0.0,0.0,0.0,0.0,0.0,-1.6284,-1.6112,-1.6112,-1.6719,-1.7905,0.0,0.0,-2.5247,-2.6372,-2.8083,0.0,-2.8074,-2.6778,0.0,0.0,-2.1223,-2.1088,-2.0589,-2.1164,-2.2268,-2.1715,-2.2264,-2.3082,-2.1475,-2.077,-2.0602,-2.0454,-2.1102,-2.1737,0.0,0.0,0.0,0.0,0.0,0.0,0.0,0.0,0.0,0.0,0.0,0.0,0.0,0.0,0.0,0.0,0.0,0.0,0.0,0.0,0.0,0.0,0.0,0.0,0.0,0.0,0.0,0.0,0.0,0.0,0.0,0.0,0.0,0.0,-4.5397,-4.5397,-4.5397,-4.5397,-4.5123,-4.4541,-4.4524,-4.4071,-4.3141,-4.3141,-4.2912,-4.246,-4.246,-4.2302,-4.1996,-4.2523,-4.3615,-4.5021,-4.5375,-4.5842,-4.6341,-4.6237,-4.6159,-4.6159,-4.5905,-4.5796,-4.5796,-4.5687,-4.5724,-4.576,0.0,0.0,0.0,0.0,0.0,0.0,0.0,0.0,0.0,0.0,0.0,-1.3445,-1.3589,-1.3659,-1.3705,-1.3705,-1.3816,0.0,0.0,0.0,0.0,0.0,0.0,0.0,-1.5363,-1.537,-1.5406,0.0,0.0,0.0,-2.3648,-2.51,-2.786,-3.1574,-3.1056,-2.8643,-2.4933,0.0,0.0,-2.2599,-2.2554,-2.2021,-2.168,-2.5314,-2.5768,-2.4415,-2.443,-2.3995,0.0,0.0,0.0,0.0,-2.1551,-2.1193,-2.0682,0.0,0.0,0.0,0.0,0.0,0.0,0.0,0.0,0.0,0.0,0.0,0.0,0.0,0.0,0.0,0.0,0.0,0.0,0.0,0.0,0.0,0.0,0.0,0.0,0.0,0.0,0.0,0.0,0.0,0.0,0.0,-4.5397,-4.5397,-4.5397,-4.5397,-4.4988,-4.4059,-4.403,-4.3591,-4.2665,-4.2634,-4.246,-4.2142,-4.2142,-4.1948,-4.1621,-4.1669,-4.2113,-4.2923,-4.4218,-4.4768,-4.4847,-4.5563,-4.5832,-4.5832,-4.5796,-4.5796,-4.576,-4.5358,-4.5468,-4.5687,0.0,0.0,0.0,0.0,0.0,0.0,0.0,0.0,0.0,0.0,0.0,0.0,0.0,-1.362,-1.3644,-1.3644,-1.3811,0.0,0.0,0.0,0.0,0.0,0.0,0.0,0.0,-1.4987,0.0,0.0,0.0,-1.8699,-2.2707,-2.4223,-2.6001,-2.7924,-2.8286,-2.827,-2.7702,-2.44,0.0,-2.334,-2.3291,-2.4167,-2.5549,-2.6025,-2.7397,-2.8817,-2.6921,0.0,0.0,0.0,0.0,0.0,-2.117,-2.104,-2.1026,-1.9577,0.0,0.0,0.0,0.0,0.0,0.0,0.0,0.0,0.0,0.0,0.0,0.0,0.0,0.0,0.0,0.0,0.0,0.0,0.0,0.0,0.0,0.0,0.0,0.0,0.0,0.0,0.0,0.0,0.0,0.0,0.0,-4.3975,-4.3975,-4.4146,-4.3956,-4.3299,-4.346,-4.3232,-4.2602,-4.2381,-4.2206,-4.2109,-4.1883,-4.1588,-4.129,-4.129,-4.1297,-4.1339,-4.2303,-4.3239,-4.4101,-4.4598,-4.4772,-4.4783,-4.4964,-4.5024,-4.5024,-4.4874,-4.4911,-4.4986,0.0,0.0,0.0,-1.2313,0.0,-1.263,-1.2862,-1.2909,-1.3154,-1.3786,0.0,0.0,0.0,0.0,-1.427,-1.4019,-1.4156,-1.4136,-1.3875,-1.3923,0.0,0.0,0.0,0.0,0.0,-1.5111,0.0,0.0,0.0,0.0,0.0,-2.2603,-2.42,-2.5768,-2.5538,-2.6501,0.0,0.0,0.0,-2.4475,-2.5177,-2.6423,-2.8017,-2.9086,-3.0639,-3.2001,0.0,0.0,0.0,0.0,0.0,0.0,-2.2172,-2.1457,-2.0862,-1.9415,-1.9921,0.0,0.0,0.0,0.0,0.0,0.0,0.0,0.0,0.0,0.0,0.0,0.0,0.0,0.0,0.0,0.0,0.0,0.0,0.0,0.0,0.0,0.0,0.0,0.0,0.0,0.0,0.0,0.0,0.0,0.0,0.0,-4.2971,-4.3132,-4.2959,-4.2365,-4.2581,-4.2584,-4.2278,-4.2157,-4.2045,-4.1916,-4.1588,-4.1256,-4.0901,-4.0901,-4.0765,-4.052,-4.1032,-4.1883,-4.3008,-4.3463,-4.3811,-4.4008,-4.4214,-4.4409,-4.461,-4.461,-4.461,-4.461,-1.2231,-1.2298,-1.2375,-1.2375,-1.2534,-1.2786,-1.3114,-1.3215,-1.365,-1.4701,0.0,0.0,0.0,0.0,0.0,-1.4926,-1.4907,-1.4568,-1.3699,-1.3684,0.0,0.0,0.0,0.0,0.0,0.0,0.0,0.0,0.0,0.0,0.0,0.0,-2.2551,-2.544,-2.3239,-2.3534,-2.5699,0.0,-2.6461,-2.6043,0.0,-2.865,-2.8741,0.0,0.0,0.0,-3.4423,-3.3686,0.0,-2.9747,0.0,0.0,-2.4658,-2.2491,-2.0065,-1.929,-1.9633,0.0,0.0,0.0,0.0,0.0,0.0,0.0,0.0,0.0,0.0,0.0,0.0,0.0,0.0,0.0,0.0,0.0,0.0,0.0,0.0,0.0,0.0,0.0,0.0,0.0,0.0,0.0,0.0,0.0,-4.2413,-4.2439,-4.2439,-4.243,-4.2048,-4.121,-4.1431,-4.1563,-4.1533,-4.19,-4.1884,-4.1557,-4.1223,-4.0867,-4.0489,-4.0489,-4.0489,-4.0489,-4.0489,-4.0889,-4.1617,-4.2294,-4.294,-4.3547,-4.3593,-4.4009,-4.4594,-4.461,-4.461,-4.461,-1.2924,-1.3493,-1.3955,-1.3955,-1.4127,-1.4335,-1.4588,-1.4632,-1.4837,0.0,0.0,0.0,-1.5924,-1.6381,-1.6605,-1.6408,-1.5956,-1.5367,-1.4585,-1.41,-1.3841,-1.3841,-1.5127,-1.5573,-1.5012,-1.6247,-1.6255,-1.4921,-1.5835,-1.6471,-1.6853,-1.7799,-1.9355,-2.1359,-2.1362,-2.1725,-2.2358,-2.262,0.0,-2.7487,-2.6831,-2.9057,0.0,0.0,0.0,0.0,0.0,-3.5514,-3.4577,0.0,-3.1058,-2.818,0.0,-2.2773,-2.0811,-2.0578,-2.1097,-2.158,-2.0957,0.0,0.0,0.0,0.0,0.0,0.0,0.0,0.0,0.0,0.0,0.0,0.0,0.0,0.0,0.0,0.0,0.0,0.0,0.0,0.0,0.0,0.0,0.0,0.0,0.0,0.0,0.0,-4.0731,-4.09,-4.09,-4.1092,-4.105,-4.0701,-4.078,-4.0698,-4.0455,-4.0769,-4.0813,-4.0534,-4.06,-4.0593,-4.0489,-4.0489,-4.0489,-4.0489,-4.0489,-4.0612,-4.0843,-4.1586,-4.1986,-4.2248,-4.3239,-4.3716,-4.3947,-4.444,-4.461,-4.461,-1.3621,-1.4105,-1.4609,-1.4916,-1.5137,-1.5486,-1.6072,-1.6171,-1.644,0.0,0.0,0.0,-1.7783,-1.8465,-1.8534,-1.7587,-1.7147,-1.6337,-1.4951,-1.4496,-1.4137,-1.3788,-1.5244,-1.5862,-1.5393,-1.686,-1.6849,-1.5315,-1.5747,-1.5827,-1.56,-1.6063,-1.7131,-1.8676,-1.9215,-1.9976,-2.0833,-2.0646,0.0,0.0,-2.7794,0.0,0.0,-3.4847,-3.6725,0.0,0.0,0.0,-3.6905,-3.6095,-3.3571,0.0,0.0,-2.4116,-2.3053,-2.1547,-2.2099,-2.2956,-2.19,-2.2785,0.0,0.0,0.0,0.0,0.0,-2.8772,0.0,0.0,0.0,0.0,0.0,0.0,0.0,0.0,0.0,0.0,0.0,0.0,0.0,0.0,0.0,0.0,0.0,-3.9747,-3.9885,-3.9636,-3.9859,-3.9927,-3.9764,-3.9744,-3.9635,-3.9427,-3.972,-3.9716,-3.9367,-3.9692,-3.9814,-3.9651,-3.9954,-4.0074,-4.0074,-4.0366,-4.0489,-4.0489,-4.0489,-4.0489,-4.052,-4.0951,-4.1324,-4.1678,-4.2448,-4.3116,-4.3655,-4.4055,-4.4379,-4.461,0.0,-1.4493,-1.4891,-1.5669,-1.5941,-1.6435,-1.7581,-1.7816,-1.8215,0.0,-1.9499,-1.9906,-2.0808,-2.1406,-2.0918,-1.8872,-1.8476,-1.7435,-1.5323,-1.5029,-1.4606,-1.389,-1.5253,-1.6019,-1.6019,-1.7459,-1.7476,-1.6019,-1.5999,-1.5645,-1.5018,-1.4996,-1.5766,-1.7186,-1.7262,-1.8468,-2.0459,-2.0164,-2.1444,-2.4171,-2.9542,-3.1809,0.0,0.0,-3.9172,-3.8562,-3.9647,-3.9651,-3.8981,-3.7953,-3.5281,0.0,0.0,-2.6484,-2.6328,-2.284,-2.3283,0.0,-2.3247,-2.3993,-2.5417,-2.6534,-2.6111,0.0,-2.8624,-2.8378,-2.8274,0.0,0.0,0.0,0.0,0.0,0.0,0.0,0.0,0.0,0.0,0.0,0.0,0.0,0.0,0.0,-3.9169,-3.9418,-3.9636,-3.9662,-3.9636,-3.9428,-3.9023,-3.8628,-3.8246,-3.7915,-3.8496,-3.8653,-3.8335,-3.8701,-3.8855,-3.8838,-3.921,-3.9447,-3.9505,-4.0105,-4.0428,-4.0489,-4.0489,-4.0489,-4.0489,-4.0489,-4.0909,-4.1494,-4.1571,-4.2325,-4.3393,-4.347,-4.3932,-4.4502,-1.513,-1.5722,-1.6511,-1.7565,-1.7695,-1.8042,-1.9193,-1.9357,-1.9513,-1.9884,-2.0654,-2.1906,-2.3888,-2.3129,-2.2302,-2.1854,-2.0148,-1.8648,-1.7607,-1.6373,-1.5615,-1.546,-1.6312,-1.6794,-1.6794,-1.7707,-1.7735,-1.6794,-1.621,-1.584,-1.5694,-1.5116,-1.5626,-1.7041,-1.7176,-1.8156,-1.9791,-2.099,0.0,-2.5173,-2.7657,0.0,-3.5771,-3.6876,-3.8556,-4.0303,-3.9911,-4.0078,-4.0285,-3.8858,-3.6769,-3.4256,0.0,-3.047,-2.9696,-2.7093,-2.7093,-2.7744,-2.6809,-2.7262,-2.7628,-2.6092,0.0,0.0,-2.5129,-2.5961,-2.7467,0.0,0.0,0.0,0.0,0.0,0.0,0.0,0.0,0.0,0.0,0.0,0.0,0.0,0.0,0.0,-4.0037,-3.9782,-3.9756,-4.0138,-3.9808,-3.9428,-3.9023,-3.8662,-3.8311,-3.7915,-3.7796,-3.7578,-3.7294,-3.7888,-3.8059,-3.7804,-3.8417,-3.8985,-3.949,-3.9628,-3.9982,-4.0489,-4.0489,-4.0489,-4.0489,-4.0489,-4.0566,-4.0751,-4.137,-4.1755,-4.2048,-4.2602,-4.3202,-4.3809,-1.5794,-1.6443,-1.7338,-1.837,-1.8915,-1.9554,-2.0602,-2.0954,-2.14,-2.2238,-2.3556,-2.4591,-2.4971,-2.4315,-2.3543,-2.2767,-2.132,-1.9803,-1.8304,-1.7476,-1.6691,-1.5933,-1.6605,-1.6991,-1.6991,-1.7787,-1.7821,-1.6991,-1.626,-1.5718,-1.5331,-1.4969,-1.5581,-1.7018,-1.7485,-1.8762,-2.0599,0.0,-2.3131,-2.5469,-2.902,0.0,-3.6258,-3.8062,-3.9634,-4.086,-4.0446,-4.0567,-4.0618,-3.8703,-3.7348,0.0,-3.337,-3.2816,-3.2575,0.0,-2.9542,-3.0069,-2.8594,-2.8502,-2.8625,-2.7887,0.0,0.0,0.0,-2.6057,-2.6621,-2.7591,0.0,0.0,0.0,0.0,0.0,0.0,0.0,0.0,0.0,0.0,0.0,0.0,0.0,0.0,-3.9685,-3.964,-3.9688,-3.9927,-3.9549,-3.9222,-3.9023,-3.8495,-3.8026,-3.7666,-3.7344,-3.7075,-3.6739,-3.7064,-3.7172,-3.7015,-3.7677,-3.8185,-3.8539,-3.9216,-3.9674,-4.0013,-4.0336,-4.0489,-4.0489,-4.0489,-4.0489,-4.0536,-4.0889,-4.1278,-4.1632,-4.1986,-4.2525,-4.314,-1.6236,-1.6874,-1.7701,-1.8686,-1.9667,-2.0601,-2.1502,-2.2017,-2.2926,-2.4598,-2.6273,-2.6984,-2.6071,-2.5754,-2.5198,-2.4215,-2.2787,-2.125,-1.9616,-1.9001,-1.8115,-1.6829,-1.7208,-1.7449,-1.7449,-1.7942,-1.789,-1.7225,-1.6347,-1.5667,-1.5228,-1.5072,-1.5806,-1.7277,-1.8147,0.0,0.0,0.0,0.0,-2.6791,0.0,-3.3571,-3.4909,-3.8675,-4.0122,-4.0173,-4.0621,-4.0776,-4.0483,-3.8577,-3.7927,-3.7426,-3.4612,-3.4711,0.0,0.0,0.0,0.0,0.0,0.0,-3.0189,0.0,0.0,-2.9092,0.0,0.0,0.0,-2.8264,0.0,0.0,0.0,0.0,0.0,0.0,0.0,0.0,0.0,0.0,0.0,0.0,0.0,0.0,-3.8778,-3.8785,-3.8942,-3.9359,-3.874,-3.851,-3.8871,-3.8286,-3.777,-3.7417,-3.7075,-3.6785,-3.6492,-3.6492,-3.6492,-3.6507,-3.7046,-3.7384,-3.7538,-3.8631,-3.9277,-3.9521,-4.0059,-4.0366,-4.0489,-4.0489,-4.0489,-4.0489,-4.0489,-4.0843,-4.1401,-4.1401,-4.1832,-4.2479,-1.6357,-1.6929,-1.7758,-1.887,-1.9753,-2.0572,-2.1318,-2.1779,-2.2933,-2.5361,-2.6674,-2.7933,-2.9354,-2.8459,-2.815,-2.9173,-2.5538,-2.349,-2.4182,-2.1888,-2.0322,-1.9918,-1.9344,-1.9045,-1.9045,-1.8493,-1.8166,-1.8062,-1.6605,-1.6191,-1.6743,-1.6071,-1.6597,-1.8103,-1.9284,0.0,0.0,0.0,-2.6417,0.0,-3.2142,-3.1931,0.0,-3.5727,-3.7262,-3.7534,-3.9623,-4.0379,-4.0275,0.0,-3.9439,-3.9026,0.0,-3.6978,-3.7616,-3.4513,0.0,0.0,0.0,0.0,0.0,0.0,-3.246,0.0,0.0,0.0,-2.835,-2.6006,0.0,0.0,0.0,0.0,0.0,0.0,0.0,0.0,0.0,0.0,0.0,0.0,0.0,0.0,0.0,-3.647,-3.6507,-3.848,-3.704,-3.6785,-3.8386,-3.8217,-3.787,-3.7417,-3.6846,-3.6554,-3.6492,-3.6492,-3.6492,-3.6492,-3.6569,-3.6923,-3.7507,-3.7661,-3.8385,-3.949,-3.9567,-3.9936,-4.0489,-4.0489,-4.0489,-4.0489,-4.0489,-4.0551,-4.0612,-4.0612,-4.1109,-4.1724,-1.6262,-1.7227,-1.8089,-1.8266,-1.9761,-2.0898,-2.0772,-2.3523,-2.5797,-2.6317,-2.8652,-3.0388,-3.0764,0.0,0.0,0.0,0.0,-2.6486,0.0,-2.3548,-2.2382,-2.176,-2.0584,-1.9929,-1.9929,-1.9217,-1.8631,-1.82,-1.7087,-1.6708,0.0,0.0,-1.8045,-1.955,-2.1232,0.0,-2.5459,0.0,-2.6369,0.0,0.0,0.0,0.0,-3.6196,-3.842,-3.8538,-3.9548,-3.9885,-3.9741,0.0,-3.8533,0.0,0.0,0.0,0.0,-3.6109,0.0,0.0,0.0,0.0,0.0,0.0,0.0,0.0,-2.8491,0.0,-2.754,0.0,0.0,0.0,0.0,0.0,0.0,0.0,0.0,0.0,0.0,0.0,0.0,0.0,0.0,0.0,0.0,0.0,0.0,0.0,-3.5542,-3.5623,-3.7718,-3.7362,-3.7181,-3.7401,-3.6816,-3.6492,-3.6492,-3.6492,-3.6492,-3.6492,-3.6492,-3.6645,-3.6923,-3.7323,-3.8031,-3.8954,-3.9339,-3.9859,-4.0489,-4.0489,-4.0489,-4.0489,-4.0489,-4.0489,-4.0489,-4.0489,-4.0689,-4.1032,-1.6701,0.0,0.0,-1.7973,-1.9804,-2.1306,-2.1256,-2.4635,-2.7255,-2.7461,-3.0174,-3.215,-3.2357,-3.1884,0.0,0.0,-3.1073,-2.9246,0.0,0.0,-2.4564,-2.3801,-2.2061,-2.1105,-2.1105,-2.0262,-1.939,-1.8493,-1.7707,-1.7328,0.0,0.0,-1.8993,-2.0503,0.0,-2.5066,-2.7283,0.0,0.0,-2.9501,-3.0072,-3.0663,-3.1747,-3.6638,-3.8764,-3.9146,-3.9348,-3.9428,-3.927,-3.8095,-3.79,0.0,-3.7567,0.0,-3.7667,0.0,0.0,0.0,-3.5218,0.0,0.0,0.0,0.0,0.0,0.0,0.0,0.0,0.0,0.0,0.0,0.0,0.0,0.0,0.0,0.0,-2.587,0.0,0.0,0.0,0.0,0.0,0.0,0.0,0.0,0.0,0.0,0.0,-3.3929,-3.6945,-3.6556,-3.6574,-3.7252,-3.6785,-3.6492,-3.6492,-3.6492,-3.6492,-3.6492,-3.6492,-3.6492,-3.6507,-3.6999,-3.7584,-3.8262,-3.8921,-3.9598,-4.0228,-4.0413,-4.0489,-4.0489,-4.0489,-4.0489,-4.0489,-4.0489,-4.0489,-4.0566,-1.8023,-1.8176,0.0,0.0,0.0,-2.1697,-2.3424,-2.4221,-2.5735,-2.8814,-3.0575,0.0,0.0,0.0,0.0,0.0,0.0,-3.1461,-3.175,0.0,-2.6981,-2.65,-2.4182,-2.2912,-2.2909,-2.1754,-2.0522,-1.9269,-1.8528,0.0,0.0,0.0,0.0,0.0,-2.3312,-2.6148,-2.8855,-2.9283,-3.216,-3.6237,-3.4518,-3.5155,-3.7025,0.0,-3.6647,-3.8059,-3.8761,0.0,0.0,-3.8603,-3.8463,0.0,0.0,0.0,0.0,0.0,0.0,0.0,0.0,0.0,0.0,-3.2842,0.0,0.0,0.0,0.0,-3.0144,0.0,0.0,0.0,0.0,-2.8816,-2.7816,-2.635,-2.6094,0.0,0.0,0.0,0.0,0.0,0.0,0.0,0.0,0.0,0.0,0.0,-3.0794,0.0,-3.6072,-3.6082,-3.6246,-3.6983,-3.6677,-3.6492,-3.6492,-3.6492,-3.6492,-3.6492,-3.6492,-3.6492,-3.6492,-3.6507,-3.6892,-3.7569,-3.8246,-3.8923,-3.9567,-4.0228,-4.0489,-4.0489,-4.0489,-4.0489,-4.0489,-4.0489,-4.0489,-4.0489,0.0,0.0,0.0,0.0,0.0,-2.1988,-2.4593,-2.6597,-2.8522,0.0,-3.2069,0.0,0.0,-3.5593,-3.5855,0.0,0.0,-3.427,-3.2883,-3.0882,0.0,-3.0101,-2.7485,-2.5893,0.0,-2.3932,-2.2233,-2.056,0.0,0.0,0.0,0.0,0.0,0.0,0.0,-2.6489,0.0,0.0,0.0,0.0,0.0,-3.5179,-3.7368,0.0,-3.7103,-3.7594,-3.7841,-3.7927,0.0,-3.781,-3.7614,-3.7438,-3.7406,-3.727,-3.7084,-3.7073,-3.7091,-3.7039,0.0,0.0,-3.6633,-3.3972,0.0,0.0,0.0,0.0,0.0,0.0,0.0,0.0,0.0,-2.8903,-2.8075,-2.7057,-2.604,-2.4922,0.0,0.0,0.0,0.0,0.0,0.0,0.0,0.0,0.0,0.0,-2.9939,0.0,0.0,-3.5149,-3.5729,-3.6266,-3.6415,-3.6492,-3.6492,-3.6492,-3.6492,-3.6492,-3.6492,-3.6492,-3.6492,-3.6492,-3.6861,-3.7507,-3.7738,-3.8477,-3.9539,-3.9736,-4.009,-4.0489,-4.0489,-4.0489,-4.0489,-4.0489,-4.0489,-4.0489,-1.8945,0.0,0.0,0.0,0.0,0.0,-2.568,-2.8131,0.0,0.0,-3.3294,0.0,-3.6136,0.0,-3.6554,0.0,-3.6706,-3.5747,-3.3787,-3.264,0.0,-3.2072,-2.9977,-2.8559,0.0,0.0,0.0,0.0,0.0,-2.1317,0.0,0.0,0.0,0.0,0.0,0.0,-2.8801,0.0,-3.2632,0.0,0.0,-3.5691,0.0,0.0,-3.7208,-3.7417,0.0,-3.7417,-3.7417,-3.7417,-3.7247,-3.7119,-3.7318,-3.71,-3.6791,-3.6993,-3.6914,-3.6728,-3.6605,-3.6744,0.0,-3.4567,-3.3521,0.0,-3.0249,0.0,-3.1443,0.0,0.0,0.0,0.0,-3.0081,-2.8887,-2.7862,-2.6402,-2.4936,0.0,-2.3422,0.0,0.0,0.0,0.0,0.0,0.0,-2.6902,-2.8954,-2.8792,0.0,0.0,-3.4101,-3.5046,-3.5744,-3.626,-3.6492,-3.6492,-3.6492,-3.6492,-3.6492,-3.6492,-3.6492,-3.6492,-3.6492,-3.6738,-3.7153,-3.74,-3.8138,-3.9136,-3.9382,-3.989,-4.0489,-4.0489,-4.0489,-4.0489,-4.0489,-4.0489,-4.0489,0.0,0.0,0.0,0.0,-2.207,0.0,0.0,0.0,-3.0822,0.0,-3.4213,-3.5439,-3.6906,-3.674,-3.6809,-3.7578,-3.7,-3.603,-3.4736,-3.4185,0.0,0.0,-3.1685,-3.0851,-3.0202,0.0,0.0,0.0,0.0,0.0,0.0,0.0,0.0,0.0,-2.5818,0.0,-2.928,-3.2925,-3.5234,-3.6472,-3.6824,-3.6785,-3.6523,-3.6523,-3.6861,-3.7387,-3.7358,-3.7358,-3.7358,-3.7358,-3.7358,-3.7358,-3.7358,-3.7358,-3.7358,-3.7358,-3.7358,-3.7288,-3.6981,-3.6874,-3.6444,-3.4677,-3.4168,0.0,0.0,0.0,-3.3623,0.0,0.0,0.0,0.0,0.0,-3.029,-2.8714,-2.7131,-2.5318,0.0,0.0,0.0,0.0,0.0,0.0,0.0,0.0,-2.5129,-2.8075,-2.7384,0.0,0.0,-3.3006,-3.4173,-3.5367,-3.6107,-3.6492,-3.6492,-3.6492,-3.6492,-3.6492,-3.6492,-3.6492,-3.6492,-3.6492,-3.6492,-3.6538,-3.7169,-3.7861,-3.8554,-3.92,-3.9859,-4.0489,-4.0489,-4.0489,-4.0489,-4.0489,-4.0489,-4.0489,-2.1042,-2.2259,-2.3553,0.0,-2.4502,-2.5488,0.0,0.0,0.0,0.0,-3.5588,-3.6597,-3.795,-3.8011,-3.8041,-3.8259,-3.8114,0.0,0.0,0.0,0.0,-3.5445,-3.4253,-3.3342,-3.285,-3.0298,-2.8249,-2.6669,0.0,0.0,-2.2712,0.0,0.0,0.0,0.0,0.0,-2.8192,-3.1483,-3.4423,-3.6824,-3.6708,-3.6724,-3.6847,0.0,-3.6739,-3.7075,-3.6816,-3.6723,-3.6723,-3.6723,-3.6723,-3.6723,-3.6723,-3.6723,-3.6723,-3.6723,-3.6723,-3.6708,-3.6613,-3.6597,-3.6482,-3.5939,-3.4988,-3.3984,0.0,0.0,0.0,0.0,0.0,0.0,0.0,0.0,0.0,-2.9569,-2.7462,-2.5697,0.0,0.0,0.0,0.0,0.0,0.0,0.0,-2.4749,-2.5835,-2.6628,-2.7214,0.0,0.0,0.0,-3.3098,-3.3919,-3.5599,-3.6492,-3.6492,-3.6492,-3.6492,-3.6492,-3.6492,-3.6492,-3.6492,-3.6492,-3.6492,-3.6507,-3.6676,-3.7415,-3.8523,-3.8708,-3.9428,-4.0489,-4.0489,-4.0489,-4.0489,-4.0489,-4.0489,-4.0489,-2.2609,0.0,0.0,-2.7864,0.0,0.0,-3.0562,-3.1486,0.0,-3.5183,-3.6076,0.0,-3.7538,-3.8154,-3.8508,-3.8508,-3.8508,0.0,-3.7538,0.0,0.0,-3.6522,-3.6045,-3.5397,-3.4572,-3.2363,0.0,-2.8211,0.0,0.0,-2.2949,0.0,0.0,0.0,0.0,-2.576,0.0,-3.1308,-3.4317,-3.6532,-3.6492,-3.6616,0.0,-3.6585,-3.6616,-3.6754,-3.6554,-3.6492,-3.6492,-3.6492,-3.6492,-3.6492,-3.6492,-3.6492,-3.6492,-3.6492,-3.6492,-3.6492,-3.6492,-3.6492,-3.6477,-3.6452,-3.5826,-3.5068,-3.4509,-3.4867,-3.5011,0.0,-3.4652,-3.5226,0.0,0.0,0.0,0.0,0.0,0.0,0.0,0.0,0.0,0.0,0.0,0.0,-2.2854,-2.4135,-2.5203,-2.5577,-2.6507,0.0,0.0,0.0,-3.2457,-3.2949,-3.4968,-3.6184,-3.6492,-3.6492,-3.6492,-3.6492,-3.6492,-3.6492,-3.6492,-3.6492,-3.6492,-3.6492,-3.6492,-3.7261,-3.8508,-3.8508,-3.9308,-4.0489,-4.0489,-4.0489,-4.0489,-4.0489,-4.0489,-4.0489,0.0,0.0,0.0,0.0,0.0,0.0,0.0,-3.349,0.0,-3.5691,0.0,-3.7015,-3.7015,-3.8061,-3.8769,-3.8769,0.0,-3.8492,-3.7815,-3.8323,-3.8077,-3.6815,-3.723,-3.6953,-3.5799,-3.4522,-3.2296,0.0,-2.7304,-2.5141,0.0,0.0,0.0,0.0,0.0,0.0,0.0,-3.1944,-3.4649,-3.6021,-3.6369,-3.6492,-3.6492,-3.6492,-3.6492,-3.6492,-3.6492,-3.6492,-3.6492,-3.6492,-3.6492,-3.6492,-3.6492,-3.6492,-3.6492,-3.6492,-3.6492,-3.6492,-3.6492,-3.6492,-3.6492,-3.6492,-3.6492,-3.623,-3.5264,-3.5243,-3.537,-3.5085,-3.4698,-3.4803,-3.6116,0.0,0.0,0.0,0.0,0.0,0.0,0.0,0.0,0.0,0.0,0.0,0.0,-2.354,-2.4144,-2.4784,-2.5439,0.0,0.0,0.0,-3.1709,-3.2391,-3.4351,-3.5722,-3.6476,-3.6492,-3.6492,-3.6492,-3.6492,-3.6492,-3.6492,-3.6492,-3.6492,-3.6492,-3.6492,-3.7215,-3.8385,-3.8477,-3.9308,-4.0489,-4.0489,-4.0489,-4.0489,-4.0489,-4.0489,-4.0489,0.0,0.0,0.0,0.0,0.0,-3.5183,-3.6415,-3.623,-3.643,-3.78,-3.9046,-3.9782,-3.9782,-3.9997,-4.0136,-4.0136,-4.0136,0.0,0.0,0.0,0.0,-3.8185,-3.7738,-3.7384,-3.7153,-3.4224,-3.1657,-2.9574,-2.6469,-2.3967,-2.2044,0.0,0.0,0.0,0.0,0.0,-3.0783,-3.2913,0.0,-3.6415,-3.6476,-3.6492,-3.6492,-3.6492,-3.6492,-3.6492,-3.6492,-3.6492,-3.6492,-3.6492,-3.6492,-3.6492,-3.6492,-3.6492,-3.6492,-3.6492,-3.6492,-3.6492,-3.6492,-3.6492,-3.6492,-3.6492,-3.6492,-3.6461,-3.6245,-3.6245,-3.6276,-3.6214,-3.6135,-3.5957,-3.559,0.0,0.0,0.0,0.0,0.0,0.0,0.0,0.0,0.0,0.0,0.0,0.0,-2.4698,-2.456,-2.406,0.0,0.0,0.0,0.0,-2.9621,0.0,-3.3889,0.0,0.0,0.0,-3.6492,-3.6492,-3.6492,-3.6492,-3.6492,-3.6492,-3.6492,-3.6492,-3.6492,-3.6953,-3.7723,-3.8277,-3.9308,-4.0489,-4.0489,-4.0489,-4.0489,-4.0489,-4.0489,-4.0489,0.0,0.0,0.0,0.0,0.0,0.0,0.0,-3.8354,-3.8569,-3.8523,-3.9077,-3.9444,-3.9444,-4.0074,-4.0489,-4.0489,-4.0489,-4.0351,-4.0028,-4.0013,-3.9705,-3.9062,-3.8723,-3.8215,-3.7523,-3.5537,-3.3224,-3.0593,-2.7543,-2.4922,-2.2752,-2.1321,0.0,0.0,0.0,-2.7897,0.0,0.0,0.0,-3.6197,-3.64,-3.6492,-3.6492,-3.6492,-3.6492,-3.6492,-3.6492,-3.6492,-3.6492,-3.6492,-3.6492,-3.6492,-3.6492,-3.6492,-3.6492,-3.6492,-3.6492,-3.6492,-3.6492,-3.6492,-3.6492,-3.6492,-3.6492,-3.6492,-3.6492,-3.6492,-3.6492,-3.6492,-3.6492,-3.6229,-3.5468,-3.4112,0.0,0.0,0.0,0.0,0.0,0.0,0.0,0.0,0.0,0.0,0.0,0.0,0.0,0.0,0.0,0.0,0.0,0.0,-2.8777,0.0,0.0,0.0,-3.5984,0.0,-3.6492,-3.6492,-3.6492,-3.6492,-3.6492,-3.6492,-3.6492,-3.6492,-3.6492,-3.6876,-3.7584,-3.8616,-3.9582,-4.0489,-4.0489,-4.0489,-4.0489,-4.0489,-4.0489,-4.0489,0.0,-3.5044,0.0,0.0,-3.76,0.0,-3.9062,-4.0201,-4.0443,-3.9108,-3.8939,-3.8939,-3.8939,-3.9859,-4.0489,-4.0489,-4.0489,-4.0489,-4.0489,-4.0489,-4.0259,-3.9721,-3.9567,-3.9016,-3.7954,-3.6984,-3.4953,-3.1813,-2.9135,-2.65,-2.3927,-2.2136,-2.1934,-2.3195,0.0,0.0,0.0,0.0,-3.529,-3.6054,-3.6353,-3.6492,-3.6492,-3.6492,-3.6492,-3.6492,-3.6492,-3.6492,-3.6492,-3.6492,-3.6492,-3.6492,-3.6492,-3.6492,-3.6492,-3.6492,-3.6492,-3.6492,-3.6492,-3.6492,-3.6492,-3.6492,-3.6492,-3.6492,-3.6492,-3.6492,-3.6492,-3.6492,-3.6492,-3.6214,-3.5313,-3.4514,0.0,0.0,0.0,0.0,0.0,0.0,0.0,0.0,0.0,0.0,-2.3399,0.0,0.0,0.0,0.0,0.0,-2.4212,0.0,0.0,0.0,0.0,-3.386,-3.5275,0.0,-3.6492,-3.6492,-3.6492,-3.6492,-3.6492,-3.6492,-3.6492,-3.6492,-3.6492,-3.6953,-3.78,-3.8862,-3.9751,-4.0489,-4.0489,-4.0489,-4.0489,-4.0489,-4.0489,-4.0489,0.0,0.0,0.0,0.0,0.0,0.0,-4.1201,-4.194,-4.1909,-4.0489,-4.0305,-4.0305,-4.0305,-4.0413,-4.0489,-4.0489,-4.0489,-4.0489,-4.0489,-4.0489,-4.0459,-4.0397,-3.9813,-3.9428,-3.9339,-3.7461,-3.5414,0.0,0.0,-2.7827,0.0,-2.4323,-2.5097,-2.7203,0.0,0.0,0.0,-3.4434,-3.5452,-3.6461,-3.6492,-3.6492,-3.6492,-3.6492,-3.6492,-3.6492,-3.6492,-3.6492,-3.6492,-3.6492,-3.6492,-3.6492,-3.6492,-3.6492,-3.6492,-3.6492,-3.6492,-3.6492,-3.6492,-3.6492,-3.6492,-3.6492,-3.6492,-3.6492,-3.6492,-3.6492,-3.6492,-3.6492,-3.6492,-3.6107,-3.4795,-3.5488,-3.4994,0.0,0.0,0.0,0.0,0.0,0.0,0.0,0.0,0.0,0.0,-2.3364,0.0,0.0,-2.2341,0.0,-2.523,0.0,0.0,-3.0304,-3.1767,-3.3152,-3.4582,-3.5845,-3.6492,-3.6492,-3.6492,-3.6492,-3.6492,-3.6492,-3.6492,-3.6492,-3.6492,-3.723,-3.8431,-3.8554,-3.9336,-4.0489,-4.0489,-4.0489,-4.0489,-4.0489,-4.0489,-4.0489,0.0,0.0,0.0,0.0,0.0,0.0,0.0,-4.2432,-4.2417,-4.1812,-4.1417,-4.117,-4.117,-4.0751,-4.0489,-4.0489,-4.0489,-4.0489,-4.0489,-4.0489,-4.0489,-4.0489,-4.0228,-3.9905,-3.949,-3.8723,-3.7107,0.0,0.0,0.0,-2.7726,-2.6672,-2.7288,-2.9398,0.0,-3.2798,-3.4282,-3.5364,-3.6075,-3.6492,-3.6492,-3.6492,-3.6492,-3.6492,-3.6492,-3.6492,-3.6492,-3.6492,-3.6492,-3.6492,-3.6492,-3.6492,-3.6492,-3.6492,-3.6492,-3.6492,-3.6492,-3.6492,-3.6492,-3.6492,-3.6492,-3.6492,-3.6492,-3.6492,-3.6492,-3.6492,-3.6492,-3.6492,-3.6492,-3.6322,-3.5784,-3.5491,-3.4905,-3.366,0.0,0.0,0.0,0.0,0.0,0.0,0.0,0.0,0.0,0.0,0.0,0.0,0.0,-2.2884,-2.3895,-2.4775,0.0,-2.8543,0.0,-3.2859,-3.3814,-3.5599,-3.6492,-3.6492,-3.6492,-3.6492,-3.6492,-3.6492,-3.6492,-3.6492,-3.6492,-3.7261,-3.8508,-3.8508,-3.9308,-4.0489,-4.0489,-4.0489,-4.0489,-4.0489,-4.0489,-4.0489,-4.0436,0.0,-4.0296,0.0,-4.1755,-4.1817,-4.3002,-4.3187,-4.3187,-4.3187,-4.2586,-4.2109,-4.1925,-4.1447,-4.1028,-4.0828,-4.0812,-4.072,-4.0505,-4.0489,-4.0489,-4.0489,-4.0489,0.0,-3.9782,-3.9582,-3.8585,-3.6676,-3.4599,0.0,-3.0874,-2.9504,-2.9843,0.0,-3.3506,-3.4706,-3.5475,-3.6599,-3.7092,-3.7092,-3.7092,-3.7092,-3.7092,-3.7092,-3.7092,-3.7092,-3.7092,-3.7092,-3.7061,-3.6861,-3.6784,-3.6753,-3.6553,-3.6492,-3.6492,-3.6492,-3.6492,-3.6492,-3.6492,-3.6492,-3.6492,-3.6492,-3.6492,-3.6492,-3.6492,-3.6492,-3.6492,-3.6492,-3.6492,-3.6492,-3.6492,-3.5583,-3.4751,-3.4599,0.0,0.0,0.0,-3.0181,0.0,0.0,-2.6164,-2.4931,-2.4746,0.0,0.0,0.0,0.0,-2.3998,-2.4326,-2.5109,0.0,0.0,0.0,0.0,-3.3706,-3.5553,-3.6492,-3.6492,-3.6492,-3.6492,-3.6492,-3.6492,-3.6492,-3.6492,-3.6492,-3.7261,-3.8508,-3.8508,-3.9308,-4.0489,-4.0489,-4.0489,-4.0489,-4.0489,-4.0489,-4.0489,-4.1,-4.1194,-4.1694,-4.3294,-4.3578,-4.3809,-4.4486,-4.4594,-4.4594,-4.4594,-4.3994,-4.331,-4.2663,-4.2586,-4.2309,-4.1648,-4.1586,-4.1294,-4.0536,-4.0489,-4.0489,0.0,0.0,-4.0489,-4.0489,-3.9828,-3.9474,-3.9428,0.0,0.0,-3.4412,-3.3011,-3.3075,-3.452,-3.5845,-3.683,-3.7507,-3.82,-3.8492,-3.8492,-3.8492,-3.8492,-3.8492,-3.8492,-3.8492,-3.8492,-3.8492,-3.8492,-3.8385,-3.7707,-3.7492,-3.7369,-3.6707,-3.6492,-3.6492,-3.6492,-3.6492,-3.6492,-3.6492,-3.6492,-3.6492,-3.6492,-3.6492,-3.6492,-3.6492,-3.6492,-3.6492,-3.6492,-3.6492,-3.6492,-3.6492,-3.5938,-3.4828,-3.2767,0.0,0.0,0.0,-2.9012,0.0,-2.6657,-2.5179,-2.4317,-2.4302,0.0,0.0,0.0,0.0,-2.6893,-2.7711,-2.6376,0.0,-3.0248,-3.2336,0.0,-3.4489,-3.5845,-3.6492,-3.6492,-3.6492,-3.6492,-3.6492,-3.6492,-3.6492,-3.6492,-3.6492,-3.7261,-3.8508,-3.8508,-3.9308,-4.0489,-4.0489,-4.0489,-4.0489,-4.0489,-4.0489,-4.0489,-4.2818,-4.2902,-4.3115,-4.3785,-4.3884,-4.3999,-4.4351,-4.4281,-4.4281,-4.4572,-4.4273,-4.4036,-4.3972,-4.3156,-4.2525,0.0,-4.2294,-4.2186,0.0,-4.1509,-4.1263,-4.1263,-4.0751,-4.0489,-4.0489,-4.0274,-3.9951,-3.949,0.0,0.0,0.0,-3.6091,-3.6353,-3.7246,-3.7677,-3.7984,-3.82,-3.8415,-3.8508,-3.8508,-3.8508,-3.8508,-3.8508,-3.8508,-3.8508,-3.8508,-3.8508,-3.8508,-3.8477,-3.8262,-3.8185,-3.8154,-3.7938,-3.723,-3.6492,-3.6492,-3.6492,-3.6492,-3.6492,-3.6492,-3.6492,-3.6492,-3.6492,-3.6492,-3.6492,-3.6492,-3.6492,-3.6492,-3.6492,-3.6492,-3.6492,-3.5938,-3.5136,-3.4012,-3.3583,0.0,-3.0094,0.0,-2.8996,-2.7888,-2.6549,-2.5903,-2.6364,-2.6004,0.0,0.0,0.0,0.0,0.0,0.0,0.0,0.0,-3.2351,0.0,-3.4505,-3.5845,-3.6492,-3.6492,-3.6492,-3.6492,-3.6492,-3.6492,-3.6492,-3.6492,-3.6492,-3.6999,-3.7861,-3.8323,-3.9031,-3.9844,-4.032,-4.0489,-4.0489,-4.0489,-4.0489,-4.0489,-4.3651,-4.369,-4.3769,-4.3949,-4.3988,-4.405,-4.4181,-4.4089,-4.4104,-4.4358,-4.4281,-4.4243,-4.4358,-4.3623,0.0,-4.2987,-4.2971,-4.2863,-4.2633,-4.2217,-4.1986,-4.1986,-4.1309,-4.0889,-4.0889,-4.0628,0.0,-3.9859,-3.9216,-3.8677,-3.8262,-3.8,-3.8108,-3.8523,-3.8769,-3.8893,-3.8908,-3.9121,-3.9228,-3.9228,-3.9228,-3.9228,-3.9228,-3.9228,-3.9228,-3.9228,-3.9228,-3.9228,-3.9198,-3.897,-3.8893,-3.8846,-3.8585,-3.7938,-3.7246,-3.7246,-3.7076,-3.6876,-3.6876,-3.6676,-3.6492,-3.6492,-3.6492,-3.6492,-3.6492,-3.6492,-3.6492,-3.6492,-3.6492,-3.6492,-3.6492,-3.5737,-3.4998,-3.4566,-3.366,-3.2413,-3.0648,0.0,-2.9417,0.0,0.0,0.0,0.0,-2.769,-2.7689,0.0,0.0,0.0,0.0,0.0,-2.9722,-3.0258,-3.3288,-3.5013,-3.526,-3.6076,-3.6492,-3.6492,-3.6492,-3.6492,-3.6492,-3.6492,-3.6492,-3.6492,-3.6492,-3.7015,-3.7923,-3.8338,-3.9046,-3.9905,-4.0336,-4.0489,-4.0489,-4.0489,-4.0489,-4.0489,-4.3596,-4.369,-4.3714,0.0,-4.3949,-4.3949,-4.3988,-4.3949,-4.3949,-4.3988,-4.3988,-4.3988,-4.3988,-4.3988,-4.3884,-4.3657,0.0,0.0,-4.275,-4.2673,-4.2642,-4.2642,-4.2032,-4.1678,-4.1678,-4.0935,-4.0551,-4.0489,-3.9859,-3.9551,-3.957,-3.8939,-3.8646,-3.8677,-3.9308,-3.9551,-3.9598,-4.0228,-4.0489,-4.0489,-4.0489,-4.0489,-4.0489,-4.0489,-4.0489,-4.0489,-4.0489,-4.0489,-4.0397,-3.9767,-3.9551,-3.9444,-3.8846,-3.8646,-3.8631,-3.8539,-3.8061,-3.7569,-3.7507,-3.7046,-3.6553,-3.6507,-3.6492,-3.6492,-3.6492,-3.6492,-3.6492,-3.6492,-3.6492,-3.6492,-3.6492,-3.5414,-3.4505,-3.4505,-3.3288,-3.1874,-3.0571,-3.0402,-2.991,0.0,0.0,0.0,-2.855,-2.9196,-2.9802,0.0,0.0,0.0,0.0,0.0,-3.0314,-3.3306,-3.4799,-3.5861,-3.6492,-3.6492,-3.6492,-3.6492,-3.6492,-3.6492,-3.6492,-3.6492,-3.6492,-3.6492,-3.6492,-3.723,-3.8446,-3.8492,-3.9244,-4.0428,-4.0474,-4.0489,-4.0489,-4.0489,-4.0489,-4.0489,0.0,0.0,-4.3423,-4.3463,-4.3463,-4.3542,-4.3729,-4.3596,-4.3566,-4.3934,-4.3871,-4.3847,-4.3988,-4.3988,-4.395,-4.3914,-4.3899,-4.3838,-4.3686,-4.3334,-4.3118,-4.3118,-4.2652,-4.2371,-4.2371,-4.1694,-4.1078,-4.0489,-4.0336,-4.0259,-4.0259,-4.009,-4.0013,-4.0028,-4.0182,-4.0259,-4.0259,-4.0428,-4.0489,-4.0489,-4.0489,-4.0489,-4.0489,-4.0489,-4.0489,-4.0489,-4.0489,-4.0489,-4.0474,-4.0305,-4.0259,-4.0228,-4.0074,-4.0013,-3.9813,-3.8816,-3.84,-3.8154,-3.7646,-3.7384,-3.7138,-3.6615,-3.6492,-3.6492,-3.6492,-3.6492,-3.6492,-3.6492,-3.6492,-3.6492,-3.6492,-3.5414,-3.4505,-3.4505,-3.2903,-3.1351,-3.0509,-3.0402,-3.0079,0.0,-3.0074,-3.0489,-2.9971,-3.1012,-3.112,0.0,0.0,-3.1578,-3.1424,-3.1959,-3.2622,-3.3383,-3.526,-3.6322,-3.6492,-3.6492,-3.6492,-3.6492,-3.6492,-3.6492,-3.6492,-3.6492,-3.6492,-3.6492,-3.6492,-3.6969,-3.7784,-3.8292,-3.9,-3.9782,-4.029,-4.0489,-4.0489,-4.0489,-4.0489,-4.0489,-4.2618,-4.3036,-4.329,-4.329,-4.329,-4.3344,-4.3503,-4.3384,-4.3369,-4.366,-4.3581,-4.3557,-4.366,-4.366,-4.366,-4.366,-4.3871,-4.3988,-4.3988,-4.3754,-4.3632,-4.3632,-4.3179,-4.2901,-4.2901,-4.2365,-4.1709,-4.0981,-4.0981,-4.0812,-4.0489,-4.0489,-4.0489,-4.0489,-4.0489,-4.0489,-4.0489,-4.0489,-4.0489,-4.0489,-4.0489,-4.0489,-4.0489,-4.0489,-4.0489,-4.0489,-4.0489,-4.0489,-4.0489,-4.0489,-4.0489,-4.0489,-4.0489,-4.0489,-4.0351,-3.9613,-3.9216,-3.8893,-3.8523,-3.7969,-3.7338,-3.6661,-3.6492,-3.6492,-3.6492,-3.6492,-3.6492,-3.6492,-3.6492,-3.6492,-3.6492,-3.5414,-3.4397,-3.4058,-3.2782,-3.152,-3.054,-3.0674,-3.0843,-3.0782,-3.1413,-3.1967,-3.2244,-3.2921,-3.2918,-3.1813,-3.2675,0.0,-3.2841,-3.4075,-3.4675,-3.4368,-3.5737,-3.6492,-3.6492,-3.6492,-3.6492,-3.6492,-3.6492,-3.6492,-3.6492,-3.6492,-3.6492,-3.6492,-3.6492,-3.6876,-3.7554,-3.8231,-3.8908,-3.9585,-4.0228,-4.0489,-4.0489,-4.0489,-4.0489,-4.0489,-4.199,-4.2699,-4.329,-4.329,-4.329,-4.329,-4.329,-4.329,-4.329,-4.329,-4.329,-4.329,-4.329,-4.329,-4.329,-4.329,-4.366,-4.3895,-4.3895,-4.3949,-4.3949,-4.3949,-4.3632,-4.3463,-4.3463,-4.2984,-4.2417,-4.1755,-4.1755,-4.1386,-4.0659,-4.0659,-4.0597,-4.0489,-4.0489,-4.0489,-4.0489,-4.0489,-4.0489,-4.0489,-4.0489,-4.0489,-4.0489,-4.0489,-4.0489,-4.0489,-4.0489,-4.0489,-4.0489,-4.0489,-4.0489,-4.0489,-4.0489,-4.0489,-4.0489,-4.0489,-4.009,-3.9613,-3.9521,-3.8539,-3.7353,-3.6784,-3.6569,-3.6492,-3.6492,-3.6492,-3.6492,-3.6492,-3.6492,-3.6492,-3.6492,-3.5414,-3.4274,-3.3521,-3.2752,-3.1813,-3.0571,0.0,-3.1751,-3.2321,-3.2675,-3.329,-3.4397,-3.4597,-3.4659,-3.4659,-3.5183,-3.5306,-3.4828,-3.5876,-3.623,-3.566,-3.6184,-3.6492,-3.6492,-3.6492,-3.6492,-3.6492,-3.6492,-3.6492,-3.6492,-3.6492,-3.6492,-3.6492,-3.6492,-3.6876,-3.7554,-3.8231,-3.8908,-3.9585,-4.0228,-4.0489,-4.0489,-4.0489,-4.0489,-4.0489,-4.1852,-4.2699,-4.329,-4.329,-4.329,-4.329,-4.329,-4.329,-4.329,-4.329,-4.329,-4.329,-4.329,-4.329,-4.329,-4.329,-4.3369,-4.3423,-4.3423,-4.3636,-4.3769,-4.3769,-4.3997,-4.4129,-4.4129,-4.3697,-4.311,-4.2448,-4.2448,-4.2109,-4.1432,-4.1432,-4.1109,-4.0489,-4.0489,-4.0489,-4.0489,-4.0489,-4.0489,-4.0489,-4.0489,-4.0489,-4.0489,-4.0489,-4.0489,-4.0489,-4.0489,-4.0489,-4.0489,-4.0489,-4.0489,-4.0489,-4.0489,-4.0489,-4.0489,-4.0489,-4.0428,-4.0213,-3.9644,-3.8539,-3.7477,-3.7369,-3.6923,-3.6492,-3.6492,-3.6492,-3.6492,-3.6492,-3.6492,-3.6492,-3.6492,-3.5414,-3.4274,-3.3521,-3.2351,-3.1274,-3.0509,0.0,-3.2275,-3.2382,-3.3937,-3.489,-3.4536,-3.5013,-3.5322,-3.5322,-3.5444,-3.5722,-3.6153,-3.6384,-3.6445,-3.6338,-3.6445,-3.6492,-3.6492,-3.6492,-3.6492,-3.6492,-3.6492,-3.6492,-3.6492,-3.6492,-3.6492,-3.6492,-3.6492,-3.6876,-3.7554,-3.8231,-3.8908,-3.9585,-4.0228,-4.0489,-4.0489,-4.0489,-4.0489,-4.0489,-4.1071,-4.1976,-4.2739,-4.321,-4.329,-4.329,-4.329,-4.329,-4.329,-4.329,-4.329,-4.329,-4.329,-4.329,-4.329,-4.329,-4.329,-4.329,-4.329,-4.3423,-4.3463,-4.3463,-4.3895,-4.4243,-4.4473,-4.4242,-4.3824,-4.3125,-4.3125,-4.2786,-4.214,-4.214,-4.1971,-4.1648,-4.1648,-4.1648,-4.1648,-4.1648,-4.1648,-4.1648,-4.1648,-4.1397,-4.1109,-4.1109,-4.0863,-4.0489,-4.0489,-4.0489,-4.0489,-4.0489,-4.0489,-4.0489,-4.0489,-4.0489,-4.0489,-4.0489,-4.0489,-4.0336,-3.9674,-3.9062,-3.8415,-3.7677,-3.7261,-3.6938,-3.6569,-3.6492,-3.6492,-3.6492,-3.6492,-3.6492,-3.6492,-3.5722,-3.4828,-3.4091,-3.3136,-3.2367,-3.2074,-3.2552,-3.3213,-3.3967,-3.4936,-3.5537,-3.5553,-3.5845,-3.603,-3.603,-3.603,-3.6153,-3.6476,-3.6492,-3.6492,-3.6492,-3.6492,-3.6492,-3.6492,-3.6492,-3.6492,-3.6492,-3.6492,-3.6492,-3.6492,-3.6492,-3.6492,-3.6492,-3.6492,-3.6676,-3.7015,-3.7692,-3.8369,-3.9046,-3.969,-4.0166,-4.0489,-4.0489,-4.0489,-4.0489,-4.0418,-4.138,-4.2278,-4.317,-4.329,-4.329,-4.329,-4.329,-4.329,-4.329,-4.329,-4.329,-4.329,-4.329,-4.329,-4.329,-4.329,-4.329,-4.329,-4.329,-4.3329,-4.3384,-4.3817,-4.4243,-4.4572,-4.461,-4.4363,-4.384,-4.384,-4.3479,-4.2833,-4.2833,-4.2756,-4.2602,-4.2602,-4.2602,-4.2602,-4.2602,-4.2602,-4.2602,-4.2602,-4.2294,-4.1832,-4.1832,-4.1494,-4.0981,-4.0981,-4.0874,-4.0751,-4.0751,-4.0628,-4.0489,-4.0489,-4.0489,-4.0489,-4.0489,-4.0489,-4.0382,-3.9859,-3.9598,-3.9231,-3.8031,-3.7615,-3.7323,-3.6645,-3.6492,-3.6492,-3.6492,-3.6492,-3.6492,-3.6492,-3.5938,-3.529,-3.4613,0.0,-3.3598,-3.3429,-3.3675,-3.4291,-3.5383,-3.566,-3.5922,-3.6445,-3.6492,-3.6492,-3.6492,-3.6492,-3.6492,-3.6492,-3.6492,-3.6492,-3.6492,-3.6492,-3.6492,-3.6492,-3.6492,-3.6492,-3.6492,-3.6492,-3.6492,-3.6492,-3.6492,-3.6492,-3.6492,-3.6492,-3.6492,-3.6538,-3.7215,-3.7908,-3.8585,-3.9262,-3.9905,-4.0489,-4.0489,-4.0489,-4.0489,-4.0418,-4.138,-4.2278,-4.317,-4.329,-4.329,-4.329,-4.329,-4.329,-4.329,-4.329,-4.329,-4.329,-4.329,-4.329,-4.329,-4.329,-4.329,-4.329,-4.329,-4.3423,-4.3651,-4.4065,-4.4396,-4.4587,-4.461,-4.4594,-4.4548,-4.4548,-4.4194,-4.3531,-4.3531,-4.3171,-4.2602,-4.2602,-4.2602,-4.2602,-4.2602,-4.2602,-4.2602,-4.2602,-4.2586,-4.254,-4.254,-4.2494,-4.2463,-4.2463,-4.2048,-4.1524,-4.1524,-4.1078,-4.0489,-4.0489,-4.0489,-4.0489,-4.0489,-4.0489,-4.0489,-4.0428,-3.9967,-3.9339,-3.8616,-3.7969,-3.7323,-3.6645,-3.6492,-3.6492,-3.6492,-3.6492,-3.6492,-3.6492,-3.5938,-3.529,-3.4613,0.0,0.0,-3.3506,-3.4522,-3.5398,-3.5506,-3.6045,-3.6445,-3.6492,-3.6492,-3.6492,-3.6492,-3.6492,-3.6492,-3.6492,-3.6492,-3.6492,-3.6492,-3.6492,-3.6492,-3.6492,-3.6492,-3.6492,-3.6492,-3.6492,-3.6492,-3.6492,-3.6492,-3.6492,-3.6492,-3.6492,-3.6492,-3.6538,-3.7215,-3.7908,-3.8585,-3.9262,-3.9905,-4.0489,-4.0489,-4.0489,-4.0489,-3.9563,-4.0029,-4.0731,-4.2237,-4.2496,-4.2659,-4.321,-4.329,-4.329,-4.329,-4.329,-4.329,-4.329,-4.329,-4.329,-4.329,-4.329,-4.329,-4.329,-4.329,-4.3423,-4.369,-4.3832,-4.4089,-4.4396,-4.4396,-4.4473,-4.461,-4.461,-4.4486,-4.424,-4.424,-4.4101,-4.3833,-4.3833,-4.3833,-4.3833,-4.3833,-4.3833,-4.3833,-4.3833,-4.3571,-4.3202,-4.3202,-4.2956,-4.2602,-4.2602,-4.2448,-4.2232,-4.2232,-4.1771,-4.1186,-4.1186,-4.0858,-4.0489,-4.0489,-4.0489,-4.0489,-4.0489,-4.0305,-3.9951,-3.9308,-3.8631,-3.7954,-3.7277,-3.6799,-3.6492,-3.6492,-3.6492,-3.6492,-3.6492,-3.6276,-3.603,-3.5768,0.0,-3.5183,-3.5291,-3.5414,-3.566,-3.6061,-3.6338,-3.6492,-3.6492,-3.6492,-3.6492,-3.6492,-3.6492,-3.6492,-3.6492,-3.6492,-3.6492,-3.6492,-3.6492,-3.6492,-3.6492,-3.6492,-3.6492,-3.6492,-3.6492,-3.6492,-3.6492,-3.6492,-3.6492,-3.6492,-3.6492,-3.6492,-3.6507,-3.6769,-3.7523,-3.8539,-3.8785,-3.9521,-4.0489,-4.0489,-4.0489,-4.0489,-3.9046,-3.921,-3.9681,-4.1296,-4.1561,-4.1852,-4.2739,-4.2875,-4.2996,-4.325,-4.329,-4.329,-4.329,-4.329,-4.321,-4.2915,-4.313,-4.317,-4.2915,-4.2875,-4.313,-4.369,-4.3769,-4.391,-4.4205,-4.422,-4.4281,-4.4396,-4.4473,-4.4511,-4.4511,-4.4572,-4.461,-4.461,-4.4534,-4.4549,-4.4587,-4.4534,-4.4549,-4.4572,-4.4381,-4.4143,-4.3879,-4.3692,-4.3453,-4.3233,-4.3233,-4.3094,-4.2873,-4.2674,-4.2157,-4.1525,-4.1131,-4.0654,-4.0246,-4.0246,-4.0385,-4.0489,-4.0489,-4.0489,-4.0336,-3.9659,-3.917,-3.86,-3.7707,-3.7138,-3.6738,-3.6538,-3.6492,-3.6492,-3.6414,-3.646,-3.6492,-3.6414,-3.6061,-3.5953,-3.643,-3.6091,-3.5968,-3.6445,-3.6352,-3.632,-3.6492,-3.6352,-3.632,-3.6492,-3.6492,-3.6492,-3.6492,-3.6492,-3.6492,-3.6492,-3.6492,-3.6492,-3.6492,-3.6492,-3.6492,-3.6492,-3.6492,-3.6492,-3.6492,-3.6492,-3.6492,-3.6492,-3.6492,-3.6492,-3.6492,-3.6492,-3.7169,-3.8215,-3.8431,-3.92,-4.0197,-4.0413,-4.0489,-4.0489,-3.9002,-3.921,-3.9475,-4.0418,-4.0603,-4.0901,-4.1867,-4.199,-4.2293,-4.317,-4.329,-4.329,-4.329,-4.329,-4.2915,-4.2073,-4.2795,-4.2915,-4.2032,-4.199,-4.2496,-4.3651,-4.3871,-4.3988,-4.3988,-4.3988,-4.3988,-4.3988,-4.4205,-4.4281,-4.4281,-4.4496,-4.461,-4.4572,-4.4396,-4.4396,-4.4572,-4.4396,-4.4396,-4.4534,-4.3864,-4.3981,-4.4496,-4.3864,-4.402,-4.4572,-4.4572,-4.4156,-4.3497,-4.2803,-4.2175,-4.1385,-4.0112,-3.9698,-3.9696,-3.9696,-4.0086,-4.0489,-4.0489,-4.0489,-4.0336,-3.9659,-3.949,-3.917,-3.7831,-3.7507,-3.7307,-3.663,-3.6492,-3.6445,-3.6242,-3.6352,-3.6414,-3.6242,-3.6383,-3.6492,-3.6492,-3.6492,-3.6492,-3.6492,-3.6022,-3.5879,-3.6429,-3.6022,-3.5926,-3.646,-3.6492,-3.6492,-3.6492,-3.6492,-3.6492,-3.6492,-3.6492,-3.6492,-3.6492,-3.6492,-3.6492,-3.6492,-3.6492,-3.6492,-3.6492,-3.6492,-3.6492,-3.6492,-3.6492,-3.6492,-3.6492,-3.6492,-3.6892,-3.7569,-3.8246,-3.8923,-3.9567,-4.0243,-4.0489,-4.0489,-3.8226,-3.8272,-3.8562,-3.9475,-3.9637,-3.9942,-4.0859,-4.1029,-4.1113,-4.1365,-4.1407,-4.1407,-4.1407,-4.1407,-4.1281,-4.1029,-4.1239,-4.1281,-4.1029,-4.1029,-4.1155,-4.1491,-4.1574,-4.1988,-4.279,-4.279,-4.322,-4.3988,-4.4065,-4.4104,-4.4089,-4.4281,-4.4396,-4.4396,-4.432,-4.432,-4.4343,-4.3467,-4.3349,-4.3639,-4.3254,-4.3135,-4.3245,-4.3512,-4.3418,-4.3205,-4.3205,-4.3071,-4.2867,-4.2669,-4.2159,-4.1468,-4.0586,-4.0052,-3.9758,-4.0229,-3.9847,-3.94,-3.9824,-3.9631,-3.9463,-4.0056,-3.9844,-3.9382,-3.8982,-3.8185,-3.7399,-3.7056,-3.661,-3.6242,-3.6085,-3.61,-3.6132,-3.6068,-3.61,-3.6053,-3.5769,-3.5737,-3.564,-3.5415,-3.5252,-3.5219,-3.535,-3.5219,-3.535,-3.5894,-3.6289,-3.6352,-3.5958,-3.6289,-3.6492,-3.6492,-3.6492,-3.6492,-3.6492,-3.6492,-3.6492,-3.6492,-3.6492,-3.6492,-3.6492,-3.6492,-3.6492,-3.6492,-3.6492,-3.6492,-3.6492,-3.6492,-3.6892,-3.7569,-3.8246,-3.8923,-3.9567,-4.0243,-4.0489,-4.0489,-3.79,-3.79,-3.807,-3.8594,-3.8671,-3.897,-3.9899,-4.0029,-4.0257,-4.0854,-4.0939,-4.1024,-4.1248,-4.1066,-4.081,-4.0447,-4.0182,-4.0029,-4.0029,-4.0029,-3.9913,-3.9546,-3.9546,-4.0187,-4.1616,-4.1616,-4.1947,-4.267,-4.2735,-4.2776,-4.2776,-4.2961,-4.3254,-4.36,-4.3175,-4.3215,-4.356,-4.2408,-4.2123,-4.2408,-4.2041,-4.1959,-4.2097,-4.2426,-4.2467,-4.233,-4.2548,-4.2589,-4.2548,-4.2319,-4.1651,-4.0813,-4.0397,-3.9898,-3.9475,-3.9814,-3.9423,-3.8906,-3.9046,-3.8789,-3.8642,-3.9175,-3.9405,-3.9386,-3.9127,-3.8544,-3.7969,-3.7565,-3.6713,-3.6017,-3.5869,-3.5416,-3.5073,-3.5008,-3.5187,-3.5237,-3.4993,-3.5091,-3.5139,-3.4909,-3.471,-3.4677,-3.4876,-3.471,-3.4824,-3.535,-3.5688,-3.5816,-3.572,-3.6022,-3.6289,-3.6492,-3.6492,-3.6492,-3.6492,-3.6492,-3.6492,-3.6492,-3.6492,-3.6492,-3.6492,-3.6492,-3.6492,-3.6492,-3.6492,-3.6492,-3.6492,-3.6492,-3.6738,-3.7169,-3.7846,-3.8523,-3.92,-3.9844,-4.0259,-4.0489,-3.79,-3.79,-3.79,-3.79,-3.7939,-3.8214,-3.9024,-3.9199,-3.9755,-4.1177,-4.1335,-4.1544,-4.2015,-4.1555,-4.0896,-4.0042,-3.9442,-3.9077,-3.9077,-3.9077,-3.8715,-3.7946,-3.79,-3.8666,-4.0303,-4.0432,-4.0504,-4.0603,-4.0788,-4.0859,-4.0901,-4.1084,-4.1627,-4.2408,-4.135,-4.1489,-4.2368,-4.1224,-4.0887,-4.1028,-4.0475,-4.0546,-4.1,-4.0958,-4.1226,-4.1726,-4.2126,-4.2304,-4.2222,-4.1715,-4.0772,-3.9817,-3.9817,-3.9436,-3.8993,-3.8878,-3.8816,-3.8688,-3.8196,-3.7956,-3.78,-3.7434,-3.8256,-3.8984,-3.8424,-3.8557,-3.8571,-3.7888,-3.6673,-3.5693,-3.5492,-3.4537,-3.3673,-3.3506,-3.3871,-3.4211,-3.4211,-3.4528,-3.4743,-3.4758,-3.4322,-3.4221,-3.471,-3.4341,-3.4274,-3.471,-3.4843,-3.5073,-3.5512,-3.5655,-3.5926,-3.6429,-3.6492,-3.6492,-3.6492,-3.6492,-3.6492,-3.6492,-3.6492,-3.6492,-3.6492,-3.6492,-3.6492,-3.6492,-3.6492,-3.6492,-3.6492,-3.6492,-3.6492,-3.6553,-3.723,-3.7877,-3.8508,-3.9247,-3.9874,-4.0413,-3.79,-3.79,-3.79,-3.79,-3.8253,-3.8574,-3.878,-3.9235,-3.9625,-3.9993,-4.0006,-4.0059,-4.0165,-3.9648,-3.9243,-3.9024,-3.851,-3.8181,-3.8181,-3.8181,-3.8103,-3.79,-3.79,-3.807,-3.8498,-3.9135,-3.9855,-4.0603,-4.0632,-4.0675,-4.0675,-4.0859,-4.1056,-4.128,-4.1014,-4.1014,-4.1182,-4.0045,-3.9798,-4.0145,-3.9812,-3.9664,-3.9779,-4.0258,-4.0215,-3.9881,-3.9968,-4.0012,-4.0055,-4.0286,-4.0173,-3.9976,-3.9976,-3.9546,-3.9103,-3.9131,-3.8158,-3.7192,-3.7562,-3.6932,-3.6203,-3.6123,-3.6531,-3.7112,-3.758,-3.735,-3.696,-3.6618,-3.5904,-3.5138,-3.4548,-3.4207,-3.3846,-3.3368,-3.3353,-3.3471,-3.35,-3.3604,-3.3652,-3.3646,-3.3542,-3.3507,-3.3646,-3.3928,-3.3982,-3.3681,-3.4423,-3.4776,-3.4476,-3.5252,-3.5752,-3.5847,-3.6289,-3.6492,-3.6492,-3.6492,-3.6492,-3.6492,-3.6492,-3.6492,-3.6492,-3.6492,-3.6492,-3.6492,-3.6492,-3.6492,-3.6492,-3.6492,-3.6492,-3.6553,-3.723,-3.7584,-3.7861,-3.9077,-3.9582,-3.9782,-3.79,-3.8109,-3.8292,-3.8292,-3.8762,-3.9141,-3.9141,-3.9403,-3.9703,-3.9965,-3.9991,-4.0109,-4.0396,-3.9651,-3.8919,-3.837,-3.807,-3.79,-3.79,-3.79,-3.79,-3.79,-3.79,-3.79,-3.79,-3.8349,-3.8819,-3.9295,-3.9295,-3.9295,-3.9295,-3.9401,-3.9681,-4.0045,-3.9637,-3.9681,-4.0002,-3.9015,-3.8729,-3.8939,-3.8819,-3.8697,-3.8679,-3.9278,-3.9292,-3.8993,-3.9216,-3.9305,-3.9349,-3.9557,-3.9645,-3.9645,-3.9645,-3.9308,-3.8863,-3.8839,-3.7816,-3.6707,-3.6729,-3.6076,-3.5358,-3.5141,-3.525,-3.5655,-3.6674,-3.6795,-3.6684,-3.6555,-3.5735,-3.4879,-3.4499,-3.3895,-3.3213,-3.2616,-3.285,-3.2971,-3.2566,-3.2966,-3.3227,-3.3051,-3.3171,-3.329,-3.329,-3.3542,-3.3597,-3.3312,-3.3805,-3.4133,-3.4104,-3.4643,-3.5041,-3.5317,-3.5847,-3.6116,-3.6116,-3.6352,-3.6492,-3.6492,-3.6492,-3.6492,-3.6492,-3.6492,-3.6492,-3.6492,-3.6492,-3.6492,-3.6492,-3.6492,-3.6492,-3.6522,-3.6892,-3.7215,-3.7584,-3.8292,-3.897,-3.9536,-3.79,-3.8344,-3.871,-3.871,-3.9285,-3.9743,-3.9743,-3.9834,-4.0056,-4.0514,-4.0566,-4.0723,-4.1115,-4.0135,-3.9037,-3.7991,-3.79,-3.79,-3.79,-3.79,-3.79,-3.79,-3.79,-3.79,-3.79,-3.79,-3.79,-3.79,-3.79,-3.79,-3.79,-3.79,-3.8272,-3.8957,-3.8226,-3.8317,-3.8912,-3.8194,-3.79,-3.79,-3.79,-3.79,-3.7946,-3.8344,-3.8466,-3.8512,-3.8904,-3.9038,-3.9083,-3.9172,-3.9172,-3.9172,-3.9172,-3.8904,-3.8554,-3.837,-3.7618,-3.6714,-3.6088,-3.5546,-3.4999,-3.4507,-3.4397,-3.4675,-3.5749,-3.6241,-3.645,-3.645,-3.5526,-3.4712,-3.4617,-3.3622,-3.2659,-3.2032,-3.2492,-3.2697,-3.2003,-3.2663,-3.3133,-3.2905,-3.3121,-3.329,-3.329,-3.329,-3.329,-3.329,-3.329,-3.3472,-3.3948,-3.4051,-3.4308,-3.4743,-3.5285,-3.5544,-3.5544,-3.599,-3.6258,-3.6352,-3.6352,-3.6429,-3.6492,-3.6492,-3.6492,-3.6492,-3.6492,-3.6492,-3.6492,-3.6492,-3.6492,-3.6492,-3.6492,-3.683,-3.7338,-3.7461,-3.8292,-3.9339,-3.79,-3.8344,-3.871,-3.871,-3.9599,-4.0305,-4.0305,-4.0749,-4.1115,-4.118,-4.1193,-4.1023,-4.0592,-3.952,-3.8579,-3.7952,-3.79,-3.79,-3.79,-3.79,-3.79,-3.79,-3.79,-3.79,-3.79,-3.79,-3.79,-3.79,-3.79,-3.79,-3.79,-3.79,-3.7946,-3.807,-3.7946,-3.7992,-3.807,-3.7946,-3.79,-3.79,-3.79,-3.79,-3.79,-3.7992,-3.7992,-3.7992,-3.8083,-3.8083,-3.8161,-3.8557,-3.8692,-3.8692,-3.8692,-3.8647,-3.8498,-3.8069,-3.7487,-3.6839,-3.6249,-3.5673,-3.5136,-3.4528,-3.4397,-3.4439,-3.4634,-3.4716,-3.4744,-3.4744,-3.4568,-3.4288,-3.3869,-3.3603,-3.3273,-3.2672,-3.2647,-3.2817,-3.3037,-3.3052,-3.316,-3.3445,-3.335,-3.329,-3.329,-3.329,-3.329,-3.329,-3.329,-3.3312,-3.3417,-3.3859,-3.4138,-3.4206,-3.4743,-3.5023,-3.5023,-3.5088,-3.535,-3.5816,-3.5816,-3.6053,-3.6492,-3.6492,-3.6492,-3.6492,-3.6492,-3.6492,-3.6492,-3.6492,-3.6492,-3.6492,-3.6492,-3.6553,-3.6707,-3.7292,-3.7984,-3.8646,-3.79,-3.8606,-3.9207,-3.9207,-4.0161,-4.0919,-4.0919,-4.1141,-4.1311,-4.1311,-4.1023,-4.071,-4.0448,-3.939,-3.8488,-3.7952,-3.79,-3.79,-3.79,-3.79,-3.79,-3.79,-3.79,-3.79,-3.79,-3.79,-3.79,-3.79,-3.79,-3.79,-3.79,-3.79,-3.79,-3.79,-3.79,-3.79,-3.79,-3.79,-3.79,-3.79,-3.79,-3.79,-3.79,-3.79,-3.79,-3.79,-3.79,-3.79,-3.7946,-3.8116,-3.8207,-3.8207,-3.8207,-3.8207,-3.8161,-3.7946,-3.7482,-3.6946,-3.6684,-3.5966,-3.5234,-3.4959,-3.4646,-3.4397,-3.4397,-3.4397,-3.4397,-3.4397,-3.4397,-3.4332,-3.4084,-3.4045,-3.3862,-3.3287,-3.3369,-3.3437,-3.3328,-3.3625,-3.3867,-3.394,-3.3549,-3.329,-3.329,-3.329,-3.329,-3.329,-3.329,-3.329,-3.329,-3.3507,-3.3632,-3.3632,-3.4187,-3.4442,-3.4442,-3.4743,-3.5023,-3.5252,-3.5252,-3.5688,-3.6492,-3.6492,-3.6492,-3.6492,-3.6492,-3.6492,-3.6492,-3.6492,-3.6492,-3.6492,-3.6492,-3.6492,-3.6538,-3.683,-3.7369,-3.7938]}]]